<?xml version="1.0" encoding="UTF-8" standalone="no" ?>
<gpx xmlns="http://www.topografix.com/GPX/1/1" xmlns:xsi="http://www.w3.org/2001/XMLSchema-instance" xsi:schemaLocation="http://www.topografix.com/GPX/1/1 http://www.topografix.com/GPX/1/1/gpx.xsd" version="1.1" creator="VisuGPX - https://www.visugpx.com">
  <metadata>
    <name>trail de l'hers 2023</name>
  </metadata>
  <trk>
    <name><![CDATA[Trail 2 l'Hers - 25k-16415007]]></name>
    <extensions>
      <line xmlns="http://www.topografix.com/GPX/gpx_style/0/2">
        <color>ff0000</color>
        <width>4</width>
          <extensions>
            <sens>1</sens>
          </extensions>
      </line>
    </extensions>
    <trkseg>
      <trkpt lat="42.95608" lon="1.9108">
        <ele>430</ele>
        <time>2023-04-24T17:44:41Z</time>
      </trkpt>
      <trkpt lat="42.95639" lon="1.91115">
        <ele>430</ele>
        <time>2023-04-24T17:45:01Z</time>
      </trkpt>
      <trkpt lat="42.95669" lon="1.91086">
        <ele>430</ele>
        <time>2023-04-24T17:45:20Z</time>
      </trkpt>
      <trkpt lat="42.95648" lon="1.91049">
        <ele>431</ele>
        <time>2023-04-24T17:45:37Z</time>
      </trkpt>
      <trkpt lat="42.9566" lon="1.91026">
        <ele>433</ele>
        <time>2023-04-24T17:45:47Z</time>
      </trkpt>
      <trkpt lat="42.95649" lon="1.91014">
        <ele>433</ele>
        <time>2023-04-24T17:45:54Z</time>
      </trkpt>
      <trkpt lat="42.95657" lon="1.91008">
        <ele>433</ele>
        <time>2023-04-24T17:45:59Z</time>
      </trkpt>
      <trkpt lat="42.95723" lon="1.90998">
        <ele>437</ele>
        <time>2023-04-24T17:46:32Z</time>
      </trkpt>
      <trkpt lat="42.95748" lon="1.90989">
        <ele>439</ele>
        <time>2023-04-24T17:46:45Z</time>
      </trkpt>
      <trkpt lat="42.95751" lon="1.9099">
        <ele>439</ele>
        <time>2023-04-24T17:46:46Z</time>
      </trkpt>
      <trkpt lat="42.95749" lon="1.90972">
        <ele>440</ele>
        <time>2023-04-24T17:46:53Z</time>
      </trkpt>
      <trkpt lat="42.95733" lon="1.90934">
        <ele>442</ele>
        <time>2023-04-24T17:47:09Z</time>
      </trkpt>
      <trkpt lat="42.95714" lon="1.90899">
        <ele>443</ele>
        <time>2023-04-24T17:47:25Z</time>
      </trkpt>
      <trkpt lat="42.95681" lon="1.90858">
        <ele>443</ele>
        <time>2023-04-24T17:47:47Z</time>
      </trkpt>
      <trkpt lat="42.95665" lon="1.90834">
        <ele>444</ele>
        <time>2023-04-24T17:47:59Z</time>
      </trkpt>
      <trkpt lat="42.95668" lon="1.9083">
        <ele>444</ele>
        <time>2023-04-24T17:48:01Z</time>
      </trkpt>
      <trkpt lat="42.95674" lon="1.90832">
        <ele>444</ele>
        <time>2023-04-24T17:48:04Z</time>
      </trkpt>
      <trkpt lat="42.95684" lon="1.90826">
        <ele>445</ele>
        <time>2023-04-24T17:48:10Z</time>
      </trkpt>
      <trkpt lat="42.95688" lon="1.90818">
        <ele>445</ele>
        <time>2023-04-24T17:48:13Z</time>
      </trkpt>
      <trkpt lat="42.95719" lon="1.907">
        <ele>446</ele>
        <time>2023-04-24T17:48:59Z</time>
      </trkpt>
      <trkpt lat="42.95731" lon="1.90685">
        <ele>446</ele>
        <time>2023-04-24T17:49:07Z</time>
      </trkpt>
      <trkpt lat="42.95794" lon="1.90643">
        <ele>449</ele>
        <time>2023-04-24T17:49:43Z</time>
      </trkpt>
      <trkpt lat="42.95815" lon="1.90636">
        <ele>451</ele>
        <time>2023-04-24T17:49:53Z</time>
      </trkpt>
      <trkpt lat="42.95825" lon="1.90638">
        <ele>452</ele>
        <time>2023-04-24T17:49:58Z</time>
      </trkpt>
      <trkpt lat="42.95876" lon="1.90668">
        <ele>455</ele>
        <time>2023-04-24T17:50:26Z</time>
      </trkpt>
      <trkpt lat="42.95907" lon="1.90674">
        <ele>457</ele>
        <time>2023-04-24T17:50:42Z</time>
      </trkpt>
      <trkpt lat="42.95914" lon="1.90673">
        <ele>458</ele>
        <time>2023-04-24T17:50:45Z</time>
      </trkpt>
      <trkpt lat="42.95955" lon="1.90639">
        <ele>463</ele>
        <time>2023-04-24T17:51:09Z</time>
      </trkpt>
      <trkpt lat="42.95989" lon="1.90581">
        <ele>468</ele>
        <time>2023-04-24T17:51:37Z</time>
      </trkpt>
      <trkpt lat="42.95999" lon="1.90545">
        <ele>468</ele>
        <time>2023-04-24T17:51:51Z</time>
      </trkpt>
      <trkpt lat="42.96008" lon="1.90526">
        <ele>470</ele>
        <time>2023-04-24T17:51:59Z</time>
      </trkpt>
      <trkpt lat="42.96111" lon="1.90359">
        <ele>484</ele>
        <time>2023-04-24T17:53:19Z</time>
      </trkpt>
      <trkpt lat="42.9619" lon="1.90278">
        <ele>500</ele>
        <time>2023-04-24T17:54:08Z</time>
      </trkpt>
      <trkpt lat="42.96226" lon="1.90231">
        <ele>505</ele>
        <time>2023-04-24T17:54:33Z</time>
      </trkpt>
      <trkpt lat="42.96238" lon="1.9023">
        <ele>509</ele>
        <time>2023-04-24T17:54:39Z</time>
      </trkpt>
      <trkpt lat="42.9626" lon="1.90239">
        <ele>513</ele>
        <time>2023-04-24T17:54:51Z</time>
      </trkpt>
      <trkpt lat="42.96265" lon="1.90237">
        <ele>513</ele>
        <time>2023-04-24T17:54:53Z</time>
      </trkpt>
      <trkpt lat="42.96268" lon="1.9024">
        <ele>514</ele>
        <time>2023-04-24T17:54:55Z</time>
      </trkpt>
      <trkpt lat="42.96277" lon="1.9024">
        <ele>514</ele>
        <time>2023-04-24T17:55:00Z</time>
      </trkpt>
      <trkpt lat="42.96276" lon="1.90258">
        <ele>515</ele>
        <time>2023-04-24T17:55:06Z</time>
      </trkpt>
      <trkpt lat="42.9627" lon="1.90283">
        <ele>518</ele>
        <time>2023-04-24T17:55:16Z</time>
      </trkpt>
      <trkpt lat="42.9624" lon="1.90351">
        <ele>521</ele>
        <time>2023-04-24T17:55:45Z</time>
      </trkpt>
      <trkpt lat="42.96238" lon="1.90363">
        <ele>522</ele>
        <time>2023-04-24T17:55:50Z</time>
      </trkpt>
      <trkpt lat="42.96241" lon="1.90376">
        <ele>523</ele>
        <time>2023-04-24T17:55:55Z</time>
      </trkpt>
      <trkpt lat="42.96237" lon="1.90388">
        <ele>523</ele>
        <time>2023-04-24T17:55:59Z</time>
      </trkpt>
      <trkpt lat="42.96231" lon="1.90398">
        <ele>522</ele>
        <time>2023-04-24T17:56:04Z</time>
      </trkpt>
      <trkpt lat="42.96228" lon="1.90411">
        <ele>523</ele>
        <time>2023-04-24T17:56:09Z</time>
      </trkpt>
      <trkpt lat="42.96204" lon="1.90436">
        <ele>519</ele>
        <time>2023-04-24T17:56:24Z</time>
      </trkpt>
      <trkpt lat="42.96188" lon="1.90488">
        <ele>519</ele>
        <time>2023-04-24T17:56:45Z</time>
      </trkpt>
      <trkpt lat="42.96187" lon="1.905">
        <ele>520</ele>
        <time>2023-04-24T17:56:49Z</time>
      </trkpt>
      <trkpt lat="42.96191" lon="1.90513">
        <ele>520</ele>
        <time>2023-04-24T17:56:55Z</time>
      </trkpt>
      <trkpt lat="42.96198" lon="1.90525">
        <ele>521</ele>
        <time>2023-04-24T17:57:00Z</time>
      </trkpt>
      <trkpt lat="42.96201" lon="1.90538">
        <ele>521</ele>
        <time>2023-04-24T17:57:05Z</time>
      </trkpt>
      <trkpt lat="42.96201" lon="1.90608">
        <ele>519</ele>
        <time>2023-04-24T17:57:31Z</time>
      </trkpt>
      <trkpt lat="42.96204" lon="1.90621">
        <ele>519</ele>
        <time>2023-04-24T17:57:36Z</time>
      </trkpt>
      <trkpt lat="42.96205" lon="1.90664">
        <ele>518</ele>
        <time>2023-04-24T17:57:52Z</time>
      </trkpt>
      <trkpt lat="42.96208" lon="1.90676">
        <ele>519</ele>
        <time>2023-04-24T17:57:56Z</time>
      </trkpt>
      <trkpt lat="42.96205" lon="1.90734">
        <ele>519</ele>
        <time>2023-04-24T17:58:17Z</time>
      </trkpt>
      <trkpt lat="42.96201" lon="1.9076">
        <ele>519</ele>
        <time>2023-04-24T17:58:27Z</time>
      </trkpt>
      <trkpt lat="42.96191" lon="1.90782">
        <ele>519</ele>
        <time>2023-04-24T17:58:37Z</time>
      </trkpt>
      <trkpt lat="42.96181" lon="1.90822">
        <ele>520</ele>
        <time>2023-04-24T17:58:52Z</time>
      </trkpt>
      <trkpt lat="42.96171" lon="1.90889">
        <ele>522</ele>
        <time>2023-04-24T17:59:17Z</time>
      </trkpt>
      <trkpt lat="42.96163" lon="1.90926">
        <ele>522</ele>
        <time>2023-04-24T17:59:31Z</time>
      </trkpt>
      <trkpt lat="42.96167" lon="1.90968">
        <ele>524</ele>
        <time>2023-04-24T17:59:47Z</time>
      </trkpt>
      <trkpt lat="42.96167" lon="1.91035">
        <ele>525</ele>
        <time>2023-04-24T18:00:11Z</time>
      </trkpt>
      <trkpt lat="42.96171" lon="1.91064">
        <ele>525</ele>
        <time>2023-04-24T18:00:22Z</time>
      </trkpt>
      <trkpt lat="42.96165" lon="1.91076">
        <ele>524</ele>
        <time>2023-04-24T18:00:28Z</time>
      </trkpt>
      <trkpt lat="42.96165" lon="1.91188">
        <ele>523</ele>
        <time>2023-04-24T18:01:09Z</time>
      </trkpt>
      <trkpt lat="42.96172" lon="1.91256">
        <ele>522</ele>
        <time>2023-04-24T18:01:34Z</time>
      </trkpt>
      <trkpt lat="42.96167" lon="1.91283">
        <ele>523</ele>
        <time>2023-04-24T18:01:44Z</time>
      </trkpt>
      <trkpt lat="42.96156" lon="1.91305">
        <ele>521</ele>
        <time>2023-04-24T18:01:54Z</time>
      </trkpt>
      <trkpt lat="42.96149" lon="1.91329">
        <ele>519</ele>
        <time>2023-04-24T18:02:03Z</time>
      </trkpt>
      <trkpt lat="42.96135" lon="1.91354">
        <ele>515</ele>
        <time>2023-04-24T18:02:15Z</time>
      </trkpt>
      <trkpt lat="42.9613" lon="1.9138">
        <ele>514</ele>
        <time>2023-04-24T18:02:24Z</time>
      </trkpt>
      <trkpt lat="42.96124" lon="1.91393">
        <ele>513</ele>
        <time>2023-04-24T18:02:30Z</time>
      </trkpt>
      <trkpt lat="42.96124" lon="1.91407">
        <ele>513</ele>
        <time>2023-04-24T18:02:35Z</time>
      </trkpt>
      <trkpt lat="42.96114" lon="1.91474">
        <ele>511</ele>
        <time>2023-04-24T18:03:00Z</time>
      </trkpt>
      <trkpt lat="42.96108" lon="1.91499">
        <ele>510</ele>
        <time>2023-04-24T18:03:10Z</time>
      </trkpt>
      <trkpt lat="42.96111" lon="1.91537">
        <ele>513</ele>
        <time>2023-04-24T18:03:24Z</time>
      </trkpt>
      <trkpt lat="42.96105" lon="1.91547">
        <ele>512</ele>
        <time>2023-04-24T18:03:29Z</time>
      </trkpt>
      <trkpt lat="42.96105" lon="1.91575">
        <ele>514</ele>
        <time>2023-04-24T18:03:39Z</time>
      </trkpt>
      <trkpt lat="42.96087" lon="1.91623">
        <ele>514</ele>
        <time>2023-04-24T18:03:59Z</time>
      </trkpt>
      <trkpt lat="42.96083" lon="1.91663">
        <ele>516</ele>
        <time>2023-04-24T18:04:13Z</time>
      </trkpt>
      <trkpt lat="42.96077" lon="1.91687">
        <ele>516</ele>
        <time>2023-04-24T18:04:23Z</time>
      </trkpt>
      <trkpt lat="42.96079" lon="1.91712">
        <ele>518</ele>
        <time>2023-04-24T18:04:32Z</time>
      </trkpt>
      <trkpt lat="42.9607" lon="1.91737">
        <ele>516</ele>
        <time>2023-04-24T18:04:42Z</time>
      </trkpt>
      <trkpt lat="42.96059" lon="1.91815">
        <ele>516</ele>
        <time>2023-04-24T18:05:11Z</time>
      </trkpt>
      <trkpt lat="42.96053" lon="1.91842">
        <ele>515</ele>
        <time>2023-04-24T18:05:22Z</time>
      </trkpt>
      <trkpt lat="42.96048" lon="1.91893">
        <ele>515</ele>
        <time>2023-04-24T18:05:40Z</time>
      </trkpt>
      <trkpt lat="42.9605" lon="1.91919">
        <ele>516</ele>
        <time>2023-04-24T18:05:50Z</time>
      </trkpt>
      <trkpt lat="42.96057" lon="1.91945">
        <ele>518</ele>
        <time>2023-04-24T18:06:00Z</time>
      </trkpt>
      <trkpt lat="42.96058" lon="1.91973">
        <ele>518</ele>
        <time>2023-04-24T18:06:10Z</time>
      </trkpt>
      <trkpt lat="42.96051" lon="1.91983">
        <ele>515</ele>
        <time>2023-04-24T18:06:15Z</time>
      </trkpt>
      <trkpt lat="42.96051" lon="1.91996">
        <ele>514</ele>
        <time>2023-04-24T18:06:20Z</time>
      </trkpt>
      <trkpt lat="42.96063" lon="1.92035">
        <ele>514</ele>
        <time>2023-04-24T18:06:36Z</time>
      </trkpt>
      <trkpt lat="42.96098" lon="1.92115">
        <ele>512</ele>
        <time>2023-04-24T18:07:10Z</time>
      </trkpt>
      <trkpt lat="42.96099" lon="1.92143">
        <ele>508</ele>
        <time>2023-04-24T18:07:20Z</time>
      </trkpt>
      <trkpt lat="42.96125" lon="1.92141">
        <ele>511</ele>
        <time>2023-04-24T18:07:33Z</time>
      </trkpt>
      <trkpt lat="42.96132" lon="1.92151">
        <ele>511</ele>
        <time>2023-04-24T18:07:38Z</time>
      </trkpt>
      <trkpt lat="42.96143" lon="1.9215">
        <ele>512</ele>
        <time>2023-04-24T18:07:44Z</time>
      </trkpt>
      <trkpt lat="42.96179" lon="1.92161">
        <ele>516</ele>
        <time>2023-04-24T18:08:02Z</time>
      </trkpt>
      <trkpt lat="42.9622" lon="1.92213">
        <ele>522</ele>
        <time>2023-04-24T18:08:30Z</time>
      </trkpt>
      <trkpt lat="42.96228" lon="1.92219">
        <ele>523</ele>
        <time>2023-04-24T18:08:35Z</time>
      </trkpt>
      <trkpt lat="42.96272" lon="1.92246">
        <ele>529</ele>
        <time>2023-04-24T18:08:59Z</time>
      </trkpt>
      <trkpt lat="42.9628" lon="1.92248">
        <ele>530</ele>
        <time>2023-04-24T18:09:03Z</time>
      </trkpt>
      <trkpt lat="42.96304" lon="1.92246">
        <ele>532</ele>
        <time>2023-04-24T18:09:15Z</time>
      </trkpt>
      <trkpt lat="42.96311" lon="1.92248">
        <ele>533</ele>
        <time>2023-04-24T18:09:19Z</time>
      </trkpt>
      <trkpt lat="42.96337" lon="1.92267">
        <ele>533</ele>
        <time>2023-04-24T18:09:33Z</time>
      </trkpt>
      <trkpt lat="42.96356" lon="1.92286">
        <ele>529</ele>
        <time>2023-04-24T18:09:45Z</time>
      </trkpt>
      <trkpt lat="42.96359" lon="1.92329">
        <ele>526</ele>
        <time>2023-04-24T18:10:01Z</time>
      </trkpt>
      <trkpt lat="42.96372" lon="1.92419">
        <ele>521</ele>
        <time>2023-04-24T18:10:35Z</time>
      </trkpt>
      <trkpt lat="42.96416" lon="1.92383">
        <ele>525</ele>
        <time>2023-04-24T18:11:00Z</time>
      </trkpt>
      <trkpt lat="42.96435" lon="1.92363">
        <ele>524</ele>
        <time>2023-04-24T18:11:12Z</time>
      </trkpt>
      <trkpt lat="42.96448" lon="1.92373">
        <ele>522</ele>
        <time>2023-04-24T18:11:20Z</time>
      </trkpt>
      <trkpt lat="42.96484" lon="1.92388">
        <ele>519</ele>
        <time>2023-04-24T18:11:38Z</time>
      </trkpt>
      <trkpt lat="42.96495" lon="1.92389">
        <ele>517</ele>
        <time>2023-04-24T18:11:44Z</time>
      </trkpt>
      <trkpt lat="42.96504" lon="1.92384">
        <ele>516</ele>
        <time>2023-04-24T18:11:49Z</time>
      </trkpt>
      <trkpt lat="42.96518" lon="1.92366">
        <ele>515</ele>
        <time>2023-04-24T18:11:58Z</time>
      </trkpt>
      <trkpt lat="42.96528" lon="1.92359">
        <ele>514</ele>
        <time>2023-04-24T18:12:04Z</time>
      </trkpt>
      <trkpt lat="42.96549" lon="1.92357">
        <ele>511</ele>
        <time>2023-04-24T18:12:15Z</time>
      </trkpt>
      <trkpt lat="42.96559" lon="1.9235">
        <ele>510</ele>
        <time>2023-04-24T18:12:20Z</time>
      </trkpt>
      <trkpt lat="42.966" lon="1.9229">
        <ele>507</ele>
        <time>2023-04-24T18:12:50Z</time>
      </trkpt>
      <trkpt lat="42.96666" lon="1.923">
        <ele>505</ele>
        <time>2023-04-24T18:13:24Z</time>
      </trkpt>
      <trkpt lat="42.96669" lon="1.92306">
        <ele>505</ele>
        <time>2023-04-24T18:13:26Z</time>
      </trkpt>
      <trkpt lat="42.96671" lon="1.92336">
        <ele>503</ele>
        <time>2023-04-24T18:13:37Z</time>
      </trkpt>
      <trkpt lat="42.96675" lon="1.92344">
        <ele>502</ele>
        <time>2023-04-24T18:13:41Z</time>
      </trkpt>
      <trkpt lat="42.96679" lon="1.92346">
        <ele>501</ele>
        <time>2023-04-24T18:13:43Z</time>
      </trkpt>
      <trkpt lat="42.96703" lon="1.9234">
        <ele>500</ele>
        <time>2023-04-24T18:13:55Z</time>
      </trkpt>
      <trkpt lat="42.96769" lon="1.92331">
        <ele>496</ele>
        <time>2023-04-24T18:14:28Z</time>
      </trkpt>
      <trkpt lat="42.96802" lon="1.9232">
        <ele>496</ele>
        <time>2023-04-24T18:14:45Z</time>
      </trkpt>
      <trkpt lat="42.96811" lon="1.9232">
        <ele>495</ele>
        <time>2023-04-24T18:14:50Z</time>
      </trkpt>
      <trkpt lat="42.96819" lon="1.92324">
        <ele>494</ele>
        <time>2023-04-24T18:14:54Z</time>
      </trkpt>
      <trkpt lat="42.96825" lon="1.92333">
        <ele>493</ele>
        <time>2023-04-24T18:14:59Z</time>
      </trkpt>
      <trkpt lat="42.96859" lon="1.92418">
        <ele>484</ele>
        <time>2023-04-24T18:15:34Z</time>
      </trkpt>
      <trkpt lat="42.96863" lon="1.92435">
        <ele>483</ele>
        <time>2023-04-24T18:15:41Z</time>
      </trkpt>
      <trkpt lat="42.96868" lon="1.92494">
        <ele>479</ele>
        <time>2023-04-24T18:16:02Z</time>
      </trkpt>
      <trkpt lat="42.96867" lon="1.92534">
        <ele>478</ele>
        <time>2023-04-24T18:16:17Z</time>
      </trkpt>
      <trkpt lat="42.96894" lon="1.92537">
        <ele>477</ele>
        <time>2023-04-24T18:16:31Z</time>
      </trkpt>
      <trkpt lat="42.96927" lon="1.92529">
        <ele>477</ele>
        <time>2023-04-24T18:16:47Z</time>
      </trkpt>
      <trkpt lat="42.96959" lon="1.92505">
        <ele>475</ele>
        <time>2023-04-24T18:17:06Z</time>
      </trkpt>
      <trkpt lat="42.96972" lon="1.92485">
        <ele>475</ele>
        <time>2023-04-24T18:17:15Z</time>
      </trkpt>
      <trkpt lat="42.97041" lon="1.92507">
        <ele>468</ele>
        <time>2023-04-24T18:17:51Z</time>
      </trkpt>
      <trkpt lat="42.97094" lon="1.92513">
        <ele>461</ele>
        <time>2023-04-24T18:18:17Z</time>
      </trkpt>
      <trkpt lat="42.97111" lon="1.92538">
        <ele>459</ele>
        <time>2023-04-24T18:18:30Z</time>
      </trkpt>
      <trkpt lat="42.97128" lon="1.92579">
        <ele>456</ele>
        <time>2023-04-24T18:18:47Z</time>
      </trkpt>
      <trkpt lat="42.97144" lon="1.92597">
        <ele>455</ele>
        <time>2023-04-24T18:18:58Z</time>
      </trkpt>
      <trkpt lat="42.97164" lon="1.92611">
        <ele>454</ele>
        <time>2023-04-24T18:19:09Z</time>
      </trkpt>
      <trkpt lat="42.97103" lon="1.92874">
        <ele>460</ele>
        <time>2023-04-24T18:20:50Z</time>
      </trkpt>
      <trkpt lat="42.97072" lon="1.93019">
        <ele>456</ele>
        <time>2023-04-24T18:21:45Z</time>
      </trkpt>
      <trkpt lat="42.97091" lon="1.93027">
        <ele>456</ele>
        <time>2023-04-24T18:21:55Z</time>
      </trkpt>
      <trkpt lat="42.971" lon="1.9302">
        <ele>455</ele>
        <time>2023-04-24T18:22:00Z</time>
      </trkpt>
      <trkpt lat="42.97131" lon="1.93011">
        <ele>455</ele>
        <time>2023-04-24T18:22:16Z</time>
      </trkpt>
      <trkpt lat="42.97141" lon="1.93012">
        <ele>455</ele>
        <time>2023-04-24T18:22:21Z</time>
      </trkpt>
      <trkpt lat="42.97157" lon="1.92996">
        <ele>454</ele>
        <time>2023-04-24T18:22:31Z</time>
      </trkpt>
      <trkpt lat="42.97206" lon="1.92986">
        <ele>452</ele>
        <time>2023-04-24T18:22:56Z</time>
      </trkpt>
      <trkpt lat="42.97215" lon="1.92982">
        <ele>452</ele>
        <time>2023-04-24T18:23:01Z</time>
      </trkpt>
      <trkpt lat="42.97225" lon="1.92985">
        <ele>451</ele>
        <time>2023-04-24T18:23:06Z</time>
      </trkpt>
      <trkpt lat="42.97234" lon="1.9298">
        <ele>451</ele>
        <time>2023-04-24T18:23:11Z</time>
      </trkpt>
      <trkpt lat="42.97274" lon="1.92983">
        <ele>449</ele>
        <time>2023-04-24T18:23:31Z</time>
      </trkpt>
      <trkpt lat="42.97294" lon="1.92993">
        <ele>447</ele>
        <time>2023-04-24T18:23:41Z</time>
      </trkpt>
      <trkpt lat="42.97324" lon="1.93001">
        <ele>445</ele>
        <time>2023-04-24T18:23:57Z</time>
      </trkpt>
      <trkpt lat="42.97352" lon="1.93019">
        <ele>444</ele>
        <time>2023-04-24T18:24:12Z</time>
      </trkpt>
      <trkpt lat="42.97359" lon="1.93027">
        <ele>443</ele>
        <time>2023-04-24T18:24:17Z</time>
      </trkpt>
      <trkpt lat="42.97381" lon="1.93035">
        <ele>442</ele>
        <time>2023-04-24T18:24:28Z</time>
      </trkpt>
      <trkpt lat="42.97428" lon="1.93063">
        <ele>437</ele>
        <time>2023-04-24T18:24:54Z</time>
      </trkpt>
      <trkpt lat="42.97458" lon="1.93078">
        <ele>434</ele>
        <time>2023-04-24T18:25:10Z</time>
      </trkpt>
      <trkpt lat="42.97478" lon="1.93106">
        <ele>431</ele>
        <time>2023-04-24T18:25:24Z</time>
      </trkpt>
      <trkpt lat="42.97493" lon="1.93122">
        <ele>428</ele>
        <time>2023-04-24T18:25:34Z</time>
      </trkpt>
      <trkpt lat="42.97508" lon="1.93145">
        <ele>426</ele>
        <time>2023-04-24T18:25:45Z</time>
      </trkpt>
      <trkpt lat="42.97525" lon="1.93158">
        <ele>424</ele>
        <time>2023-04-24T18:25:55Z</time>
      </trkpt>
      <trkpt lat="42.97536" lon="1.93181">
        <ele>423</ele>
        <time>2023-04-24T18:26:05Z</time>
      </trkpt>
      <trkpt lat="42.97544" lon="1.93208">
        <ele>421</ele>
        <time>2023-04-24T18:26:15Z</time>
      </trkpt>
      <trkpt lat="42.97555" lon="1.93232">
        <ele>419</ele>
        <time>2023-04-24T18:26:26Z</time>
      </trkpt>
      <trkpt lat="42.97564" lon="1.93242">
        <ele>417</ele>
        <time>2023-04-24T18:26:31Z</time>
      </trkpt>
      <trkpt lat="42.97567" lon="1.93256">
        <ele>416</ele>
        <time>2023-04-24T18:26:37Z</time>
      </trkpt>
      <trkpt lat="42.97557" lon="1.93258">
        <ele>417</ele>
        <time>2023-04-24T18:26:42Z</time>
      </trkpt>
      <trkpt lat="42.97549" lon="1.93264">
        <ele>418</ele>
        <time>2023-04-24T18:26:46Z</time>
      </trkpt>
      <trkpt lat="42.97551" lon="1.93277">
        <ele>417</ele>
        <time>2023-04-24T18:26:51Z</time>
      </trkpt>
      <trkpt lat="42.97558" lon="1.93285">
        <ele>415</ele>
        <time>2023-04-24T18:26:56Z</time>
      </trkpt>
      <trkpt lat="42.97561" lon="1.93267">
        <ele>416</ele>
        <time>2023-04-24T18:27:03Z</time>
      </trkpt>
      <trkpt lat="42.97549" lon="1.93262">
        <ele>418</ele>
        <time>2023-04-24T18:27:09Z</time>
      </trkpt>
      <trkpt lat="42.97535" lon="1.93279">
        <ele>418</ele>
        <time>2023-04-24T18:27:18Z</time>
      </trkpt>
      <trkpt lat="42.97546" lon="1.93298">
        <ele>416</ele>
        <time>2023-04-24T18:27:27Z</time>
      </trkpt>
      <trkpt lat="42.97569" lon="1.93366">
        <ele>409</ele>
        <time>2023-04-24T18:27:55Z</time>
      </trkpt>
      <trkpt lat="42.97533" lon="1.93567">
        <ele>409</ele>
        <time>2023-04-24T18:29:10Z</time>
      </trkpt>
      <trkpt lat="42.9752" lon="1.93592">
        <ele>410</ele>
        <time>2023-04-24T18:29:22Z</time>
      </trkpt>
      <trkpt lat="42.97505" lon="1.93676">
        <ele>410</ele>
        <time>2023-04-24T18:29:53Z</time>
      </trkpt>
      <trkpt lat="42.97498" lon="1.93747">
        <ele>407</ele>
        <time>2023-04-24T18:30:19Z</time>
      </trkpt>
      <trkpt lat="42.97469" lon="1.9389">
        <ele>405</ele>
        <time>2023-04-24T18:31:14Z</time>
      </trkpt>
      <trkpt lat="42.97446" lon="1.94068">
        <ele>406</ele>
        <time>2023-04-24T18:32:20Z</time>
      </trkpt>
      <trkpt lat="42.97431" lon="1.941">
        <ele>407</ele>
        <time>2023-04-24T18:32:34Z</time>
      </trkpt>
      <trkpt lat="42.97398" lon="1.94184">
        <ele>406</ele>
        <time>2023-04-24T18:33:09Z</time>
      </trkpt>
      <trkpt lat="42.97319" lon="1.94405">
        <ele>405</ele>
        <time>2023-04-24T18:34:39Z</time>
      </trkpt>
      <trkpt lat="42.97282" lon="1.94552">
        <ele>412</ele>
        <time>2023-04-24T18:35:36Z</time>
      </trkpt>
      <trkpt lat="42.97272" lon="1.94606">
        <ele>413</ele>
        <time>2023-04-24T18:35:56Z</time>
      </trkpt>
      <trkpt lat="42.97277" lon="1.94623">
        <ele>413</ele>
        <time>2023-04-24T18:36:03Z</time>
      </trkpt>
      <trkpt lat="42.97294" lon="1.94622">
        <ele>414</ele>
        <time>2023-04-24T18:36:11Z</time>
      </trkpt>
      <trkpt lat="42.97314" lon="1.94592">
        <ele>411</ele>
        <time>2023-04-24T18:36:26Z</time>
      </trkpt>
      <trkpt lat="42.97337" lon="1.94539">
        <ele>407</ele>
        <time>2023-04-24T18:36:49Z</time>
      </trkpt>
      <trkpt lat="42.9738" lon="1.94535">
        <ele>407</ele>
        <time>2023-04-24T18:37:10Z</time>
      </trkpt>
      <trkpt lat="42.97443" lon="1.94538">
        <ele>411</ele>
        <time>2023-04-24T18:37:42Z</time>
      </trkpt>
      <trkpt lat="42.97485" lon="1.94492">
        <ele>408</ele>
        <time>2023-04-24T18:38:09Z</time>
      </trkpt>
      <trkpt lat="42.97521" lon="1.94447">
        <ele>402</ele>
        <time>2023-04-24T18:38:33Z</time>
      </trkpt>
      <trkpt lat="42.97563" lon="1.94433">
        <ele>402</ele>
        <time>2023-04-24T18:38:55Z</time>
      </trkpt>
      <trkpt lat="42.97636" lon="1.94427">
        <ele>401</ele>
        <time>2023-04-24T18:39:31Z</time>
      </trkpt>
      <trkpt lat="42.97655" lon="1.94453">
        <ele>402</ele>
        <time>2023-04-24T18:39:45Z</time>
      </trkpt>
      <trkpt lat="42.97655" lon="1.94483">
        <ele>403</ele>
        <time>2023-04-24T18:39:56Z</time>
      </trkpt>
      <trkpt lat="42.97648" lon="1.9452">
        <ele>404</ele>
        <time>2023-04-24T18:40:10Z</time>
      </trkpt>
      <trkpt lat="42.97632" lon="1.94562">
        <ele>405</ele>
        <time>2023-04-24T18:40:27Z</time>
      </trkpt>
      <trkpt lat="42.97635" lon="1.94618">
        <ele>403</ele>
        <time>2023-04-24T18:40:48Z</time>
      </trkpt>
      <trkpt lat="42.97628" lon="1.94671">
        <ele>403</ele>
        <time>2023-04-24T18:41:08Z</time>
      </trkpt>
      <trkpt lat="42.97564" lon="1.94861">
        <ele>403</ele>
        <time>2023-04-24T18:42:24Z</time>
      </trkpt>
      <trkpt lat="42.97513" lon="1.94982">
        <ele>405</ele>
        <time>2023-04-24T18:43:15Z</time>
      </trkpt>
      <trkpt lat="42.97494" lon="1.95058">
        <ele>402</ele>
        <time>2023-04-24T18:43:45Z</time>
      </trkpt>
      <trkpt lat="42.97476" lon="1.95102">
        <ele>401</ele>
        <time>2023-04-24T18:44:03Z</time>
      </trkpt>
      <trkpt lat="42.97448" lon="1.95131">
        <ele>402</ele>
        <time>2023-04-24T18:44:21Z</time>
      </trkpt>
      <trkpt lat="42.9741" lon="1.95142">
        <ele>404</ele>
        <time>2023-04-24T18:44:40Z</time>
      </trkpt>
      <trkpt lat="42.97382" lon="1.95124">
        <ele>403</ele>
        <time>2023-04-24T18:44:56Z</time>
      </trkpt>
      <trkpt lat="42.97365" lon="1.95086">
        <ele>403</ele>
        <time>2023-04-24T18:45:12Z</time>
      </trkpt>
      <trkpt lat="42.97352" lon="1.95033">
        <ele>406</ele>
        <time>2023-04-24T18:45:32Z</time>
      </trkpt>
      <trkpt lat="42.97332" lon="1.95001">
        <ele>408</ele>
        <time>2023-04-24T18:45:48Z</time>
      </trkpt>
      <trkpt lat="42.97273" lon="1.95014">
        <ele>406</ele>
        <time>2023-04-24T18:46:18Z</time>
      </trkpt>
      <trkpt lat="42.97216" lon="1.9501">
        <ele>405</ele>
        <time>2023-04-24T18:46:46Z</time>
      </trkpt>
      <trkpt lat="42.97122" lon="1.94959">
        <ele>406</ele>
        <time>2023-04-24T18:47:37Z</time>
      </trkpt>
      <trkpt lat="42.97083" lon="1.94946">
        <ele>405</ele>
        <time>2023-04-24T18:47:57Z</time>
      </trkpt>
      <trkpt lat="42.9705" lon="1.94906">
        <ele>406</ele>
        <time>2023-04-24T18:48:19Z</time>
      </trkpt>
      <trkpt lat="42.97038" lon="1.949">
        <ele>405</ele>
        <time>2023-04-24T18:48:25Z</time>
      </trkpt>
      <trkpt lat="42.97027" lon="1.94905">
        <ele>404</ele>
        <time>2023-04-24T18:48:31Z</time>
      </trkpt>
      <trkpt lat="42.97012" lon="1.9496">
        <ele>401</ele>
        <time>2023-04-24T18:48:53Z</time>
      </trkpt>
      <trkpt lat="42.96997" lon="1.94958">
        <ele>401</ele>
        <time>2023-04-24T18:49:00Z</time>
      </trkpt>
      <trkpt lat="42.96969" lon="1.94939">
        <ele>402</ele>
        <time>2023-04-24T18:49:16Z</time>
      </trkpt>
      <trkpt lat="42.96952" lon="1.94933">
        <ele>402</ele>
        <time>2023-04-24T18:49:25Z</time>
      </trkpt>
      <trkpt lat="42.96944" lon="1.94944">
        <ele>402</ele>
        <time>2023-04-24T18:49:30Z</time>
      </trkpt>
      <trkpt lat="42.96928" lon="1.94958">
        <ele>402</ele>
        <time>2023-04-24T18:49:40Z</time>
      </trkpt>
      <trkpt lat="42.96928" lon="1.94969">
        <ele>402</ele>
        <time>2023-04-24T18:49:44Z</time>
      </trkpt>
      <trkpt lat="42.96934" lon="1.94984">
        <ele>402</ele>
        <time>2023-04-24T18:49:50Z</time>
      </trkpt>
      <trkpt lat="42.96927" lon="1.95029">
        <ele>400</ele>
        <time>2023-04-24T18:50:07Z</time>
      </trkpt>
      <trkpt lat="42.9691" lon="1.95314">
        <ele>399</ele>
        <time>2023-04-24T18:51:52Z</time>
      </trkpt>
      <trkpt lat="42.96902" lon="1.95319">
        <ele>399</ele>
        <time>2023-04-24T18:51:56Z</time>
      </trkpt>
      <trkpt lat="42.9688" lon="1.9531">
        <ele>397</ele>
        <time>2023-04-24T18:52:08Z</time>
      </trkpt>
      <trkpt lat="42.96862" lon="1.95309">
        <ele>397</ele>
        <time>2023-04-24T18:52:17Z</time>
      </trkpt>
      <trkpt lat="42.96851" lon="1.9531">
        <ele>396</ele>
        <time>2023-04-24T18:52:22Z</time>
      </trkpt>
      <trkpt lat="42.96833" lon="1.9532">
        <ele>396</ele>
        <time>2023-04-24T18:52:32Z</time>
      </trkpt>
      <trkpt lat="42.9682" lon="1.95339">
        <ele>397</ele>
        <time>2023-04-24T18:52:41Z</time>
      </trkpt>
      <trkpt lat="42.96784" lon="1.95405">
        <ele>401</ele>
        <time>2023-04-24T18:53:12Z</time>
      </trkpt>
      <trkpt lat="42.96694" lon="1.95586">
        <ele>404</ele>
        <time>2023-04-24T18:54:32Z</time>
      </trkpt>
      <trkpt lat="42.96683" lon="1.95594">
        <ele>404</ele>
        <time>2023-04-24T18:54:38Z</time>
      </trkpt>
      <trkpt lat="42.96612" lon="1.95531">
        <ele>404</ele>
        <time>2023-04-24T18:55:20Z</time>
      </trkpt>
      <trkpt lat="42.96603" lon="1.95546">
        <ele>404</ele>
        <time>2023-04-24T18:55:27Z</time>
      </trkpt>
      <trkpt lat="42.96557" lon="1.95577">
        <ele>405</ele>
        <time>2023-04-24T18:55:53Z</time>
      </trkpt>
      <trkpt lat="42.96508" lon="1.95595">
        <ele>408</ele>
        <time>2023-04-24T18:56:18Z</time>
      </trkpt>
      <trkpt lat="42.96481" lon="1.95612">
        <ele>409</ele>
        <time>2023-04-24T18:56:33Z</time>
      </trkpt>
      <trkpt lat="42.96477" lon="1.95599">
        <ele>410</ele>
        <time>2023-04-24T18:56:38Z</time>
      </trkpt>
      <trkpt lat="42.96468" lon="1.9559">
        <ele>411</ele>
        <time>2023-04-24T18:56:44Z</time>
      </trkpt>
      <trkpt lat="42.96393" lon="1.95533">
        <ele>418</ele>
        <time>2023-04-24T18:57:27Z</time>
      </trkpt>
      <trkpt lat="42.96377" lon="1.95524">
        <ele>419</ele>
        <time>2023-04-24T18:57:36Z</time>
      </trkpt>
      <trkpt lat="42.96352" lon="1.9552">
        <ele>422</ele>
        <time>2023-04-24T18:57:48Z</time>
      </trkpt>
      <trkpt lat="42.96308" lon="1.95531">
        <ele>426</ele>
        <time>2023-04-24T18:58:11Z</time>
      </trkpt>
      <trkpt lat="42.96296" lon="1.95527">
        <ele>427</ele>
        <time>2023-04-24T18:58:17Z</time>
      </trkpt>
      <trkpt lat="42.96274" lon="1.95508">
        <ele>428</ele>
        <time>2023-04-24T18:58:30Z</time>
      </trkpt>
      <trkpt lat="42.96268" lon="1.95507">
        <ele>428</ele>
        <time>2023-04-24T18:58:33Z</time>
      </trkpt>
      <trkpt lat="42.96263" lon="1.95509">
        <ele>429</ele>
        <time>2023-04-24T18:58:35Z</time>
      </trkpt>
      <trkpt lat="42.9626" lon="1.95513">
        <ele>429</ele>
        <time>2023-04-24T18:58:38Z</time>
      </trkpt>
      <trkpt lat="42.96242" lon="1.95584">
        <ele>434</ele>
        <time>2023-04-24T18:59:05Z</time>
      </trkpt>
      <trkpt lat="42.96224" lon="1.95616">
        <ele>436</ele>
        <time>2023-04-24T18:59:20Z</time>
      </trkpt>
      <trkpt lat="42.96221" lon="1.95617">
        <ele>436</ele>
        <time>2023-04-24T18:59:21Z</time>
      </trkpt>
      <trkpt lat="42.96231" lon="1.95646">
        <ele>436</ele>
        <time>2023-04-24T18:59:33Z</time>
      </trkpt>
      <trkpt lat="42.96225" lon="1.95715">
        <ele>436</ele>
        <time>2023-04-24T18:59:59Z</time>
      </trkpt>
      <trkpt lat="42.9622" lon="1.95726">
        <ele>436</ele>
        <time>2023-04-24T19:00:03Z</time>
      </trkpt>
      <trkpt lat="42.96211" lon="1.95731">
        <ele>436</ele>
        <time>2023-04-24T19:00:08Z</time>
      </trkpt>
      <trkpt lat="42.96204" lon="1.9574">
        <ele>436</ele>
        <time>2023-04-24T19:00:13Z</time>
      </trkpt>
      <trkpt lat="42.96099" lon="1.9576">
        <ele>445</ele>
        <time>2023-04-24T19:01:06Z</time>
      </trkpt>
      <trkpt lat="42.96024" lon="1.95787">
        <ele>452</ele>
        <time>2023-04-24T19:01:45Z</time>
      </trkpt>
      <trkpt lat="42.96015" lon="1.95794">
        <ele>453</ele>
        <time>2023-04-24T19:01:50Z</time>
      </trkpt>
      <trkpt lat="42.95969" lon="1.95862">
        <ele>458</ele>
        <time>2023-04-24T19:02:24Z</time>
      </trkpt>
      <trkpt lat="42.95941" lon="1.95869">
        <ele>462</ele>
        <time>2023-04-24T19:02:38Z</time>
      </trkpt>
      <trkpt lat="42.95924" lon="1.95879">
        <ele>465</ele>
        <time>2023-04-24T19:02:47Z</time>
      </trkpt>
      <trkpt lat="42.95908" lon="1.95896">
        <ele>467</ele>
        <time>2023-04-24T19:02:58Z</time>
      </trkpt>
      <trkpt lat="42.95902" lon="1.95906">
        <ele>468</ele>
        <time>2023-04-24T19:03:02Z</time>
      </trkpt>
      <trkpt lat="42.95887" lon="1.95957">
        <ele>469</ele>
        <time>2023-04-24T19:03:22Z</time>
      </trkpt>
      <trkpt lat="42.95851" lon="1.96036">
        <ele>472</ele>
        <time>2023-04-24T19:03:57Z</time>
      </trkpt>
      <trkpt lat="42.95844" lon="1.96061">
        <ele>472</ele>
        <time>2023-04-24T19:04:06Z</time>
      </trkpt>
      <trkpt lat="42.95839" lon="1.96072">
        <ele>473</ele>
        <time>2023-04-24T19:04:11Z</time>
      </trkpt>
      <trkpt lat="42.95831" lon="1.96081">
        <ele>473</ele>
        <time>2023-04-24T19:04:16Z</time>
      </trkpt>
      <trkpt lat="42.95822" lon="1.96085">
        <ele>474</ele>
        <time>2023-04-24T19:04:21Z</time>
      </trkpt>
      <trkpt lat="42.95812" lon="1.96086">
        <ele>474</ele>
        <time>2023-04-24T19:04:26Z</time>
      </trkpt>
      <trkpt lat="42.95752" lon="1.9606">
        <ele>477</ele>
        <time>2023-04-24T19:04:58Z</time>
      </trkpt>
      <trkpt lat="42.957" lon="1.96309">
        <ele>465</ele>
        <time>2023-04-24T19:06:32Z</time>
      </trkpt>
      <trkpt lat="42.95691" lon="1.96365">
        <ele>464</ele>
        <time>2023-04-24T19:06:53Z</time>
      </trkpt>
      <trkpt lat="42.95682" lon="1.96451">
        <ele>464</ele>
        <time>2023-04-24T19:07:25Z</time>
      </trkpt>
      <trkpt lat="42.9567" lon="1.96495">
        <ele>462</ele>
        <time>2023-04-24T19:07:42Z</time>
      </trkpt>
      <trkpt lat="42.95668" lon="1.96537">
        <ele>462</ele>
        <time>2023-04-24T19:07:58Z</time>
      </trkpt>
      <trkpt lat="42.95646" lon="1.96598">
        <ele>457</ele>
        <time>2023-04-24T19:08:23Z</time>
      </trkpt>
      <trkpt lat="42.95571" lon="1.96715">
        <ele>438</ele>
        <time>2023-04-24T19:09:20Z</time>
      </trkpt>
      <trkpt lat="42.95551" lon="1.96732">
        <ele>431</ele>
        <time>2023-04-24T19:09:31Z</time>
      </trkpt>
      <trkpt lat="42.95547" lon="1.96738">
        <ele>429</ele>
        <time>2023-04-24T19:09:34Z</time>
      </trkpt>
      <trkpt lat="42.95543" lon="1.96773">
        <ele>425</ele>
        <time>2023-04-24T19:09:47Z</time>
      </trkpt>
      <trkpt lat="42.95557" lon="1.96837">
        <ele>423</ele>
        <time>2023-04-24T19:10:12Z</time>
      </trkpt>
      <trkpt lat="42.95561" lon="1.96876">
        <ele>419</ele>
        <time>2023-04-24T19:10:26Z</time>
      </trkpt>
      <trkpt lat="42.9557" lon="1.96909">
        <ele>417</ele>
        <time>2023-04-24T19:10:39Z</time>
      </trkpt>
      <trkpt lat="42.95568" lon="1.96916">
        <ele>416</ele>
        <time>2023-04-24T19:10:42Z</time>
      </trkpt>
      <trkpt lat="42.95557" lon="1.96914">
        <ele>415</ele>
        <time>2023-04-24T19:10:47Z</time>
      </trkpt>
      <trkpt lat="42.95536" lon="1.96862">
        <ele>416</ele>
        <time>2023-04-24T19:11:09Z</time>
      </trkpt>
      <trkpt lat="42.95529" lon="1.96861">
        <ele>415</ele>
        <time>2023-04-24T19:11:13Z</time>
      </trkpt>
      <trkpt lat="42.95525" lon="1.96865">
        <ele>414</ele>
        <time>2023-04-24T19:11:15Z</time>
      </trkpt>
      <trkpt lat="42.9552" lon="1.96878">
        <ele>413</ele>
        <time>2023-04-24T19:11:21Z</time>
      </trkpt>
      <trkpt lat="42.95514" lon="1.96882">
        <ele>411</ele>
        <time>2023-04-24T19:11:24Z</time>
      </trkpt>
      <trkpt lat="42.95506" lon="1.96877">
        <ele>410</ele>
        <time>2023-04-24T19:11:28Z</time>
      </trkpt>
      <trkpt lat="42.9549" lon="1.96844">
        <ele>410</ele>
        <time>2023-04-24T19:11:43Z</time>
      </trkpt>
      <trkpt lat="42.95454" lon="1.96843">
        <ele>407</ele>
        <time>2023-04-24T19:12:01Z</time>
      </trkpt>
      <trkpt lat="42.95454" lon="1.96831">
        <ele>407</ele>
        <time>2023-04-24T19:12:05Z</time>
      </trkpt>
      <trkpt lat="42.95451" lon="1.96823">
        <ele>407</ele>
        <time>2023-04-24T19:12:09Z</time>
      </trkpt>
      <trkpt lat="42.95399" lon="1.96797">
        <ele>403</ele>
        <time>2023-04-24T19:12:36Z</time>
      </trkpt>
      <trkpt lat="42.95395" lon="1.96802">
        <ele>403</ele>
        <time>2023-04-24T19:12:39Z</time>
      </trkpt>
      <trkpt lat="42.95394" lon="1.96807">
        <ele>403</ele>
        <time>2023-04-24T19:12:41Z</time>
      </trkpt>
      <trkpt lat="42.95416" lon="1.96874">
        <ele>402</ele>
        <time>2023-04-24T19:13:08Z</time>
      </trkpt>
      <trkpt lat="42.95419" lon="1.96891">
        <ele>402</ele>
        <time>2023-04-24T19:13:14Z</time>
      </trkpt>
      <trkpt lat="42.95427" lon="1.96982">
        <ele>403</ele>
        <time>2023-04-24T19:13:48Z</time>
      </trkpt>
      <trkpt lat="42.95433" lon="1.97022">
        <ele>403</ele>
        <time>2023-04-24T19:14:03Z</time>
      </trkpt>
      <trkpt lat="42.95433" lon="1.97048">
        <ele>402</ele>
        <time>2023-04-24T19:14:12Z</time>
      </trkpt>
      <trkpt lat="42.95428" lon="1.97048">
        <ele>403</ele>
        <time>2023-04-24T19:14:15Z</time>
      </trkpt>
      <trkpt lat="42.9542" lon="1.97035">
        <ele>403</ele>
        <time>2023-04-24T19:14:21Z</time>
      </trkpt>
      <trkpt lat="42.95413" lon="1.9703">
        <ele>403</ele>
        <time>2023-04-24T19:14:25Z</time>
      </trkpt>
      <trkpt lat="42.95319" lon="1.96985">
        <ele>404</ele>
        <time>2023-04-24T19:15:15Z</time>
      </trkpt>
      <trkpt lat="42.95322" lon="1.96973">
        <ele>403</ele>
        <time>2023-04-24T19:15:19Z</time>
      </trkpt>
      <trkpt lat="42.95322" lon="1.96947">
        <ele>403</ele>
        <time>2023-04-24T19:15:29Z</time>
      </trkpt>
      <trkpt lat="42.95325" lon="1.96935">
        <ele>403</ele>
        <time>2023-04-24T19:15:34Z</time>
      </trkpt>
      <trkpt lat="42.95345" lon="1.96888">
        <ele>404</ele>
        <time>2023-04-24T19:15:53Z</time>
      </trkpt>
      <trkpt lat="42.95352" lon="1.96862">
        <ele>404</ele>
        <time>2023-04-24T19:16:04Z</time>
      </trkpt>
      <trkpt lat="42.95259" lon="1.9682">
        <ele>407</ele>
        <time>2023-04-24T19:16:53Z</time>
      </trkpt>
      <trkpt lat="42.95257" lon="1.96825">
        <ele>406</ele>
        <time>2023-04-24T19:16:55Z</time>
      </trkpt>
      <trkpt lat="42.95197" lon="1.96792">
        <ele>411</ele>
        <time>2023-04-24T19:17:27Z</time>
      </trkpt>
      <trkpt lat="42.95188" lon="1.96789">
        <ele>411</ele>
        <time>2023-04-24T19:17:32Z</time>
      </trkpt>
      <trkpt lat="42.95164" lon="1.96788">
        <ele>412</ele>
        <time>2023-04-24T19:17:44Z</time>
      </trkpt>
      <trkpt lat="42.95122" lon="1.96791">
        <ele>412</ele>
        <time>2023-04-24T19:18:05Z</time>
      </trkpt>
      <trkpt lat="42.95119" lon="1.96794">
        <ele>412</ele>
        <time>2023-04-24T19:18:07Z</time>
      </trkpt>
      <trkpt lat="42.95107" lon="1.96795">
        <ele>412</ele>
        <time>2023-04-24T19:18:13Z</time>
      </trkpt>
      <trkpt lat="42.95067" lon="1.96812">
        <ele>411</ele>
        <time>2023-04-24T19:18:34Z</time>
      </trkpt>
      <trkpt lat="42.95059" lon="1.96811">
        <ele>411</ele>
        <time>2023-04-24T19:18:38Z</time>
      </trkpt>
      <trkpt lat="42.94869" lon="1.96874">
        <ele>429</ele>
        <time>2023-04-24T19:20:15Z</time>
      </trkpt>
      <trkpt lat="42.94878" lon="1.96726">
        <ele>427</ele>
        <time>2023-04-24T19:21:10Z</time>
      </trkpt>
      <trkpt lat="42.94881" lon="1.96709">
        <ele>427</ele>
        <time>2023-04-24T19:21:16Z</time>
      </trkpt>
      <trkpt lat="42.94896" lon="1.9669">
        <ele>423</ele>
        <time>2023-04-24T19:21:27Z</time>
      </trkpt>
      <trkpt lat="42.94906" lon="1.96685">
        <ele>420</ele>
        <time>2023-04-24T19:21:32Z</time>
      </trkpt>
      <trkpt lat="42.94926" lon="1.96682">
        <ele>416</ele>
        <time>2023-04-24T19:21:42Z</time>
      </trkpt>
      <trkpt lat="42.94988" lon="1.96662">
        <ele>414</ele>
        <time>2023-04-24T19:22:14Z</time>
      </trkpt>
      <trkpt lat="42.9504" lon="1.96643">
        <ele>414</ele>
        <time>2023-04-24T19:22:41Z</time>
      </trkpt>
      <trkpt lat="42.95062" lon="1.96641">
        <ele>415</ele>
        <time>2023-04-24T19:22:52Z</time>
      </trkpt>
      <trkpt lat="42.95063" lon="1.9657">
        <ele>415</ele>
        <time>2023-04-24T19:23:18Z</time>
      </trkpt>
      <trkpt lat="42.95053" lon="1.96564">
        <ele>415</ele>
        <time>2023-04-24T19:23:23Z</time>
      </trkpt>
      <trkpt lat="42.95048" lon="1.96555">
        <ele>415</ele>
        <time>2023-04-24T19:23:27Z</time>
      </trkpt>
      <trkpt lat="42.95047" lon="1.96547">
        <ele>415</ele>
        <time>2023-04-24T19:23:30Z</time>
      </trkpt>
      <trkpt lat="42.95061" lon="1.96484">
        <ele>415</ele>
        <time>2023-04-24T19:23:54Z</time>
      </trkpt>
      <trkpt lat="42.95055" lon="1.96473">
        <ele>415</ele>
        <time>2023-04-24T19:24:00Z</time>
      </trkpt>
      <trkpt lat="42.94935" lon="1.96395">
        <ele>426</ele>
        <time>2023-04-24T19:25:06Z</time>
      </trkpt>
      <trkpt lat="42.94912" lon="1.96385">
        <ele>428</ele>
        <time>2023-04-24T19:25:18Z</time>
      </trkpt>
      <trkpt lat="42.94836" lon="1.96364">
        <ele>434</ele>
        <time>2023-04-24T19:25:57Z</time>
      </trkpt>
      <trkpt lat="42.9479" lon="1.96367">
        <ele>436</ele>
        <time>2023-04-24T19:26:20Z</time>
      </trkpt>
      <trkpt lat="42.94759" lon="1.96366">
        <ele>438</ele>
        <time>2023-04-24T19:26:35Z</time>
      </trkpt>
      <trkpt lat="42.94741" lon="1.96365">
        <ele>439</ele>
        <time>2023-04-24T19:26:44Z</time>
      </trkpt>
      <trkpt lat="42.9472" lon="1.9636">
        <ele>440</ele>
        <time>2023-04-24T19:26:55Z</time>
      </trkpt>
      <trkpt lat="42.94627" lon="1.96368">
        <ele>440</ele>
        <time>2023-04-24T19:27:42Z</time>
      </trkpt>
      <trkpt lat="42.94606" lon="1.96361">
        <ele>441</ele>
        <time>2023-04-24T19:27:53Z</time>
      </trkpt>
      <trkpt lat="42.9459" lon="1.96359">
        <ele>441</ele>
        <time>2023-04-24T19:28:01Z</time>
      </trkpt>
      <trkpt lat="42.94556" lon="1.96373">
        <ele>437</ele>
        <time>2023-04-24T19:28:18Z</time>
      </trkpt>
      <trkpt lat="42.94511" lon="1.9638">
        <ele>434</ele>
        <time>2023-04-24T19:28:41Z</time>
      </trkpt>
      <trkpt lat="42.94501" lon="1.96384">
        <ele>434</ele>
        <time>2023-04-24T19:28:46Z</time>
      </trkpt>
      <trkpt lat="42.94497" lon="1.96382">
        <ele>434</ele>
        <time>2023-04-24T19:28:48Z</time>
      </trkpt>
      <trkpt lat="42.9446" lon="1.9634">
        <ele>439</ele>
        <time>2023-04-24T19:29:12Z</time>
      </trkpt>
      <trkpt lat="42.94448" lon="1.96311">
        <ele>441</ele>
        <time>2023-04-24T19:29:25Z</time>
      </trkpt>
      <trkpt lat="42.94433" lon="1.96321">
        <ele>441</ele>
        <time>2023-04-24T19:29:33Z</time>
      </trkpt>
      <trkpt lat="42.94427" lon="1.9633">
        <ele>440</ele>
        <time>2023-04-24T19:29:37Z</time>
      </trkpt>
      <trkpt lat="42.94422" lon="1.96356">
        <ele>440</ele>
        <time>2023-04-24T19:29:47Z</time>
      </trkpt>
      <trkpt lat="42.94413" lon="1.9638">
        <ele>440</ele>
        <time>2023-04-24T19:29:57Z</time>
      </trkpt>
      <trkpt lat="42.94408" lon="1.96391">
        <ele>441</ele>
        <time>2023-04-24T19:30:02Z</time>
      </trkpt>
      <trkpt lat="42.944" lon="1.96398">
        <ele>441</ele>
        <time>2023-04-24T19:30:07Z</time>
      </trkpt>
      <trkpt lat="42.94371" lon="1.96398">
        <ele>443</ele>
        <time>2023-04-24T19:30:21Z</time>
      </trkpt>
      <trkpt lat="42.9431" lon="1.96409">
        <ele>448</ele>
        <time>2023-04-24T19:30:52Z</time>
      </trkpt>
      <trkpt lat="42.94301" lon="1.96406">
        <ele>449</ele>
        <time>2023-04-24T19:30:57Z</time>
      </trkpt>
      <trkpt lat="42.94298" lon="1.96393">
        <ele>450</ele>
        <time>2023-04-24T19:31:02Z</time>
      </trkpt>
      <trkpt lat="42.94298" lon="1.96366">
        <ele>451</ele>
        <time>2023-04-24T19:31:12Z</time>
      </trkpt>
      <trkpt lat="42.94292" lon="1.96356">
        <ele>452</ele>
        <time>2023-04-24T19:31:16Z</time>
      </trkpt>
      <trkpt lat="42.94283" lon="1.96349">
        <ele>454</ele>
        <time>2023-04-24T19:31:21Z</time>
      </trkpt>
      <trkpt lat="42.94255" lon="1.9634">
        <ele>458</ele>
        <time>2023-04-24T19:31:36Z</time>
      </trkpt>
      <trkpt lat="42.94227" lon="1.96325">
        <ele>463</ele>
        <time>2023-04-24T19:31:51Z</time>
      </trkpt>
      <trkpt lat="42.94211" lon="1.96311">
        <ele>466</ele>
        <time>2023-04-24T19:32:00Z</time>
      </trkpt>
      <trkpt lat="42.94189" lon="1.96285">
        <ele>472</ele>
        <time>2023-04-24T19:32:15Z</time>
      </trkpt>
      <trkpt lat="42.94179" lon="1.96261">
        <ele>475</ele>
        <time>2023-04-24T19:32:25Z</time>
      </trkpt>
      <trkpt lat="42.94169" lon="1.96183">
        <ele>478</ele>
        <time>2023-04-24T19:32:54Z</time>
      </trkpt>
      <trkpt lat="42.94161" lon="1.96174">
        <ele>480</ele>
        <time>2023-04-24T19:32:59Z</time>
      </trkpt>
      <trkpt lat="42.94128" lon="1.96148">
        <ele>484</ele>
        <time>2023-04-24T19:33:18Z</time>
      </trkpt>
      <trkpt lat="42.94118" lon="1.96146">
        <ele>485</ele>
        <time>2023-04-24T19:33:23Z</time>
      </trkpt>
      <trkpt lat="42.9409" lon="1.96155">
        <ele>489</ele>
        <time>2023-04-24T19:33:38Z</time>
      </trkpt>
      <trkpt lat="42.94074" lon="1.96169">
        <ele>491</ele>
        <time>2023-04-24T19:33:47Z</time>
      </trkpt>
      <trkpt lat="42.94064" lon="1.96168">
        <ele>493</ele>
        <time>2023-04-24T19:33:52Z</time>
      </trkpt>
      <trkpt lat="42.94056" lon="1.96159">
        <ele>494</ele>
        <time>2023-04-24T19:33:58Z</time>
      </trkpt>
      <trkpt lat="42.94039" lon="1.96125">
        <ele>498</ele>
        <time>2023-04-24T19:34:13Z</time>
      </trkpt>
      <trkpt lat="42.94017" lon="1.96052">
        <ele>505</ele>
        <time>2023-04-24T19:34:42Z</time>
      </trkpt>
      <trkpt lat="42.94009" lon="1.95974">
        <ele>509</ele>
        <time>2023-04-24T19:35:10Z</time>
      </trkpt>
      <trkpt lat="42.94001" lon="1.95949">
        <ele>511</ele>
        <time>2023-04-24T19:35:20Z</time>
      </trkpt>
      <trkpt lat="42.93991" lon="1.95945">
        <ele>514</ele>
        <time>2023-04-24T19:35:26Z</time>
      </trkpt>
      <trkpt lat="42.93973" lon="1.95944">
        <ele>518</ele>
        <time>2023-04-24T19:35:35Z</time>
      </trkpt>
      <trkpt lat="42.93965" lon="1.95937">
        <ele>521</ele>
        <time>2023-04-24T19:35:39Z</time>
      </trkpt>
      <trkpt lat="42.9395" lon="1.95899">
        <ele>525</ele>
        <time>2023-04-24T19:35:55Z</time>
      </trkpt>
      <trkpt lat="42.93924" lon="1.95857">
        <ele>533</ele>
        <time>2023-04-24T19:36:15Z</time>
      </trkpt>
      <trkpt lat="42.93919" lon="1.95845">
        <ele>535</ele>
        <time>2023-04-24T19:36:20Z</time>
      </trkpt>
      <trkpt lat="42.93921" lon="1.9582">
        <ele>536</ele>
        <time>2023-04-24T19:36:30Z</time>
      </trkpt>
      <trkpt lat="42.93917" lon="1.95795">
        <ele>539</ele>
        <time>2023-04-24T19:36:39Z</time>
      </trkpt>
      <trkpt lat="42.93918" lon="1.95768">
        <ele>541</ele>
        <time>2023-04-24T19:36:49Z</time>
      </trkpt>
      <trkpt lat="42.93917" lon="1.95754">
        <ele>543</ele>
        <time>2023-04-24T19:36:54Z</time>
      </trkpt>
      <trkpt lat="42.9391" lon="1.95731">
        <ele>547</ele>
        <time>2023-04-24T19:37:03Z</time>
      </trkpt>
      <trkpt lat="42.93911" lon="1.95717">
        <ele>547</ele>
        <time>2023-04-24T19:37:08Z</time>
      </trkpt>
      <trkpt lat="42.93908" lon="1.95687">
        <ele>550</ele>
        <time>2023-04-24T19:37:19Z</time>
      </trkpt>
      <trkpt lat="42.93913" lon="1.95657">
        <ele>550</ele>
        <time>2023-04-24T19:37:31Z</time>
      </trkpt>
      <trkpt lat="42.93913" lon="1.95644">
        <ele>550</ele>
        <time>2023-04-24T19:37:35Z</time>
      </trkpt>
      <trkpt lat="42.93903" lon="1.95606">
        <ele>556</ele>
        <time>2023-04-24T19:37:50Z</time>
      </trkpt>
      <trkpt lat="42.93901" lon="1.95581">
        <ele>557</ele>
        <time>2023-04-24T19:37:59Z</time>
      </trkpt>
      <trkpt lat="42.93903" lon="1.95568">
        <ele>557</ele>
        <time>2023-04-24T19:38:04Z</time>
      </trkpt>
      <trkpt lat="42.93898" lon="1.95542">
        <ele>561</ele>
        <time>2023-04-24T19:38:14Z</time>
      </trkpt>
      <trkpt lat="42.93898" lon="1.95517">
        <ele>563</ele>
        <time>2023-04-24T19:38:23Z</time>
      </trkpt>
      <trkpt lat="42.93888" lon="1.9548">
        <ele>569</ele>
        <time>2023-04-24T19:38:38Z</time>
      </trkpt>
      <trkpt lat="42.93887" lon="1.95467">
        <ele>570</ele>
        <time>2023-04-24T19:38:43Z</time>
      </trkpt>
      <trkpt lat="42.93881" lon="1.95456">
        <ele>573</ele>
        <time>2023-04-24T19:38:48Z</time>
      </trkpt>
      <trkpt lat="42.93882" lon="1.95416">
        <ele>574</ele>
        <time>2023-04-24T19:39:02Z</time>
      </trkpt>
      <trkpt lat="42.93869" lon="1.9534">
        <ele>584</ele>
        <time>2023-04-24T19:39:31Z</time>
      </trkpt>
      <trkpt lat="42.93874" lon="1.95274">
        <ele>591</ele>
        <time>2023-04-24T19:39:55Z</time>
      </trkpt>
      <trkpt lat="42.93891" lon="1.95227">
        <ele>591</ele>
        <time>2023-04-24T19:40:14Z</time>
      </trkpt>
      <trkpt lat="42.93901" lon="1.95221">
        <ele>588</ele>
        <time>2023-04-24T19:40:20Z</time>
      </trkpt>
      <trkpt lat="42.9391" lon="1.9522">
        <ele>585</ele>
        <time>2023-04-24T19:40:24Z</time>
      </trkpt>
      <trkpt lat="42.93927" lon="1.95233">
        <ele>580</ele>
        <time>2023-04-24T19:40:34Z</time>
      </trkpt>
      <trkpt lat="42.93936" lon="1.95231">
        <ele>578</ele>
        <time>2023-04-24T19:40:39Z</time>
      </trkpt>
      <trkpt lat="42.93941" lon="1.95219">
        <ele>579</ele>
        <time>2023-04-24T19:40:44Z</time>
      </trkpt>
      <trkpt lat="42.93941" lon="1.95207">
        <ele>580</ele>
        <time>2023-04-24T19:40:48Z</time>
      </trkpt>
      <trkpt lat="42.9396" lon="1.95195">
        <ele>578</ele>
        <time>2023-04-24T19:40:59Z</time>
      </trkpt>
      <trkpt lat="42.93961" lon="1.95167">
        <ele>581</ele>
        <time>2023-04-24T19:41:09Z</time>
      </trkpt>
      <trkpt lat="42.93964" lon="1.95154">
        <ele>581</ele>
        <time>2023-04-24T19:41:14Z</time>
      </trkpt>
      <trkpt lat="42.9396" lon="1.95128">
        <ele>584</ele>
        <time>2023-04-24T19:41:24Z</time>
      </trkpt>
      <trkpt lat="42.93964" lon="1.95104">
        <ele>586</ele>
        <time>2023-04-24T19:41:33Z</time>
      </trkpt>
      <trkpt lat="42.93962" lon="1.9509">
        <ele>588</ele>
        <time>2023-04-24T19:41:38Z</time>
      </trkpt>
      <trkpt lat="42.93964" lon="1.95078">
        <ele>588</ele>
        <time>2023-04-24T19:41:42Z</time>
      </trkpt>
      <trkpt lat="42.93983" lon="1.95047">
        <ele>588</ele>
        <time>2023-04-24T19:41:57Z</time>
      </trkpt>
      <trkpt lat="42.9398" lon="1.95033">
        <ele>590</ele>
        <time>2023-04-24T19:42:02Z</time>
      </trkpt>
      <trkpt lat="42.93982" lon="1.9502">
        <ele>591</ele>
        <time>2023-04-24T19:42:07Z</time>
      </trkpt>
      <trkpt lat="42.93992" lon="1.94998">
        <ele>590</ele>
        <time>2023-04-24T19:42:17Z</time>
      </trkpt>
      <trkpt lat="42.94016" lon="1.94976">
        <ele>586</ele>
        <time>2023-04-24T19:42:31Z</time>
      </trkpt>
      <trkpt lat="42.94036" lon="1.94926">
        <ele>585</ele>
        <time>2023-04-24T19:42:52Z</time>
      </trkpt>
      <trkpt lat="42.94037" lon="1.94912">
        <ele>585</ele>
        <time>2023-04-24T19:42:57Z</time>
      </trkpt>
      <trkpt lat="42.94027" lon="1.94873">
        <ele>591</ele>
        <time>2023-04-24T19:43:12Z</time>
      </trkpt>
      <trkpt lat="42.94023" lon="1.94845">
        <ele>593</ele>
        <time>2023-04-24T19:43:23Z</time>
      </trkpt>
      <trkpt lat="42.94026" lon="1.94766">
        <ele>595</ele>
        <time>2023-04-24T19:43:52Z</time>
      </trkpt>
      <trkpt lat="42.94013" lon="1.94714">
        <ele>600</ele>
        <time>2023-04-24T19:44:12Z</time>
      </trkpt>
      <trkpt lat="42.94023" lon="1.94658">
        <ele>599</ele>
        <time>2023-04-24T19:44:33Z</time>
      </trkpt>
      <trkpt lat="42.94021" lon="1.94629">
        <ele>601</ele>
        <time>2023-04-24T19:44:44Z</time>
      </trkpt>
      <trkpt lat="42.9403" lon="1.94593">
        <ele>601</ele>
        <time>2023-04-24T19:44:58Z</time>
      </trkpt>
      <trkpt lat="42.94029" lon="1.94566">
        <ele>603</ele>
        <time>2023-04-24T19:45:08Z</time>
      </trkpt>
      <trkpt lat="42.94031" lon="1.94553">
        <ele>603</ele>
        <time>2023-04-24T19:45:13Z</time>
      </trkpt>
      <trkpt lat="42.94045" lon="1.94519">
        <ele>601</ele>
        <time>2023-04-24T19:45:27Z</time>
      </trkpt>
      <trkpt lat="42.94048" lon="1.94504">
        <ele>601</ele>
        <time>2023-04-24T19:45:32Z</time>
      </trkpt>
      <trkpt lat="42.94059" lon="1.94483">
        <ele>599</ele>
        <time>2023-04-24T19:45:42Z</time>
      </trkpt>
      <trkpt lat="42.94067" lon="1.94473">
        <ele>597</ele>
        <time>2023-04-24T19:45:47Z</time>
      </trkpt>
      <trkpt lat="42.94097" lon="1.94373">
        <ele>598</ele>
        <time>2023-04-24T19:46:27Z</time>
      </trkpt>
      <trkpt lat="42.94099" lon="1.94359">
        <ele>599</ele>
        <time>2023-04-24T19:46:32Z</time>
      </trkpt>
      <trkpt lat="42.94096" lon="1.94347">
        <ele>601</ele>
        <time>2023-04-24T19:46:37Z</time>
      </trkpt>
      <trkpt lat="42.94087" lon="1.94349">
        <ele>604</ele>
        <time>2023-04-24T19:46:41Z</time>
      </trkpt>
      <trkpt lat="42.94079" lon="1.94342">
        <ele>608</ele>
        <time>2023-04-24T19:46:46Z</time>
      </trkpt>
      <trkpt lat="42.94081" lon="1.94328">
        <ele>609</ele>
        <time>2023-04-24T19:46:51Z</time>
      </trkpt>
      <trkpt lat="42.9408" lon="1.94302">
        <ele>611</ele>
        <time>2023-04-24T19:47:01Z</time>
      </trkpt>
      <trkpt lat="42.94086" lon="1.94278">
        <ele>611</ele>
        <time>2023-04-24T19:47:10Z</time>
      </trkpt>
      <trkpt lat="42.94093" lon="1.94268">
        <ele>609</ele>
        <time>2023-04-24T19:47:15Z</time>
      </trkpt>
      <trkpt lat="42.941" lon="1.94244">
        <ele>609</ele>
        <time>2023-04-24T19:47:25Z</time>
      </trkpt>
      <trkpt lat="42.94099" lon="1.94231">
        <ele>610</ele>
        <time>2023-04-24T19:47:30Z</time>
      </trkpt>
      <trkpt lat="42.94105" lon="1.94206">
        <ele>611</ele>
        <time>2023-04-24T19:47:39Z</time>
      </trkpt>
      <trkpt lat="42.94113" lon="1.94196">
        <ele>609</ele>
        <time>2023-04-24T19:47:45Z</time>
      </trkpt>
      <trkpt lat="42.94132" lon="1.9419">
        <ele>602</ele>
        <time>2023-04-24T19:47:54Z</time>
      </trkpt>
      <trkpt lat="42.94133" lon="1.94148">
        <ele>606</ele>
        <time>2023-04-24T19:48:10Z</time>
      </trkpt>
      <trkpt lat="42.94146" lon="1.94099">
        <ele>606</ele>
        <time>2023-04-24T19:48:29Z</time>
      </trkpt>
      <trkpt lat="42.94146" lon="1.94086">
        <ele>607</ele>
        <time>2023-04-24T19:48:34Z</time>
      </trkpt>
      <trkpt lat="42.94151" lon="1.94061">
        <ele>607</ele>
        <time>2023-04-24T19:48:43Z</time>
      </trkpt>
      <trkpt lat="42.94146" lon="1.94049">
        <ele>610</ele>
        <time>2023-04-24T19:48:48Z</time>
      </trkpt>
      <trkpt lat="42.94144" lon="1.93983">
        <ele>616</ele>
        <time>2023-04-24T19:49:12Z</time>
      </trkpt>
      <trkpt lat="42.94148" lon="1.93971">
        <ele>615</ele>
        <time>2023-04-24T19:49:17Z</time>
      </trkpt>
      <trkpt lat="42.94159" lon="1.93905">
        <ele>612</ele>
        <time>2023-04-24T19:49:42Z</time>
      </trkpt>
      <trkpt lat="42.94153" lon="1.9385">
        <ele>618</ele>
        <time>2023-04-24T19:50:02Z</time>
      </trkpt>
      <trkpt lat="42.9416" lon="1.93825">
        <ele>615</ele>
        <time>2023-04-24T19:50:12Z</time>
      </trkpt>
      <trkpt lat="42.9416" lon="1.93799">
        <ele>616</ele>
        <time>2023-04-24T19:50:22Z</time>
      </trkpt>
      <trkpt lat="42.94179" lon="1.93767">
        <ele>608</ele>
        <time>2023-04-24T19:50:37Z</time>
      </trkpt>
      <trkpt lat="42.94179" lon="1.93753">
        <ele>608</ele>
        <time>2023-04-24T19:50:42Z</time>
      </trkpt>
      <trkpt lat="42.94176" lon="1.9374">
        <ele>610</ele>
        <time>2023-04-24T19:50:47Z</time>
      </trkpt>
      <trkpt lat="42.94178" lon="1.93727">
        <ele>611</ele>
        <time>2023-04-24T19:50:52Z</time>
      </trkpt>
      <trkpt lat="42.94189" lon="1.93702">
        <ele>609</ele>
        <time>2023-04-24T19:51:02Z</time>
      </trkpt>
      <trkpt lat="42.94205" lon="1.93612">
        <ele>613</ele>
        <time>2023-04-24T19:51:36Z</time>
      </trkpt>
      <trkpt lat="42.94205" lon="1.93599">
        <ele>614</ele>
        <time>2023-04-24T19:51:41Z</time>
      </trkpt>
      <trkpt lat="42.94213" lon="1.93575">
        <ele>612</ele>
        <time>2023-04-24T19:51:51Z</time>
      </trkpt>
      <trkpt lat="42.94213" lon="1.93547">
        <ele>615</ele>
        <time>2023-04-24T19:52:01Z</time>
      </trkpt>
      <trkpt lat="42.94236" lon="1.93476">
        <ele>607</ele>
        <time>2023-04-24T19:52:30Z</time>
      </trkpt>
      <trkpt lat="42.94237" lon="1.93463">
        <ele>607</ele>
        <time>2023-04-24T19:52:34Z</time>
      </trkpt>
      <trkpt lat="42.94229" lon="1.93424">
        <ele>613</ele>
        <time>2023-04-24T19:52:49Z</time>
      </trkpt>
      <trkpt lat="42.94233" lon="1.9341">
        <ele>612</ele>
        <time>2023-04-24T19:52:55Z</time>
      </trkpt>
      <trkpt lat="42.94239" lon="1.934">
        <ele>609</ele>
        <time>2023-04-24T19:52:59Z</time>
      </trkpt>
      <trkpt lat="42.94241" lon="1.93373">
        <ele>610</ele>
        <time>2023-04-24T19:53:09Z</time>
      </trkpt>
      <trkpt lat="42.94245" lon="1.9336">
        <ele>609</ele>
        <time>2023-04-24T19:53:14Z</time>
      </trkpt>
      <trkpt lat="42.9426" lon="1.93327">
        <ele>604</ele>
        <time>2023-04-24T19:53:29Z</time>
      </trkpt>
      <trkpt lat="42.94259" lon="1.93314">
        <ele>606</ele>
        <time>2023-04-24T19:53:33Z</time>
      </trkpt>
      <trkpt lat="42.94267" lon="1.93275">
        <ele>607</ele>
        <time>2023-04-24T19:53:48Z</time>
      </trkpt>
      <trkpt lat="42.94266" lon="1.93235">
        <ele>611</ele>
        <time>2023-04-24T19:54:03Z</time>
      </trkpt>
      <trkpt lat="42.94273" lon="1.93166">
        <ele>613</ele>
        <time>2023-04-24T19:54:29Z</time>
      </trkpt>
      <trkpt lat="42.94301" lon="1.9309">
        <ele>606</ele>
        <time>2023-04-24T19:55:00Z</time>
      </trkpt>
      <trkpt lat="42.94314" lon="1.93038">
        <ele>604</ele>
        <time>2023-04-24T19:55:20Z</time>
      </trkpt>
      <trkpt lat="42.9432" lon="1.93027">
        <ele>602</ele>
        <time>2023-04-24T19:55:25Z</time>
      </trkpt>
      <trkpt lat="42.94338" lon="1.93006">
        <ele>592</ele>
        <time>2023-04-24T19:55:37Z</time>
      </trkpt>
      <trkpt lat="42.94359" lon="1.92956">
        <ele>584</ele>
        <time>2023-04-24T19:55:58Z</time>
      </trkpt>
      <trkpt lat="42.94363" lon="1.9293">
        <ele>583</ele>
        <time>2023-04-24T19:56:08Z</time>
      </trkpt>
      <trkpt lat="42.94378" lon="1.92877">
        <ele>580</ele>
        <time>2023-04-24T19:56:28Z</time>
      </trkpt>
      <trkpt lat="42.94376" lon="1.92863">
        <ele>582</ele>
        <time>2023-04-24T19:56:34Z</time>
      </trkpt>
      <trkpt lat="42.94379" lon="1.92824">
        <ele>585</ele>
        <time>2023-04-24T19:56:48Z</time>
      </trkpt>
      <trkpt lat="42.94384" lon="1.92799">
        <ele>585</ele>
        <time>2023-04-24T19:56:57Z</time>
      </trkpt>
      <trkpt lat="42.94393" lon="1.92773">
        <ele>582</ele>
        <time>2023-04-24T19:57:08Z</time>
      </trkpt>
      <trkpt lat="42.94417" lon="1.92726">
        <ele>574</ele>
        <time>2023-04-24T19:57:29Z</time>
      </trkpt>
      <trkpt lat="42.94431" lon="1.92704">
        <ele>571</ele>
        <time>2023-04-24T19:57:40Z</time>
      </trkpt>
      <trkpt lat="42.94448" lon="1.92684">
        <ele>567</ele>
        <time>2023-04-24T19:57:51Z</time>
      </trkpt>
      <trkpt lat="42.94453" lon="1.92671">
        <ele>567</ele>
        <time>2023-04-24T19:57:56Z</time>
      </trkpt>
      <trkpt lat="42.94474" lon="1.92641">
        <ele>560</ele>
        <time>2023-04-24T19:58:11Z</time>
      </trkpt>
      <trkpt lat="42.94501" lon="1.9262">
        <ele>551</ele>
        <time>2023-04-24T19:58:27Z</time>
      </trkpt>
      <trkpt lat="42.94511" lon="1.92619">
        <ele>548</ele>
        <time>2023-04-24T19:58:32Z</time>
      </trkpt>
      <trkpt lat="42.94499" lon="1.92585">
        <ele>552</ele>
        <time>2023-04-24T19:58:46Z</time>
      </trkpt>
      <trkpt lat="42.94482" lon="1.92551">
        <ele>558</ele>
        <time>2023-04-24T19:59:01Z</time>
      </trkpt>
      <trkpt lat="42.94475" lon="1.92527">
        <ele>561</ele>
        <time>2023-04-24T19:59:10Z</time>
      </trkpt>
      <trkpt lat="42.94476" lon="1.92501">
        <ele>560</ele>
        <time>2023-04-24T19:59:20Z</time>
      </trkpt>
      <trkpt lat="42.94473" lon="1.92488">
        <ele>562</ele>
        <time>2023-04-24T19:59:25Z</time>
      </trkpt>
      <trkpt lat="42.94475" lon="1.92475">
        <ele>562</ele>
        <time>2023-04-24T19:59:30Z</time>
      </trkpt>
      <trkpt lat="42.94472" lon="1.92463">
        <ele>564</ele>
        <time>2023-04-24T19:59:34Z</time>
      </trkpt>
      <trkpt lat="42.9447" lon="1.92424">
        <ele>568</ele>
        <time>2023-04-24T19:59:49Z</time>
      </trkpt>
      <trkpt lat="42.94464" lon="1.92397">
        <ele>573</ele>
        <time>2023-04-24T19:59:59Z</time>
      </trkpt>
      <trkpt lat="42.94471" lon="1.92372">
        <ele>572</ele>
        <time>2023-04-24T20:00:09Z</time>
      </trkpt>
      <trkpt lat="42.9447" lon="1.92345">
        <ele>575</ele>
        <time>2023-04-24T20:00:19Z</time>
      </trkpt>
      <trkpt lat="42.94467" lon="1.92333">
        <ele>578</ele>
        <time>2023-04-24T20:00:23Z</time>
      </trkpt>
      <trkpt lat="42.9447" lon="1.92296">
        <ele>579</ele>
        <time>2023-04-24T20:00:37Z</time>
      </trkpt>
      <trkpt lat="42.94464" lon="1.92285">
        <ele>583</ele>
        <time>2023-04-24T20:00:42Z</time>
      </trkpt>
      <trkpt lat="42.94447" lon="1.92236">
        <ele>598</ele>
        <time>2023-04-24T20:01:02Z</time>
      </trkpt>
      <trkpt lat="42.94446" lon="1.92223">
        <ele>600</ele>
        <time>2023-04-24T20:01:07Z</time>
      </trkpt>
      <trkpt lat="42.9444" lon="1.92213">
        <ele>604</ele>
        <time>2023-04-24T20:01:11Z</time>
      </trkpt>
      <trkpt lat="42.94436" lon="1.92187">
        <ele>610</ele>
        <time>2023-04-24T20:01:21Z</time>
      </trkpt>
      <trkpt lat="42.94426" lon="1.92188">
        <ele>616</ele>
        <time>2023-04-24T20:01:26Z</time>
      </trkpt>
      <trkpt lat="42.94417" lon="1.92184">
        <ele>621</ele>
        <time>2023-04-24T20:01:31Z</time>
      </trkpt>
      <trkpt lat="42.94411" lon="1.92194">
        <ele>624</ele>
        <time>2023-04-24T20:01:36Z</time>
      </trkpt>
      <trkpt lat="42.94403" lon="1.92186">
        <ele>631</ele>
        <time>2023-04-24T20:01:41Z</time>
      </trkpt>
      <trkpt lat="42.94394" lon="1.92183">
        <ele>637</ele>
        <time>2023-04-24T20:01:45Z</time>
      </trkpt>
      <trkpt lat="42.94376" lon="1.92182">
        <ele>650</ele>
        <time>2023-04-24T20:01:54Z</time>
      </trkpt>
      <trkpt lat="42.94367" lon="1.92188">
        <ele>655</ele>
        <time>2023-04-24T20:01:59Z</time>
      </trkpt>
      <trkpt lat="42.94361" lon="1.92198">
        <ele>658</ele>
        <time>2023-04-24T20:02:04Z</time>
      </trkpt>
      <trkpt lat="42.94353" lon="1.92202">
        <ele>663</ele>
        <time>2023-04-24T20:02:08Z</time>
      </trkpt>
      <trkpt lat="42.94344" lon="1.92202">
        <ele>670</ele>
        <time>2023-04-24T20:02:13Z</time>
      </trkpt>
      <trkpt lat="42.94335" lon="1.92195">
        <ele>677</ele>
        <time>2023-04-24T20:02:18Z</time>
      </trkpt>
      <trkpt lat="42.94325" lon="1.92173">
        <ele>684</ele>
        <time>2023-04-24T20:02:28Z</time>
      </trkpt>
      <trkpt lat="42.943" lon="1.9219">
        <ele>694</ele>
        <time>2023-04-24T20:02:41Z</time>
      </trkpt>
      <trkpt lat="42.94294" lon="1.92199">
        <ele>696</ele>
        <time>2023-04-24T20:02:46Z</time>
      </trkpt>
      <trkpt lat="42.94286" lon="1.92205">
        <ele>700</ele>
        <time>2023-04-24T20:02:51Z</time>
      </trkpt>
      <trkpt lat="42.94277" lon="1.92207">
        <ele>704</ele>
        <time>2023-04-24T20:02:55Z</time>
      </trkpt>
      <trkpt lat="42.94262" lon="1.92224">
        <ele>711</ele>
        <time>2023-04-24T20:03:05Z</time>
      </trkpt>
      <trkpt lat="42.94253" lon="1.92226">
        <ele>715</ele>
        <time>2023-04-24T20:03:09Z</time>
      </trkpt>
      <trkpt lat="42.94221" lon="1.92197">
        <ele>710</ele>
        <time>2023-04-24T20:03:29Z</time>
      </trkpt>
      <trkpt lat="42.94217" lon="1.92172">
        <ele>709</ele>
        <time>2023-04-24T20:03:38Z</time>
      </trkpt>
      <trkpt lat="42.94219" lon="1.9216">
        <ele>709</ele>
        <time>2023-04-24T20:03:42Z</time>
      </trkpt>
      <trkpt lat="42.94233" lon="1.92141">
        <ele>712</ele>
        <time>2023-04-24T20:03:52Z</time>
      </trkpt>
      <trkpt lat="42.94239" lon="1.92115">
        <ele>713</ele>
        <time>2023-04-24T20:04:02Z</time>
      </trkpt>
      <trkpt lat="42.94248" lon="1.92108">
        <ele>716</ele>
        <time>2023-04-24T20:04:08Z</time>
      </trkpt>
      <trkpt lat="42.94247" lon="1.92096">
        <ele>715</ele>
        <time>2023-04-24T20:04:12Z</time>
      </trkpt>
      <trkpt lat="42.94237" lon="1.92073">
        <ele>711</ele>
        <time>2023-04-24T20:04:22Z</time>
      </trkpt>
      <trkpt lat="42.94225" lon="1.92054">
        <ele>705</ele>
        <time>2023-04-24T20:04:31Z</time>
      </trkpt>
      <trkpt lat="42.94216" lon="1.9205">
        <ele>701</ele>
        <time>2023-04-24T20:04:36Z</time>
      </trkpt>
      <trkpt lat="42.94208" lon="1.92042">
        <ele>697</ele>
        <time>2023-04-24T20:04:41Z</time>
      </trkpt>
      <trkpt lat="42.94205" lon="1.9203">
        <ele>695</ele>
        <time>2023-04-24T20:04:45Z</time>
      </trkpt>
      <trkpt lat="42.94208" lon="1.92005">
        <ele>694</ele>
        <time>2023-04-24T20:04:55Z</time>
      </trkpt>
      <trkpt lat="42.94206" lon="1.91993">
        <ele>692</ele>
        <time>2023-04-24T20:04:59Z</time>
      </trkpt>
      <trkpt lat="42.94199" lon="1.91982">
        <ele>687</ele>
        <time>2023-04-24T20:05:04Z</time>
      </trkpt>
      <trkpt lat="42.94198" lon="1.91969">
        <ele>685</ele>
        <time>2023-04-24T20:05:09Z</time>
      </trkpt>
      <trkpt lat="42.94193" lon="1.91959">
        <ele>681</ele>
        <time>2023-04-24T20:05:14Z</time>
      </trkpt>
      <trkpt lat="42.94176" lon="1.91949">
        <ele>673</ele>
        <time>2023-04-24T20:05:23Z</time>
      </trkpt>
      <trkpt lat="42.94173" lon="1.91909">
        <ele>665</ele>
        <time>2023-04-24T20:05:38Z</time>
      </trkpt>
      <trkpt lat="42.94178" lon="1.91897">
        <ele>665</ele>
        <time>2023-04-24T20:05:43Z</time>
      </trkpt>
      <trkpt lat="42.94214" lon="1.91849">
        <ele>670</ele>
        <time>2023-04-24T20:06:08Z</time>
      </trkpt>
      <trkpt lat="42.94221" lon="1.91821">
        <ele>667</ele>
        <time>2023-04-24T20:06:19Z</time>
      </trkpt>
      <trkpt lat="42.94226" lon="1.9181">
        <ele>666</ele>
        <time>2023-04-24T20:06:23Z</time>
      </trkpt>
      <trkpt lat="42.94226" lon="1.91785">
        <ele>661</ele>
        <time>2023-04-24T20:06:33Z</time>
      </trkpt>
      <trkpt lat="42.94217" lon="1.91779">
        <ele>657</ele>
        <time>2023-04-24T20:06:38Z</time>
      </trkpt>
      <trkpt lat="42.942" lon="1.91787">
        <ele>652</ele>
        <time>2023-04-24T20:06:47Z</time>
      </trkpt>
      <trkpt lat="42.94192" lon="1.91781">
        <ele>648</ele>
        <time>2023-04-24T20:06:51Z</time>
      </trkpt>
      <trkpt lat="42.94158" lon="1.91831">
        <ele>646</ele>
        <time>2023-04-24T20:07:16Z</time>
      </trkpt>
      <trkpt lat="42.94141" lon="1.91846">
        <ele>643</ele>
        <time>2023-04-24T20:07:26Z</time>
      </trkpt>
      <trkpt lat="42.94125" lon="1.91865">
        <ele>641</ele>
        <time>2023-04-24T20:07:37Z</time>
      </trkpt>
      <trkpt lat="42.94119" lon="1.91856">
        <ele>638</ele>
        <time>2023-04-24T20:07:41Z</time>
      </trkpt>
      <trkpt lat="42.94122" lon="1.91845">
        <ele>637</ele>
        <time>2023-04-24T20:07:46Z</time>
      </trkpt>
      <trkpt lat="42.94117" lon="1.91832">
        <ele>634</ele>
        <time>2023-04-24T20:07:51Z</time>
      </trkpt>
      <trkpt lat="42.94101" lon="1.91821">
        <ele>628</ele>
        <time>2023-04-24T20:08:00Z</time>
      </trkpt>
      <trkpt lat="42.94085" lon="1.91788">
        <ele>621</ele>
        <time>2023-04-24T20:08:15Z</time>
      </trkpt>
      <trkpt lat="42.9409" lon="1.9176">
        <ele>619</ele>
        <time>2023-04-24T20:08:25Z</time>
      </trkpt>
      <trkpt lat="42.94088" lon="1.91754">
        <ele>618</ele>
        <time>2023-04-24T20:08:28Z</time>
      </trkpt>
      <trkpt lat="42.94012" lon="1.91687">
        <ele>603</ele>
        <time>2023-04-24T20:09:13Z</time>
      </trkpt>
      <trkpt lat="42.94003" lon="1.91688">
        <ele>602</ele>
        <time>2023-04-24T20:09:17Z</time>
      </trkpt>
      <trkpt lat="42.93965" lon="1.91708">
        <ele>596</ele>
        <time>2023-04-24T20:09:38Z</time>
      </trkpt>
      <trkpt lat="42.93972" lon="1.91636">
        <ele>598</ele>
        <time>2023-04-24T20:10:04Z</time>
      </trkpt>
      <trkpt lat="42.93972" lon="1.91588">
        <ele>599</ele>
        <time>2023-04-24T20:10:22Z</time>
      </trkpt>
      <trkpt lat="42.9398" lon="1.91559">
        <ele>599</ele>
        <time>2023-04-24T20:10:33Z</time>
      </trkpt>
      <trkpt lat="42.94004" lon="1.91491">
        <ele>599</ele>
        <time>2023-04-24T20:11:01Z</time>
      </trkpt>
      <trkpt lat="42.94031" lon="1.91442">
        <ele>596</ele>
        <time>2023-04-24T20:11:23Z</time>
      </trkpt>
      <trkpt lat="42.94038" lon="1.91401">
        <ele>593</ele>
        <time>2023-04-24T20:11:39Z</time>
      </trkpt>
      <trkpt lat="42.94045" lon="1.91381">
        <ele>590</ele>
        <time>2023-04-24T20:11:47Z</time>
      </trkpt>
      <trkpt lat="42.94053" lon="1.91365">
        <ele>589</ele>
        <time>2023-04-24T20:11:54Z</time>
      </trkpt>
      <trkpt lat="42.94064" lon="1.9135">
        <ele>588</ele>
        <time>2023-04-24T20:12:02Z</time>
      </trkpt>
      <trkpt lat="42.94067" lon="1.91341">
        <ele>587</ele>
        <time>2023-04-24T20:12:05Z</time>
      </trkpt>
      <trkpt lat="42.94076" lon="1.91268">
        <ele>574</ele>
        <time>2023-04-24T20:12:33Z</time>
      </trkpt>
      <trkpt lat="42.94072" lon="1.91227">
        <ele>569</ele>
        <time>2023-04-24T20:12:48Z</time>
      </trkpt>
      <trkpt lat="42.94076" lon="1.91221">
        <ele>569</ele>
        <time>2023-04-24T20:12:51Z</time>
      </trkpt>
      <trkpt lat="42.94075" lon="1.91162">
        <ele>566</ele>
        <time>2023-04-24T20:13:12Z</time>
      </trkpt>
      <trkpt lat="42.94078" lon="1.9114">
        <ele>565</ele>
        <time>2023-04-24T20:13:20Z</time>
      </trkpt>
      <trkpt lat="42.94083" lon="1.91134">
        <ele>566</ele>
        <time>2023-04-24T20:13:24Z</time>
      </trkpt>
      <trkpt lat="42.94103" lon="1.91083">
        <ele>562</ele>
        <time>2023-04-24T20:13:45Z</time>
      </trkpt>
      <trkpt lat="42.94124" lon="1.91051">
        <ele>558</ele>
        <time>2023-04-24T20:14:01Z</time>
      </trkpt>
      <trkpt lat="42.94137" lon="1.91042">
        <ele>556</ele>
        <time>2023-04-24T20:14:08Z</time>
      </trkpt>
      <trkpt lat="42.94163" lon="1.90965">
        <ele>548</ele>
        <time>2023-04-24T20:14:39Z</time>
      </trkpt>
      <trkpt lat="42.9417" lon="1.90957">
        <ele>547</ele>
        <time>2023-04-24T20:14:44Z</time>
      </trkpt>
      <trkpt lat="42.9421" lon="1.90936">
        <ele>544</ele>
        <time>2023-04-24T20:15:05Z</time>
      </trkpt>
      <trkpt lat="42.94223" lon="1.90912">
        <ele>542</ele>
        <time>2023-04-24T20:15:16Z</time>
      </trkpt>
      <trkpt lat="42.94233" lon="1.90804">
        <ele>537</ele>
        <time>2023-04-24T20:15:56Z</time>
      </trkpt>
      <trkpt lat="42.94271" lon="1.90712">
        <ele>529</ele>
        <time>2023-04-24T20:16:35Z</time>
      </trkpt>
      <trkpt lat="42.94294" lon="1.90683">
        <ele>523</ele>
        <time>2023-04-24T20:16:50Z</time>
      </trkpt>
      <trkpt lat="42.94315" lon="1.90674">
        <ele>522</ele>
        <time>2023-04-24T20:17:01Z</time>
      </trkpt>
      <trkpt lat="42.94334" lon="1.90655">
        <ele>517</ele>
        <time>2023-04-24T20:17:13Z</time>
      </trkpt>
      <trkpt lat="42.94359" lon="1.90616">
        <ele>511</ele>
        <time>2023-04-24T20:17:32Z</time>
      </trkpt>
      <trkpt lat="42.94407" lon="1.90529">
        <ele>495</ele>
        <time>2023-04-24T20:18:12Z</time>
      </trkpt>
      <trkpt lat="42.94458" lon="1.90423">
        <ele>472</ele>
        <time>2023-04-24T20:18:58Z</time>
      </trkpt>
      <trkpt lat="42.94474" lon="1.90409">
        <ele>471</ele>
        <time>2023-04-24T20:19:08Z</time>
      </trkpt>
      <trkpt lat="42.94493" lon="1.90399">
        <ele>471</ele>
        <time>2023-04-24T20:19:18Z</time>
      </trkpt>
      <trkpt lat="42.94527" lon="1.90368">
        <ele>464</ele>
        <time>2023-04-24T20:19:39Z</time>
      </trkpt>
      <trkpt lat="42.94554" lon="1.90337">
        <ele>457</ele>
        <time>2023-04-24T20:19:56Z</time>
      </trkpt>
      <trkpt lat="42.94586" lon="1.90284">
        <ele>451</ele>
        <time>2023-04-24T20:20:21Z</time>
      </trkpt>
      <trkpt lat="42.94594" lon="1.90262">
        <ele>449</ele>
        <time>2023-04-24T20:20:30Z</time>
      </trkpt>
      <trkpt lat="42.94624" lon="1.90264">
        <ele>450</ele>
        <time>2023-04-24T20:20:45Z</time>
      </trkpt>
      <trkpt lat="42.94646" lon="1.90279">
        <ele>451</ele>
        <time>2023-04-24T20:20:58Z</time>
      </trkpt>
      <trkpt lat="42.94663" lon="1.90296">
        <ele>452</ele>
        <time>2023-04-24T20:21:08Z</time>
      </trkpt>
      <trkpt lat="42.94669" lon="1.90299">
        <ele>452</ele>
        <time>2023-04-24T20:21:11Z</time>
      </trkpt>
      <trkpt lat="42.94699" lon="1.90299">
        <ele>454</ele>
        <time>2023-04-24T20:21:26Z</time>
      </trkpt>
      <trkpt lat="42.94709" lon="1.90314">
        <ele>454</ele>
        <time>2023-04-24T20:21:34Z</time>
      </trkpt>
      <trkpt lat="42.94726" lon="1.90421">
        <ele>457</ele>
        <time>2023-04-24T20:22:14Z</time>
      </trkpt>
      <trkpt lat="42.94709" lon="1.90508">
        <ele>462</ele>
        <time>2023-04-24T20:22:47Z</time>
      </trkpt>
      <trkpt lat="42.9471" lon="1.90538">
        <ele>462</ele>
        <time>2023-04-24T20:22:58Z</time>
      </trkpt>
      <trkpt lat="42.94703" lon="1.90584">
        <ele>465</ele>
        <time>2023-04-24T20:23:15Z</time>
      </trkpt>
      <trkpt lat="42.94704" lon="1.90597">
        <ele>467</ele>
        <time>2023-04-24T20:23:20Z</time>
      </trkpt>
      <trkpt lat="42.94709" lon="1.90609">
        <ele>467</ele>
        <time>2023-04-24T20:23:25Z</time>
      </trkpt>
      <trkpt lat="42.94726" lon="1.90623">
        <ele>462</ele>
        <time>2023-04-24T20:23:35Z</time>
      </trkpt>
      <trkpt lat="42.94742" lon="1.90641">
        <ele>456</ele>
        <time>2023-04-24T20:23:45Z</time>
      </trkpt>
      <trkpt lat="42.94807" lon="1.90696">
        <ele>451</ele>
        <time>2023-04-24T20:24:24Z</time>
      </trkpt>
      <trkpt lat="42.94836" lon="1.90709">
        <ele>446</ele>
        <time>2023-04-24T20:24:39Z</time>
      </trkpt>
      <trkpt lat="42.94902" lon="1.90759">
        <ele>443</ele>
        <time>2023-04-24T20:25:17Z</time>
      </trkpt>
      <trkpt lat="42.94954" lon="1.90783">
        <ele>440</ele>
        <time>2023-04-24T20:25:44Z</time>
      </trkpt>
      <trkpt lat="42.94972" lon="1.90789">
        <ele>439</ele>
        <time>2023-04-24T20:25:53Z</time>
      </trkpt>
      <trkpt lat="42.95003" lon="1.90795">
        <ele>436</ele>
        <time>2023-04-24T20:26:09Z</time>
      </trkpt>
      <trkpt lat="42.95037" lon="1.90832">
        <ele>435</ele>
        <time>2023-04-24T20:26:31Z</time>
      </trkpt>
      <trkpt lat="42.95008" lon="1.90923">
        <ele>438</ele>
        <time>2023-04-24T20:27:07Z</time>
      </trkpt>
      <trkpt lat="42.94998" lon="1.90946">
        <ele>441</ele>
        <time>2023-04-24T20:27:17Z</time>
      </trkpt>
      <trkpt lat="42.94958" lon="1.90987">
        <ele>454</ele>
        <time>2023-04-24T20:27:42Z</time>
      </trkpt>
      <trkpt lat="42.94948" lon="1.9101">
        <ele>458</ele>
        <time>2023-04-24T20:27:52Z</time>
      </trkpt>
      <trkpt lat="42.94926" lon="1.91036">
        <ele>463</ele>
        <time>2023-04-24T20:28:06Z</time>
      </trkpt>
      <trkpt lat="42.94917" lon="1.91037">
        <ele>465</ele>
        <time>2023-04-24T20:28:11Z</time>
      </trkpt>
      <trkpt lat="42.94903" lon="1.91004">
        <ele>469</ele>
        <time>2023-04-24T20:28:25Z</time>
      </trkpt>
      <trkpt lat="42.94896" lon="1.90996">
        <ele>470</ele>
        <time>2023-04-24T20:28:29Z</time>
      </trkpt>
      <trkpt lat="42.94877" lon="1.90989">
        <ele>475</ele>
        <time>2023-04-24T20:28:39Z</time>
      </trkpt>
      <trkpt lat="42.94867" lon="1.90988">
        <ele>478</ele>
        <time>2023-04-24T20:28:44Z</time>
      </trkpt>
      <trkpt lat="42.94858" lon="1.90991">
        <ele>481</ele>
        <time>2023-04-24T20:28:49Z</time>
      </trkpt>
      <trkpt lat="42.9484" lon="1.91002">
        <ele>487</ele>
        <time>2023-04-24T20:28:59Z</time>
      </trkpt>
      <trkpt lat="42.94832" lon="1.9101">
        <ele>490</ele>
        <time>2023-04-24T20:29:04Z</time>
      </trkpt>
      <trkpt lat="42.94823" lon="1.9101">
        <ele>494</ele>
        <time>2023-04-24T20:29:08Z</time>
      </trkpt>
      <trkpt lat="42.94804" lon="1.90979">
        <ele>498</ele>
        <time>2023-04-24T20:29:23Z</time>
      </trkpt>
      <trkpt lat="42.94799" lon="1.90954">
        <ele>498</ele>
        <time>2023-04-24T20:29:33Z</time>
      </trkpt>
      <trkpt lat="42.94793" lon="1.90963">
        <ele>501</ele>
        <time>2023-04-24T20:29:37Z</time>
      </trkpt>
      <trkpt lat="42.9479" lon="1.90975">
        <ele>503</ele>
        <time>2023-04-24T20:29:42Z</time>
      </trkpt>
      <trkpt lat="42.94791" lon="1.90988">
        <ele>504</ele>
        <time>2023-04-24T20:29:46Z</time>
      </trkpt>
      <trkpt lat="42.94789" lon="1.91">
        <ele>506</ele>
        <time>2023-04-24T20:29:51Z</time>
      </trkpt>
      <trkpt lat="42.94784" lon="1.91011">
        <ele>508</ele>
        <time>2023-04-24T20:29:56Z</time>
      </trkpt>
      <trkpt lat="42.94777" lon="1.91048">
        <ele>512</ele>
        <time>2023-04-24T20:30:10Z</time>
      </trkpt>
      <trkpt lat="42.94775" lon="1.91074">
        <ele>513</ele>
        <time>2023-04-24T20:30:19Z</time>
      </trkpt>
      <trkpt lat="42.94778" lon="1.91087">
        <ele>512</ele>
        <time>2023-04-24T20:30:24Z</time>
      </trkpt>
      <trkpt lat="42.94755" lon="1.91186">
        <ele>522</ele>
        <time>2023-04-24T20:31:02Z</time>
      </trkpt>
      <trkpt lat="42.94752" lon="1.91212">
        <ele>523</ele>
        <time>2023-04-24T20:31:12Z</time>
      </trkpt>
      <trkpt lat="42.9474" lon="1.91247">
        <ele>527</ele>
        <time>2023-04-24T20:31:26Z</time>
      </trkpt>
      <trkpt lat="42.94739" lon="1.9126">
        <ele>528</ele>
        <time>2023-04-24T20:31:31Z</time>
      </trkpt>
      <trkpt lat="42.94732" lon="1.91269">
        <ele>530</ele>
        <time>2023-04-24T20:31:36Z</time>
      </trkpt>
      <trkpt lat="42.94723" lon="1.91305">
        <ele>533</ele>
        <time>2023-04-24T20:31:50Z</time>
      </trkpt>
      <trkpt lat="42.94714" lon="1.91328">
        <ele>537</ele>
        <time>2023-04-24T20:31:59Z</time>
      </trkpt>
      <trkpt lat="42.9471" lon="1.91353">
        <ele>538</ele>
        <time>2023-04-24T20:32:09Z</time>
      </trkpt>
      <trkpt lat="42.94697" lon="1.91387">
        <ele>543</ele>
        <time>2023-04-24T20:32:23Z</time>
      </trkpt>
      <trkpt lat="42.94702" lon="1.91439">
        <ele>542</ele>
        <time>2023-04-24T20:32:42Z</time>
      </trkpt>
      <trkpt lat="42.94698" lon="1.91524">
        <ele>545</ele>
        <time>2023-04-24T20:33:13Z</time>
      </trkpt>
      <trkpt lat="42.94678" lon="1.91619">
        <ele>548</ele>
        <time>2023-04-24T20:33:49Z</time>
      </trkpt>
      <trkpt lat="42.94679" lon="1.91632">
        <ele>546</ele>
        <time>2023-04-24T20:33:54Z</time>
      </trkpt>
      <trkpt lat="42.94672" lon="1.91658">
        <ele>547</ele>
        <time>2023-04-24T20:34:04Z</time>
      </trkpt>
      <trkpt lat="42.9466" lon="1.91728">
        <ele>547</ele>
        <time>2023-04-24T20:34:31Z</time>
      </trkpt>
      <trkpt lat="42.94657" lon="1.91767">
        <ele>546</ele>
        <time>2023-04-24T20:34:45Z</time>
      </trkpt>
      <trkpt lat="42.94645" lon="1.91812">
        <ele>547</ele>
        <time>2023-04-24T20:35:02Z</time>
      </trkpt>
      <trkpt lat="42.94627" lon="1.91936">
        <ele>545</ele>
        <time>2023-04-24T20:35:49Z</time>
      </trkpt>
      <trkpt lat="42.94643" lon="1.91998">
        <ele>535</ele>
        <time>2023-04-24T20:36:13Z</time>
      </trkpt>
      <trkpt lat="42.94681" lon="1.9201">
        <ele>523</ele>
        <time>2023-04-24T20:36:32Z</time>
      </trkpt>
      <trkpt lat="42.94692" lon="1.9203">
        <ele>519</ele>
        <time>2023-04-24T20:36:41Z</time>
      </trkpt>
      <trkpt lat="42.94696" lon="1.92056">
        <ele>517</ele>
        <time>2023-04-24T20:36:51Z</time>
      </trkpt>
      <trkpt lat="42.94711" lon="1.92073">
        <ele>513</ele>
        <time>2023-04-24T20:37:01Z</time>
      </trkpt>
      <trkpt lat="42.94728" lon="1.92081">
        <ele>510</ele>
        <time>2023-04-24T20:37:10Z</time>
      </trkpt>
      <trkpt lat="42.94748" lon="1.9208">
        <ele>505</ele>
        <time>2023-04-24T20:37:20Z</time>
      </trkpt>
      <trkpt lat="42.94771" lon="1.92094">
        <ele>501</ele>
        <time>2023-04-24T20:37:33Z</time>
      </trkpt>
      <trkpt lat="42.94778" lon="1.92095">
        <ele>499</ele>
        <time>2023-04-24T20:37:36Z</time>
      </trkpt>
      <trkpt lat="42.94808" lon="1.9212">
        <ele>493</ele>
        <time>2023-04-24T20:37:54Z</time>
      </trkpt>
      <trkpt lat="42.94825" lon="1.92128">
        <ele>490</ele>
        <time>2023-04-24T20:38:03Z</time>
      </trkpt>
      <trkpt lat="42.94938" lon="1.92155">
        <ele>480</ele>
        <time>2023-04-24T20:39:00Z</time>
      </trkpt>
      <trkpt lat="42.94951" lon="1.92161">
        <ele>481</ele>
        <time>2023-04-24T20:39:07Z</time>
      </trkpt>
      <trkpt lat="42.94991" lon="1.92189">
        <ele>482</ele>
        <time>2023-04-24T20:39:29Z</time>
      </trkpt>
      <trkpt lat="42.95023" lon="1.92205">
        <ele>479</ele>
        <time>2023-04-24T20:39:47Z</time>
      </trkpt>
      <trkpt lat="42.9505" lon="1.92204">
        <ele>478</ele>
        <time>2023-04-24T20:40:00Z</time>
      </trkpt>
      <trkpt lat="42.95085" lon="1.92195">
        <ele>478</ele>
        <time>2023-04-24T20:40:18Z</time>
      </trkpt>
      <trkpt lat="42.9505" lon="1.92204">
        <ele>478</ele>
        <time>2023-04-24T20:40:36Z</time>
      </trkpt>
      <trkpt lat="42.95023" lon="1.92205">
        <ele>479</ele>
        <time>2023-04-24T20:40:49Z</time>
      </trkpt>
      <trkpt lat="42.94997" lon="1.92192">
        <ele>482</ele>
        <time>2023-04-24T20:41:03Z</time>
      </trkpt>
      <trkpt lat="42.95004" lon="1.92165">
        <ele>486</ele>
        <time>2023-04-24T20:41:14Z</time>
      </trkpt>
      <trkpt lat="42.95005" lon="1.92152">
        <ele>486</ele>
        <time>2023-04-24T20:41:18Z</time>
      </trkpt>
      <trkpt lat="42.95001" lon="1.92099">
        <ele>487</ele>
        <time>2023-04-24T20:41:38Z</time>
      </trkpt>
      <trkpt lat="42.95005" lon="1.92088">
        <ele>487</ele>
        <time>2023-04-24T20:41:42Z</time>
      </trkpt>
      <trkpt lat="42.95007" lon="1.92063">
        <ele>487</ele>
        <time>2023-04-24T20:41:52Z</time>
      </trkpt>
      <trkpt lat="42.95012" lon="1.92052">
        <ele>486</ele>
        <time>2023-04-24T20:41:56Z</time>
      </trkpt>
      <trkpt lat="42.95017" lon="1.92024">
        <ele>486</ele>
        <time>2023-04-24T20:42:07Z</time>
      </trkpt>
      <trkpt lat="42.95021" lon="1.9201">
        <ele>486</ele>
        <time>2023-04-24T20:42:12Z</time>
      </trkpt>
      <trkpt lat="42.95051" lon="1.91976">
        <ele>489</ele>
        <time>2023-04-24T20:42:32Z</time>
      </trkpt>
      <trkpt lat="42.95055" lon="1.91964">
        <ele>489</ele>
        <time>2023-04-24T20:42:37Z</time>
      </trkpt>
      <trkpt lat="42.95069" lon="1.9195">
        <ele>490</ele>
        <time>2023-04-24T20:42:45Z</time>
      </trkpt>
      <trkpt lat="42.95083" lon="1.9193">
        <ele>492</ele>
        <time>2023-04-24T20:42:56Z</time>
      </trkpt>
      <trkpt lat="42.95088" lon="1.91918">
        <ele>492</ele>
        <time>2023-04-24T20:43:01Z</time>
      </trkpt>
      <trkpt lat="42.95097" lon="1.91861">
        <ele>486</ele>
        <time>2023-04-24T20:43:22Z</time>
      </trkpt>
      <trkpt lat="42.95114" lon="1.9181">
        <ele>482</ele>
        <time>2023-04-24T20:43:42Z</time>
      </trkpt>
      <trkpt lat="42.95128" lon="1.91785">
        <ele>481</ele>
        <time>2023-04-24T20:43:54Z</time>
      </trkpt>
      <trkpt lat="42.95139" lon="1.91749">
        <ele>480</ele>
        <time>2023-04-24T20:44:08Z</time>
      </trkpt>
      <trkpt lat="42.95146" lon="1.9171">
        <ele>479</ele>
        <time>2023-04-24T20:44:23Z</time>
      </trkpt>
      <trkpt lat="42.95166" lon="1.91629">
        <ele>479</ele>
        <time>2023-04-24T20:44:54Z</time>
      </trkpt>
      <trkpt lat="42.95166" lon="1.91613">
        <ele>478</ele>
        <time>2023-04-24T20:45:00Z</time>
      </trkpt>
      <trkpt lat="42.95178" lon="1.91542">
        <ele>474</ele>
        <time>2023-04-24T20:45:27Z</time>
      </trkpt>
      <trkpt lat="42.95211" lon="1.91439">
        <ele>471</ele>
        <time>2023-04-24T20:46:08Z</time>
      </trkpt>
      <trkpt lat="42.95238" lon="1.91393">
        <ele>473</ele>
        <time>2023-04-24T20:46:30Z</time>
      </trkpt>
      <trkpt lat="42.9526" lon="1.9133">
        <ele>471</ele>
        <time>2023-04-24T20:46:55Z</time>
      </trkpt>
      <trkpt lat="42.95259" lon="1.91315">
        <ele>469</ele>
        <time>2023-04-24T20:47:01Z</time>
      </trkpt>
      <trkpt lat="42.95276" lon="1.9128">
        <ele>464</ele>
        <time>2023-04-24T20:47:16Z</time>
      </trkpt>
      <trkpt lat="42.95285" lon="1.91268">
        <ele>462</ele>
        <time>2023-04-24T20:47:22Z</time>
      </trkpt>
      <trkpt lat="42.95332" lon="1.91219">
        <ele>456</ele>
        <time>2023-04-24T20:47:52Z</time>
      </trkpt>
      <trkpt lat="42.95354" lon="1.91164">
        <ele>450</ele>
        <time>2023-04-24T20:48:15Z</time>
      </trkpt>
      <trkpt lat="42.95385" lon="1.91144">
        <ele>445</ele>
        <time>2023-04-24T20:48:32Z</time>
      </trkpt>
      <trkpt lat="42.95391" lon="1.91137">
        <ele>444</ele>
        <time>2023-04-24T20:48:36Z</time>
      </trkpt>
      <trkpt lat="42.95398" lon="1.91122">
        <ele>442</ele>
        <time>2023-04-24T20:48:43Z</time>
      </trkpt>
      <trkpt lat="42.95413" lon="1.91048">
        <ele>437</ele>
        <time>2023-04-24T20:49:11Z</time>
      </trkpt>
      <trkpt lat="42.95443" lon="1.90931">
        <ele>432</ele>
        <time>2023-04-24T20:49:56Z</time>
      </trkpt>
      <trkpt lat="42.95453" lon="1.90934">
        <ele>432</ele>
        <time>2023-04-24T20:50:01Z</time>
      </trkpt>
      <trkpt lat="42.95476" lon="1.90949">
        <ele>432</ele>
        <time>2023-04-24T20:50:14Z</time>
      </trkpt>
      <trkpt lat="42.95508" lon="1.90994">
        <ele>431</ele>
        <time>2023-04-24T20:50:37Z</time>
      </trkpt>
      <trkpt lat="42.95512" lon="1.90994">
        <ele>431</ele>
        <time>2023-04-24T20:50:39Z</time>
      </trkpt>
      <trkpt lat="42.95515" lon="1.90991">
        <ele>431</ele>
        <time>2023-04-24T20:50:41Z</time>
      </trkpt>
      <trkpt lat="42.95532" lon="1.90958">
        <ele>432</ele>
        <time>2023-04-24T20:50:56Z</time>
      </trkpt>
      <trkpt lat="42.95536" lon="1.90961">
        <ele>432</ele>
        <time>2023-04-24T20:50:58Z</time>
      </trkpt>
      <trkpt lat="42.95603" lon="1.91075">
        <ele>430</ele>
        <time>2023-04-24T20:51:51Z</time>
      </trkpt>
    </trkseg>
  </trk>
  <trk>
    <name><![CDATA[Trail 2 l'Hers - 15k-16415004]]></name>
    <extensions>
      <line xmlns="http://www.topografix.com/GPX/gpx_style/0/2">
        <color>2b00ff</color>
        <opacity>1</opacity>
        <width>4</width>
          <extensions>
            <sens>1</sens>
          </extensions>
      </line>
    </extensions>
    <trkseg>
      <trkpt lat="42.95601" lon="1.91072">
        <ele>430</ele>
        <time>2023-03-24T06:12:44Z</time>
      </trkpt>
      <trkpt lat="42.9564" lon="1.91114">
        <ele>430</ele>
        <time>2023-03-24T06:13:09Z</time>
      </trkpt>
      <trkpt lat="42.95668" lon="1.91087">
        <ele>430</ele>
        <time>2023-03-24T06:13:26Z</time>
      </trkpt>
      <trkpt lat="42.95648" lon="1.91049">
        <ele>431</ele>
        <time>2023-03-24T06:13:43Z</time>
      </trkpt>
      <trkpt lat="42.9566" lon="1.91026">
        <ele>433</ele>
        <time>2023-03-24T06:13:53Z</time>
      </trkpt>
      <trkpt lat="42.95649" lon="1.91014">
        <ele>433</ele>
        <time>2023-03-24T06:14:01Z</time>
      </trkpt>
      <trkpt lat="42.95657" lon="1.91008">
        <ele>433</ele>
        <time>2023-03-24T06:14:05Z</time>
      </trkpt>
      <trkpt lat="42.95723" lon="1.90998">
        <ele>437</ele>
        <time>2023-03-24T06:14:38Z</time>
      </trkpt>
      <trkpt lat="42.95735" lon="1.90995">
        <ele>438</ele>
        <time>2023-03-24T06:14:44Z</time>
      </trkpt>
      <trkpt lat="42.95748" lon="1.90989">
        <ele>439</ele>
        <time>2023-03-24T06:14:51Z</time>
      </trkpt>
      <trkpt lat="42.95751" lon="1.9099">
        <ele>439</ele>
        <time>2023-03-24T06:14:53Z</time>
      </trkpt>
      <trkpt lat="42.95749" lon="1.90972">
        <ele>440</ele>
        <time>2023-03-24T06:15:00Z</time>
      </trkpt>
      <trkpt lat="42.95733" lon="1.90934">
        <ele>442</ele>
        <time>2023-03-24T06:15:16Z</time>
      </trkpt>
      <trkpt lat="42.95714" lon="1.90899">
        <ele>443</ele>
        <time>2023-03-24T06:15:32Z</time>
      </trkpt>
      <trkpt lat="42.95681" lon="1.90858">
        <ele>443</ele>
        <time>2023-03-24T06:15:54Z</time>
      </trkpt>
      <trkpt lat="42.95665" lon="1.90834">
        <ele>444</ele>
        <time>2023-03-24T06:16:06Z</time>
      </trkpt>
      <trkpt lat="42.95668" lon="1.9083">
        <ele>444</ele>
        <time>2023-03-24T06:16:08Z</time>
      </trkpt>
      <trkpt lat="42.95674" lon="1.90832">
        <ele>444</ele>
        <time>2023-03-24T06:16:11Z</time>
      </trkpt>
      <trkpt lat="42.95684" lon="1.90826">
        <ele>445</ele>
        <time>2023-03-24T06:16:16Z</time>
      </trkpt>
      <trkpt lat="42.95688" lon="1.90818">
        <ele>445</ele>
        <time>2023-03-24T06:16:20Z</time>
      </trkpt>
      <trkpt lat="42.95714" lon="1.90714">
        <ele>446</ele>
        <time>2023-03-24T06:17:00Z</time>
      </trkpt>
      <trkpt lat="42.95719" lon="1.907">
        <ele>446</ele>
        <time>2023-03-24T06:17:06Z</time>
      </trkpt>
      <trkpt lat="42.95731" lon="1.90685">
        <ele>446</ele>
        <time>2023-03-24T06:17:14Z</time>
      </trkpt>
      <trkpt lat="42.95794" lon="1.90643">
        <ele>449</ele>
        <time>2023-03-24T06:17:49Z</time>
      </trkpt>
      <trkpt lat="42.95805" lon="1.90638">
        <ele>450</ele>
        <time>2023-03-24T06:17:55Z</time>
      </trkpt>
      <trkpt lat="42.95815" lon="1.90636">
        <ele>451</ele>
        <time>2023-03-24T06:18:00Z</time>
      </trkpt>
      <trkpt lat="42.95825" lon="1.90638">
        <ele>452</ele>
        <time>2023-03-24T06:18:05Z</time>
      </trkpt>
      <trkpt lat="42.95876" lon="1.90668">
        <ele>455</ele>
        <time>2023-03-24T06:18:33Z</time>
      </trkpt>
      <trkpt lat="42.95907" lon="1.90674">
        <ele>457</ele>
        <time>2023-03-24T06:18:48Z</time>
      </trkpt>
      <trkpt lat="42.95914" lon="1.90673">
        <ele>458</ele>
        <time>2023-03-24T06:18:52Z</time>
      </trkpt>
      <trkpt lat="42.95955" lon="1.90639">
        <ele>463</ele>
        <time>2023-03-24T06:19:16Z</time>
      </trkpt>
      <trkpt lat="42.95989" lon="1.90581">
        <ele>468</ele>
        <time>2023-03-24T06:19:43Z</time>
      </trkpt>
      <trkpt lat="42.95999" lon="1.90545">
        <ele>468</ele>
        <time>2023-03-24T06:19:57Z</time>
      </trkpt>
      <trkpt lat="42.96008" lon="1.90526">
        <ele>470</ele>
        <time>2023-03-24T06:20:06Z</time>
      </trkpt>
      <trkpt lat="42.96111" lon="1.90359">
        <ele>484</ele>
        <time>2023-03-24T06:21:26Z</time>
      </trkpt>
      <trkpt lat="42.9619" lon="1.90278">
        <ele>500</ele>
        <time>2023-03-24T06:22:15Z</time>
      </trkpt>
      <trkpt lat="42.96226" lon="1.90231">
        <ele>505</ele>
        <time>2023-03-24T06:22:40Z</time>
      </trkpt>
      <trkpt lat="42.96232" lon="1.90229">
        <ele>507</ele>
        <time>2023-03-24T06:22:43Z</time>
      </trkpt>
      <trkpt lat="42.96238" lon="1.9023">
        <ele>509</ele>
        <time>2023-03-24T06:22:46Z</time>
      </trkpt>
      <trkpt lat="42.9626" lon="1.90239">
        <ele>513</ele>
        <time>2023-03-24T06:22:58Z</time>
      </trkpt>
      <trkpt lat="42.96265" lon="1.90237">
        <ele>513</ele>
        <time>2023-03-24T06:23:00Z</time>
      </trkpt>
      <trkpt lat="42.96268" lon="1.9024">
        <ele>514</ele>
        <time>2023-03-24T06:23:02Z</time>
      </trkpt>
      <trkpt lat="42.96279" lon="1.9024">
        <ele>514</ele>
        <time>2023-03-24T06:23:08Z</time>
      </trkpt>
      <trkpt lat="42.96279" lon="1.90264">
        <ele>516</ele>
        <time>2023-03-24T06:23:16Z</time>
      </trkpt>
      <trkpt lat="42.96258" lon="1.90317">
        <ele>521</ele>
        <time>2023-03-24T06:23:38Z</time>
      </trkpt>
      <trkpt lat="42.96241" lon="1.90348">
        <ele>521</ele>
        <time>2023-03-24T06:23:53Z</time>
      </trkpt>
      <trkpt lat="42.96239" lon="1.90368">
        <ele>522</ele>
        <time>2023-03-24T06:24:00Z</time>
      </trkpt>
      <trkpt lat="42.96231" lon="1.90392">
        <ele>522</ele>
        <time>2023-03-24T06:24:10Z</time>
      </trkpt>
      <trkpt lat="42.96229" lon="1.90408">
        <ele>523</ele>
        <time>2023-03-24T06:24:16Z</time>
      </trkpt>
      <trkpt lat="42.96217" lon="1.90415">
        <ele>521</ele>
        <time>2023-03-24T06:24:22Z</time>
      </trkpt>
      <trkpt lat="42.96206" lon="1.90431">
        <ele>519</ele>
        <time>2023-03-24T06:24:30Z</time>
      </trkpt>
      <trkpt lat="42.96194" lon="1.90469">
        <ele>519</ele>
        <time>2023-03-24T06:24:45Z</time>
      </trkpt>
      <trkpt lat="42.96192" lon="1.90484">
        <ele>520</ele>
        <time>2023-03-24T06:24:51Z</time>
      </trkpt>
      <trkpt lat="42.96195" lon="1.90515">
        <ele>521</ele>
        <time>2023-03-24T06:25:02Z</time>
      </trkpt>
      <trkpt lat="42.96202" lon="1.90535">
        <ele>521</ele>
        <time>2023-03-24T06:25:10Z</time>
      </trkpt>
      <trkpt lat="42.96204" lon="1.90564">
        <ele>521</ele>
        <time>2023-03-24T06:25:21Z</time>
      </trkpt>
      <trkpt lat="42.96207" lon="1.90579">
        <ele>521</ele>
        <time>2023-03-24T06:25:27Z</time>
      </trkpt>
      <trkpt lat="42.96204" lon="1.90593">
        <ele>520</ele>
        <time>2023-03-24T06:25:32Z</time>
      </trkpt>
      <trkpt lat="42.96204" lon="1.90615">
        <ele>519</ele>
        <time>2023-03-24T06:25:40Z</time>
      </trkpt>
      <trkpt lat="42.96211" lon="1.90679">
        <ele>519</ele>
        <time>2023-03-24T06:26:04Z</time>
      </trkpt>
      <trkpt lat="42.96204" lon="1.90751">
        <ele>519</ele>
        <time>2023-03-24T06:26:30Z</time>
      </trkpt>
      <trkpt lat="42.96193" lon="1.90793">
        <ele>520</ele>
        <time>2023-03-24T06:26:47Z</time>
      </trkpt>
      <trkpt lat="42.9619" lon="1.90823">
        <ele>521</ele>
        <time>2023-03-24T06:26:58Z</time>
      </trkpt>
      <trkpt lat="42.96173" lon="1.90915">
        <ele>523</ele>
        <time>2023-03-24T06:27:33Z</time>
      </trkpt>
      <trkpt lat="42.96174" lon="1.90996">
        <ele>525</ele>
        <time>2023-03-24T06:28:02Z</time>
      </trkpt>
      <trkpt lat="42.96177" lon="1.91009">
        <ele>525</ele>
        <time>2023-03-24T06:28:07Z</time>
      </trkpt>
      <trkpt lat="42.96177" lon="1.91055">
        <ele>525</ele>
        <time>2023-03-24T06:28:24Z</time>
      </trkpt>
      <trkpt lat="42.96176" lon="1.91068">
        <ele>525</ele>
        <time>2023-03-24T06:28:29Z</time>
      </trkpt>
      <trkpt lat="42.9617" lon="1.91079">
        <ele>525</ele>
        <time>2023-03-24T06:28:34Z</time>
      </trkpt>
      <trkpt lat="42.96169" lon="1.91091">
        <ele>525</ele>
        <time>2023-03-24T06:28:38Z</time>
      </trkpt>
      <trkpt lat="42.96173" lon="1.9115">
        <ele>524</ele>
        <time>2023-03-24T06:29:00Z</time>
      </trkpt>
      <trkpt lat="42.96168" lon="1.91175">
        <ele>524</ele>
        <time>2023-03-24T06:29:10Z</time>
      </trkpt>
      <trkpt lat="42.96168" lon="1.912">
        <ele>523</ele>
        <time>2023-03-24T06:29:19Z</time>
      </trkpt>
      <trkpt lat="42.96174" lon="1.91242">
        <ele>522</ele>
        <time>2023-03-24T06:29:34Z</time>
      </trkpt>
      <trkpt lat="42.96169" lon="1.91273">
        <ele>523</ele>
        <time>2023-03-24T06:29:46Z</time>
      </trkpt>
      <trkpt lat="42.96158" lon="1.91297">
        <ele>521</ele>
        <time>2023-03-24T06:29:56Z</time>
      </trkpt>
      <trkpt lat="42.96149" lon="1.91333">
        <ele>519</ele>
        <time>2023-03-24T06:30:10Z</time>
      </trkpt>
      <trkpt lat="42.9614" lon="1.91355">
        <ele>517</ele>
        <time>2023-03-24T06:30:20Z</time>
      </trkpt>
      <trkpt lat="42.9613" lon="1.91397">
        <ele>515</ele>
        <time>2023-03-24T06:30:36Z</time>
      </trkpt>
      <trkpt lat="42.96128" lon="1.9143">
        <ele>515</ele>
        <time>2023-03-24T06:30:48Z</time>
      </trkpt>
      <trkpt lat="42.96121" lon="1.91467">
        <ele>513</ele>
        <time>2023-03-24T06:31:02Z</time>
      </trkpt>
      <trkpt lat="42.96111" lon="1.91495">
        <ele>511</ele>
        <time>2023-03-24T06:31:13Z</time>
      </trkpt>
      <trkpt lat="42.96109" lon="1.91533">
        <ele>512</ele>
        <time>2023-03-24T06:31:27Z</time>
      </trkpt>
      <trkpt lat="42.96104" lon="1.91549">
        <ele>512</ele>
        <time>2023-03-24T06:31:34Z</time>
      </trkpt>
      <trkpt lat="42.96105" lon="1.91564">
        <ele>513</ele>
        <time>2023-03-24T06:31:39Z</time>
      </trkpt>
      <trkpt lat="42.961" lon="1.91594">
        <ele>514</ele>
        <time>2023-03-24T06:31:50Z</time>
      </trkpt>
      <trkpt lat="42.96094" lon="1.91614">
        <ele>514</ele>
        <time>2023-03-24T06:31:58Z</time>
      </trkpt>
      <trkpt lat="42.96091" lon="1.91643">
        <ele>516</ele>
        <time>2023-03-24T06:32:09Z</time>
      </trkpt>
      <trkpt lat="42.9608" lon="1.91689">
        <ele>517</ele>
        <time>2023-03-24T06:32:27Z</time>
      </trkpt>
      <trkpt lat="42.96081" lon="1.91708">
        <ele>519</ele>
        <time>2023-03-24T06:32:34Z</time>
      </trkpt>
      <trkpt lat="42.96065" lon="1.91786">
        <ele>517</ele>
        <time>2023-03-24T06:33:03Z</time>
      </trkpt>
      <trkpt lat="42.96057" lon="1.91835">
        <ele>516</ele>
        <time>2023-03-24T06:33:22Z</time>
      </trkpt>
      <trkpt lat="42.96054" lon="1.91899">
        <ele>517</ele>
        <time>2023-03-24T06:33:45Z</time>
      </trkpt>
      <trkpt lat="42.96054" lon="1.91934">
        <ele>517</ele>
        <time>2023-03-24T06:33:58Z</time>
      </trkpt>
      <trkpt lat="42.96056" lon="1.91952">
        <ele>518</ele>
        <time>2023-03-24T06:34:05Z</time>
      </trkpt>
      <trkpt lat="42.96051" lon="1.91997">
        <ele>514</ele>
        <time>2023-03-24T06:34:21Z</time>
      </trkpt>
      <trkpt lat="42.96055" lon="1.92017">
        <ele>514</ele>
        <time>2023-03-24T06:34:29Z</time>
      </trkpt>
      <trkpt lat="42.96056" lon="1.92033">
        <ele>512</ele>
        <time>2023-03-24T06:34:35Z</time>
      </trkpt>
      <trkpt lat="42.96061" lon="1.92043">
        <ele>513</ele>
        <time>2023-03-24T06:34:39Z</time>
      </trkpt>
      <trkpt lat="42.96068" lon="1.92052">
        <ele>514</ele>
        <time>2023-03-24T06:34:44Z</time>
      </trkpt>
      <trkpt lat="42.96077" lon="1.9207">
        <ele>515</ele>
        <time>2023-03-24T06:34:52Z</time>
      </trkpt>
      <trkpt lat="42.96078" lon="1.92082">
        <ele>514</ele>
        <time>2023-03-24T06:34:57Z</time>
      </trkpt>
      <trkpt lat="42.96092" lon="1.92117">
        <ele>511</ele>
        <time>2023-03-24T06:35:11Z</time>
      </trkpt>
      <trkpt lat="42.96093" lon="1.92144">
        <ele>507</ele>
        <time>2023-03-24T06:35:21Z</time>
      </trkpt>
      <trkpt lat="42.96125" lon="1.92141">
        <ele>511</ele>
        <time>2023-03-24T06:35:37Z</time>
      </trkpt>
      <trkpt lat="42.96132" lon="1.92151">
        <ele>511</ele>
        <time>2023-03-24T06:35:42Z</time>
      </trkpt>
      <trkpt lat="42.96143" lon="1.9215">
        <ele>512</ele>
        <time>2023-03-24T06:35:48Z</time>
      </trkpt>
      <trkpt lat="42.96179" lon="1.92161">
        <ele>516</ele>
        <time>2023-03-24T06:36:06Z</time>
      </trkpt>
      <trkpt lat="42.9622" lon="1.92213">
        <ele>522</ele>
        <time>2023-03-24T06:36:34Z</time>
      </trkpt>
      <trkpt lat="42.96228" lon="1.92219">
        <ele>523</ele>
        <time>2023-03-24T06:36:39Z</time>
      </trkpt>
      <trkpt lat="42.96272" lon="1.92246">
        <ele>529</ele>
        <time>2023-03-24T06:37:03Z</time>
      </trkpt>
      <trkpt lat="42.9628" lon="1.92248">
        <ele>530</ele>
        <time>2023-03-24T06:37:07Z</time>
      </trkpt>
      <trkpt lat="42.96304" lon="1.92246">
        <ele>532</ele>
        <time>2023-03-24T06:37:19Z</time>
      </trkpt>
      <trkpt lat="42.96311" lon="1.92248">
        <ele>533</ele>
        <time>2023-03-24T06:37:23Z</time>
      </trkpt>
      <trkpt lat="42.96337" lon="1.92267">
        <ele>533</ele>
        <time>2023-03-24T06:37:37Z</time>
      </trkpt>
      <trkpt lat="42.96356" lon="1.92286">
        <ele>529</ele>
        <time>2023-03-24T06:37:49Z</time>
      </trkpt>
      <trkpt lat="42.96359" lon="1.92329">
        <ele>526</ele>
        <time>2023-03-24T06:38:05Z</time>
      </trkpt>
      <trkpt lat="42.96383" lon="1.92479">
        <ele>520</ele>
        <time>2023-03-24T06:39:01Z</time>
      </trkpt>
      <trkpt lat="42.96383" lon="1.9252">
        <ele>519</ele>
        <time>2023-03-24T06:39:16Z</time>
      </trkpt>
      <trkpt lat="42.96379" lon="1.92541">
        <ele>519</ele>
        <time>2023-03-24T06:39:24Z</time>
      </trkpt>
      <trkpt lat="42.96355" lon="1.9261">
        <ele>520</ele>
        <time>2023-03-24T06:39:52Z</time>
      </trkpt>
      <trkpt lat="42.96339" lon="1.92643">
        <ele>521</ele>
        <time>2023-03-24T06:40:07Z</time>
      </trkpt>
      <trkpt lat="42.9633" lon="1.92672">
        <ele>523</ele>
        <time>2023-03-24T06:40:18Z</time>
      </trkpt>
      <trkpt lat="42.96308" lon="1.92727">
        <ele>522</ele>
        <time>2023-03-24T06:40:41Z</time>
      </trkpt>
      <trkpt lat="42.96297" lon="1.92764">
        <ele>522</ele>
        <time>2023-03-24T06:40:56Z</time>
      </trkpt>
      <trkpt lat="42.96278" lon="1.92813">
        <ele>522</ele>
        <time>2023-03-24T06:41:16Z</time>
      </trkpt>
      <trkpt lat="42.96246" lon="1.92871">
        <ele>523</ele>
        <time>2023-03-24T06:41:43Z</time>
      </trkpt>
      <trkpt lat="42.96206" lon="1.92959">
        <ele>521</ele>
        <time>2023-03-24T06:42:21Z</time>
      </trkpt>
      <trkpt lat="42.96181" lon="1.92997">
        <ele>524</ele>
        <time>2023-03-24T06:42:39Z</time>
      </trkpt>
      <trkpt lat="42.96154" lon="1.93033">
        <ele>523</ele>
        <time>2023-03-24T06:42:58Z</time>
      </trkpt>
      <trkpt lat="42.96144" lon="1.93052">
        <ele>522</ele>
        <time>2023-03-24T06:43:07Z</time>
      </trkpt>
      <trkpt lat="42.9614" lon="1.93065">
        <ele>522</ele>
        <time>2023-03-24T06:43:12Z</time>
      </trkpt>
      <trkpt lat="42.96141" lon="1.93088">
        <ele>523</ele>
        <time>2023-03-24T06:43:20Z</time>
      </trkpt>
      <trkpt lat="42.96138" lon="1.93123">
        <ele>522</ele>
        <time>2023-03-24T06:43:33Z</time>
      </trkpt>
      <trkpt lat="42.96131" lon="1.93145">
        <ele>522</ele>
        <time>2023-03-24T06:43:42Z</time>
      </trkpt>
      <trkpt lat="42.96115" lon="1.93177">
        <ele>521</ele>
        <time>2023-03-24T06:43:56Z</time>
      </trkpt>
      <trkpt lat="42.96109" lon="1.93183">
        <ele>521</ele>
        <time>2023-03-24T06:44:00Z</time>
      </trkpt>
      <trkpt lat="42.96094" lon="1.93184">
        <ele>522</ele>
        <time>2023-03-24T06:44:07Z</time>
      </trkpt>
      <trkpt lat="42.96078" lon="1.93181">
        <ele>521</ele>
        <time>2023-03-24T06:44:15Z</time>
      </trkpt>
      <trkpt lat="42.9606" lon="1.93231">
        <ele>515</ele>
        <time>2023-03-24T06:44:36Z</time>
      </trkpt>
      <trkpt lat="42.96059" lon="1.93244">
        <ele>514</ele>
        <time>2023-03-24T06:44:41Z</time>
      </trkpt>
      <trkpt lat="42.96062" lon="1.93253">
        <ele>515</ele>
        <time>2023-03-24T06:44:44Z</time>
      </trkpt>
      <trkpt lat="42.9607" lon="1.93264">
        <ele>515</ele>
        <time>2023-03-24T06:44:50Z</time>
      </trkpt>
      <trkpt lat="42.9608" lon="1.93272">
        <ele>516</ele>
        <time>2023-03-24T06:44:56Z</time>
      </trkpt>
      <trkpt lat="42.96071" lon="1.93275">
        <ele>514</ele>
        <time>2023-03-24T06:45:00Z</time>
      </trkpt>
      <trkpt lat="42.96061" lon="1.9329">
        <ele>511</ele>
        <time>2023-03-24T06:45:08Z</time>
      </trkpt>
      <trkpt lat="42.96052" lon="1.93315">
        <ele>508</ele>
        <time>2023-03-24T06:45:18Z</time>
      </trkpt>
      <trkpt lat="42.96039" lon="1.93366">
        <ele>504</ele>
        <time>2023-03-24T06:45:38Z</time>
      </trkpt>
      <trkpt lat="42.96032" lon="1.93382">
        <ele>503</ele>
        <time>2023-03-24T06:45:45Z</time>
      </trkpt>
      <trkpt lat="42.9601" lon="1.93412">
        <ele>502</ele>
        <time>2023-03-24T06:46:00Z</time>
      </trkpt>
      <trkpt lat="42.95948" lon="1.93468">
        <ele>489</ele>
        <time>2023-03-24T06:46:37Z</time>
      </trkpt>
      <trkpt lat="42.95942" lon="1.93476">
        <ele>487</ele>
        <time>2023-03-24T06:46:42Z</time>
      </trkpt>
      <trkpt lat="42.95938" lon="1.93488">
        <ele>486</ele>
        <time>2023-03-24T06:46:46Z</time>
      </trkpt>
      <trkpt lat="42.95938" lon="1.93487">
        <ele>486</ele>
        <time>2023-03-24T06:46:47Z</time>
      </trkpt>
      <trkpt lat="42.9592" lon="1.93665">
        <ele>485</ele>
        <time>2023-03-24T06:47:53Z</time>
      </trkpt>
      <trkpt lat="42.95924" lon="1.93811">
        <ele>476</ele>
        <time>2023-03-24T06:48:46Z</time>
      </trkpt>
      <trkpt lat="42.9592" lon="1.93895">
        <ele>473</ele>
        <time>2023-03-24T06:49:17Z</time>
      </trkpt>
      <trkpt lat="42.95934" lon="1.93924">
        <ele>473</ele>
        <time>2023-03-24T06:49:30Z</time>
      </trkpt>
      <trkpt lat="42.9594" lon="1.93932">
        <ele>473</ele>
        <time>2023-03-24T06:49:34Z</time>
      </trkpt>
      <trkpt lat="42.95947" lon="1.93937">
        <ele>473</ele>
        <time>2023-03-24T06:49:38Z</time>
      </trkpt>
      <trkpt lat="42.95962" lon="1.93944">
        <ele>474</ele>
        <time>2023-03-24T06:49:46Z</time>
      </trkpt>
      <trkpt lat="42.95988" lon="1.93973">
        <ele>474</ele>
        <time>2023-03-24T06:50:03Z</time>
      </trkpt>
      <trkpt lat="42.95996" lon="1.9398">
        <ele>474</ele>
        <time>2023-03-24T06:50:07Z</time>
      </trkpt>
      <trkpt lat="42.96005" lon="1.93985">
        <ele>474</ele>
        <time>2023-03-24T06:50:12Z</time>
      </trkpt>
      <trkpt lat="42.96025" lon="1.93991">
        <ele>476</ele>
        <time>2023-03-24T06:50:22Z</time>
      </trkpt>
      <trkpt lat="42.96032" lon="1.93998">
        <ele>476</ele>
        <time>2023-03-24T06:50:27Z</time>
      </trkpt>
      <trkpt lat="42.96041" lon="1.94014">
        <ele>475</ele>
        <time>2023-03-24T06:50:34Z</time>
      </trkpt>
      <trkpt lat="42.96045" lon="1.94015">
        <ele>476</ele>
        <time>2023-03-24T06:50:36Z</time>
      </trkpt>
      <trkpt lat="42.96064" lon="1.94">
        <ele>478</ele>
        <time>2023-03-24T06:50:47Z</time>
      </trkpt>
      <trkpt lat="42.96075" lon="1.93997">
        <ele>480</ele>
        <time>2023-03-24T06:50:53Z</time>
      </trkpt>
      <trkpt lat="42.96113" lon="1.94004">
        <ele>482</ele>
        <time>2023-03-24T06:51:12Z</time>
      </trkpt>
      <trkpt lat="42.96136" lon="1.94012">
        <ele>483</ele>
        <time>2023-03-24T06:51:24Z</time>
      </trkpt>
      <trkpt lat="42.96165" lon="1.94031">
        <ele>486</ele>
        <time>2023-03-24T06:51:40Z</time>
      </trkpt>
      <trkpt lat="42.96171" lon="1.94044">
        <ele>486</ele>
        <time>2023-03-24T06:51:46Z</time>
      </trkpt>
      <trkpt lat="42.96167" lon="1.94049">
        <ele>486</ele>
        <time>2023-03-24T06:51:48Z</time>
      </trkpt>
      <trkpt lat="42.9612" lon="1.94251">
        <ele>485</ele>
        <time>2023-03-24T06:53:06Z</time>
      </trkpt>
      <trkpt lat="42.9611" lon="1.94315">
        <ele>484</ele>
        <time>2023-03-24T06:53:30Z</time>
      </trkpt>
      <trkpt lat="42.96115" lon="1.94348">
        <ele>483</ele>
        <time>2023-03-24T06:53:42Z</time>
      </trkpt>
      <trkpt lat="42.9613" lon="1.94403">
        <ele>479</ele>
        <time>2023-03-24T06:54:04Z</time>
      </trkpt>
      <trkpt lat="42.96131" lon="1.94415">
        <ele>479</ele>
        <time>2023-03-24T06:54:08Z</time>
      </trkpt>
      <trkpt lat="42.96126" lon="1.94453">
        <ele>478</ele>
        <time>2023-03-24T06:54:22Z</time>
      </trkpt>
      <trkpt lat="42.96088" lon="1.94627">
        <ele>483</ele>
        <time>2023-03-24T06:55:29Z</time>
      </trkpt>
      <trkpt lat="42.96017" lon="1.94799">
        <ele>491</ele>
        <time>2023-03-24T06:56:41Z</time>
      </trkpt>
      <trkpt lat="42.95992" lon="1.94865">
        <ele>496</ele>
        <time>2023-03-24T06:57:08Z</time>
      </trkpt>
      <trkpt lat="42.95973" lon="1.94936">
        <ele>497</ele>
        <time>2023-03-24T06:57:36Z</time>
      </trkpt>
      <trkpt lat="42.95968" lon="1.94986">
        <ele>497</ele>
        <time>2023-03-24T06:57:54Z</time>
      </trkpt>
      <trkpt lat="42.95947" lon="1.95053">
        <ele>495</ele>
        <time>2023-03-24T06:58:21Z</time>
      </trkpt>
      <trkpt lat="42.95902" lon="1.95143">
        <ele>494</ele>
        <time>2023-03-24T06:59:01Z</time>
      </trkpt>
      <trkpt lat="42.95893" lon="1.95186">
        <ele>492</ele>
        <time>2023-03-24T06:59:17Z</time>
      </trkpt>
      <trkpt lat="42.95884" lon="1.95213">
        <ele>490</ele>
        <time>2023-03-24T06:59:28Z</time>
      </trkpt>
      <trkpt lat="42.95864" lon="1.95237">
        <ele>486</ele>
        <time>2023-03-24T06:59:42Z</time>
      </trkpt>
      <trkpt lat="42.95839" lon="1.95294">
        <ele>484</ele>
        <time>2023-03-24T07:00:06Z</time>
      </trkpt>
      <trkpt lat="42.95833" lon="1.95321">
        <ele>485</ele>
        <time>2023-03-24T07:00:16Z</time>
      </trkpt>
      <trkpt lat="42.95829" lon="1.9543">
        <ele>485</ele>
        <time>2023-03-24T07:00:56Z</time>
      </trkpt>
      <trkpt lat="42.95821" lon="1.95523">
        <ele>482</ele>
        <time>2023-03-24T07:01:31Z</time>
      </trkpt>
      <trkpt lat="42.9582" lon="1.95596">
        <ele>481</ele>
        <time>2023-03-24T07:01:57Z</time>
      </trkpt>
      <trkpt lat="42.95803" lon="1.95725">
        <ele>476</ele>
        <time>2023-03-24T07:02:45Z</time>
      </trkpt>
      <trkpt lat="42.95784" lon="1.95824">
        <ele>474</ele>
        <time>2023-03-24T07:03:23Z</time>
      </trkpt>
      <trkpt lat="42.95762" lon="1.9597">
        <ele>476</ele>
        <time>2023-03-24T07:04:17Z</time>
      </trkpt>
      <trkpt lat="42.95757" lon="1.96031">
        <ele>476</ele>
        <time>2023-03-24T07:04:40Z</time>
      </trkpt>
      <trkpt lat="42.95758" lon="1.96039">
        <ele>476</ele>
        <time>2023-03-24T07:04:43Z</time>
      </trkpt>
      <trkpt lat="42.95756" lon="1.96043">
        <ele>476</ele>
        <time>2023-03-24T07:04:45Z</time>
      </trkpt>
      <trkpt lat="42.957" lon="1.96309">
        <ele>465</ele>
        <time>2023-03-24T07:06:26Z</time>
      </trkpt>
      <trkpt lat="42.95691" lon="1.96365">
        <ele>464</ele>
        <time>2023-03-24T07:06:47Z</time>
      </trkpt>
      <trkpt lat="42.95682" lon="1.96451">
        <ele>464</ele>
        <time>2023-03-24T07:07:19Z</time>
      </trkpt>
      <trkpt lat="42.9567" lon="1.96495">
        <ele>462</ele>
        <time>2023-03-24T07:07:36Z</time>
      </trkpt>
      <trkpt lat="42.95668" lon="1.96537">
        <ele>462</ele>
        <time>2023-03-24T07:07:51Z</time>
      </trkpt>
      <trkpt lat="42.9565" lon="1.9659">
        <ele>458</ele>
        <time>2023-03-24T07:08:13Z</time>
      </trkpt>
      <trkpt lat="42.95646" lon="1.96598">
        <ele>457</ele>
        <time>2023-03-24T07:08:16Z</time>
      </trkpt>
      <trkpt lat="42.95617" lon="1.96646">
        <ele>451</ele>
        <time>2023-03-24T07:08:39Z</time>
      </trkpt>
      <trkpt lat="42.95571" lon="1.96715">
        <ele>438</ele>
        <time>2023-03-24T07:09:13Z</time>
      </trkpt>
      <trkpt lat="42.95551" lon="1.96732">
        <ele>431</ele>
        <time>2023-03-24T07:09:25Z</time>
      </trkpt>
      <trkpt lat="42.95547" lon="1.96738">
        <ele>429</ele>
        <time>2023-03-24T07:09:28Z</time>
      </trkpt>
      <trkpt lat="42.95543" lon="1.96773">
        <ele>425</ele>
        <time>2023-03-24T07:09:41Z</time>
      </trkpt>
      <trkpt lat="42.95557" lon="1.96837">
        <ele>423</ele>
        <time>2023-03-24T07:10:06Z</time>
      </trkpt>
      <trkpt lat="42.95561" lon="1.96876">
        <ele>419</ele>
        <time>2023-03-24T07:10:20Z</time>
      </trkpt>
      <trkpt lat="42.9557" lon="1.96909">
        <ele>417</ele>
        <time>2023-03-24T07:10:33Z</time>
      </trkpt>
      <trkpt lat="42.95568" lon="1.96916">
        <ele>416</ele>
        <time>2023-03-24T07:10:36Z</time>
      </trkpt>
      <trkpt lat="42.95561" lon="1.96916">
        <ele>415</ele>
        <time>2023-03-24T07:10:39Z</time>
      </trkpt>
      <trkpt lat="42.95557" lon="1.96914">
        <ele>415</ele>
        <time>2023-03-24T07:10:41Z</time>
      </trkpt>
      <trkpt lat="42.95539" lon="1.96866">
        <ele>417</ele>
        <time>2023-03-24T07:11:01Z</time>
      </trkpt>
      <trkpt lat="42.95536" lon="1.96862">
        <ele>416</ele>
        <time>2023-03-24T07:11:03Z</time>
      </trkpt>
      <trkpt lat="42.95529" lon="1.96861">
        <ele>415</ele>
        <time>2023-03-24T07:11:07Z</time>
      </trkpt>
      <trkpt lat="42.95525" lon="1.96865">
        <ele>414</ele>
        <time>2023-03-24T07:11:09Z</time>
      </trkpt>
      <trkpt lat="42.9552" lon="1.96878">
        <ele>413</ele>
        <time>2023-03-24T07:11:14Z</time>
      </trkpt>
      <trkpt lat="42.95514" lon="1.96882">
        <ele>411</ele>
        <time>2023-03-24T07:11:18Z</time>
      </trkpt>
      <trkpt lat="42.95506" lon="1.96877">
        <ele>410</ele>
        <time>2023-03-24T07:11:22Z</time>
      </trkpt>
      <trkpt lat="42.95493" lon="1.96847">
        <ele>410</ele>
        <time>2023-03-24T07:11:35Z</time>
      </trkpt>
      <trkpt lat="42.9549" lon="1.96844">
        <ele>410</ele>
        <time>2023-03-24T07:11:37Z</time>
      </trkpt>
      <trkpt lat="42.95454" lon="1.96843">
        <ele>407</ele>
        <time>2023-03-24T07:11:55Z</time>
      </trkpt>
      <trkpt lat="42.95454" lon="1.96831">
        <ele>407</ele>
        <time>2023-03-24T07:11:59Z</time>
      </trkpt>
      <trkpt lat="42.95451" lon="1.96823">
        <ele>407</ele>
        <time>2023-03-24T07:12:03Z</time>
      </trkpt>
      <trkpt lat="42.95399" lon="1.96797">
        <ele>403</ele>
        <time>2023-03-24T07:12:30Z</time>
      </trkpt>
      <trkpt lat="42.95395" lon="1.96802">
        <ele>403</ele>
        <time>2023-03-24T07:12:33Z</time>
      </trkpt>
      <trkpt lat="42.95394" lon="1.96807">
        <ele>403</ele>
        <time>2023-03-24T07:12:35Z</time>
      </trkpt>
      <trkpt lat="42.95416" lon="1.96874">
        <ele>402</ele>
        <time>2023-03-24T07:13:02Z</time>
      </trkpt>
      <trkpt lat="42.95419" lon="1.96891">
        <ele>402</ele>
        <time>2023-03-24T07:13:08Z</time>
      </trkpt>
      <trkpt lat="42.95427" lon="1.96982">
        <ele>403</ele>
        <time>2023-03-24T07:13:42Z</time>
      </trkpt>
      <trkpt lat="42.95433" lon="1.97022">
        <ele>403</ele>
        <time>2023-03-24T07:13:57Z</time>
      </trkpt>
      <trkpt lat="42.95433" lon="1.97048">
        <ele>402</ele>
        <time>2023-03-24T07:14:06Z</time>
      </trkpt>
      <trkpt lat="42.95427" lon="1.97047">
        <ele>403</ele>
        <time>2023-03-24T07:14:09Z</time>
      </trkpt>
      <trkpt lat="42.95428" lon="1.97048">
        <ele>403</ele>
        <time>2023-03-24T07:14:10Z</time>
      </trkpt>
      <trkpt lat="42.9542" lon="1.97035">
        <ele>403</ele>
        <time>2023-03-24T07:14:16Z</time>
      </trkpt>
      <trkpt lat="42.95413" lon="1.9703">
        <ele>403</ele>
        <time>2023-03-24T07:14:20Z</time>
      </trkpt>
      <trkpt lat="42.95311" lon="1.96981">
        <ele>404</ele>
        <time>2023-03-24T07:15:14Z</time>
      </trkpt>
      <trkpt lat="42.95322" lon="1.96939">
        <ele>403</ele>
        <time>2023-03-24T07:15:30Z</time>
      </trkpt>
      <trkpt lat="42.95338" lon="1.96906">
        <ele>403</ele>
        <time>2023-03-24T07:15:45Z</time>
      </trkpt>
      <trkpt lat="42.9535" lon="1.96861">
        <ele>404</ele>
        <time>2023-03-24T07:16:03Z</time>
      </trkpt>
      <trkpt lat="42.95259" lon="1.9682">
        <ele>407</ele>
        <time>2023-03-24T07:16:50Z</time>
      </trkpt>
      <trkpt lat="42.95257" lon="1.96825">
        <ele>406</ele>
        <time>2023-03-24T07:16:53Z</time>
      </trkpt>
      <trkpt lat="42.95197" lon="1.96792">
        <ele>411</ele>
        <time>2023-03-24T07:17:25Z</time>
      </trkpt>
      <trkpt lat="42.95188" lon="1.96789">
        <ele>411</ele>
        <time>2023-03-24T07:17:30Z</time>
      </trkpt>
      <trkpt lat="42.95164" lon="1.96788">
        <ele>412</ele>
        <time>2023-03-24T07:17:42Z</time>
      </trkpt>
      <trkpt lat="42.95122" lon="1.96791">
        <ele>412</ele>
        <time>2023-03-24T07:18:03Z</time>
      </trkpt>
      <trkpt lat="42.95119" lon="1.96794">
        <ele>412</ele>
        <time>2023-03-24T07:18:04Z</time>
      </trkpt>
      <trkpt lat="42.95107" lon="1.96795">
        <ele>412</ele>
        <time>2023-03-24T07:18:10Z</time>
      </trkpt>
      <trkpt lat="42.95079" lon="1.96807">
        <ele>411</ele>
        <time>2023-03-24T07:18:25Z</time>
      </trkpt>
      <trkpt lat="42.95077" lon="1.96788">
        <ele>412</ele>
        <time>2023-03-24T07:18:32Z</time>
      </trkpt>
      <trkpt lat="42.95066" lon="1.96739">
        <ele>414</ele>
        <time>2023-03-24T07:18:51Z</time>
      </trkpt>
      <trkpt lat="42.95064" lon="1.96716">
        <ele>414</ele>
        <time>2023-03-24T07:18:59Z</time>
      </trkpt>
      <trkpt lat="42.95067" lon="1.96681">
        <ele>414</ele>
        <time>2023-03-24T07:19:12Z</time>
      </trkpt>
      <trkpt lat="42.95062" lon="1.96641">
        <ele>415</ele>
        <time>2023-03-24T07:19:27Z</time>
      </trkpt>
      <trkpt lat="42.95063" lon="1.9657">
        <ele>415</ele>
        <time>2023-03-24T07:19:53Z</time>
      </trkpt>
      <trkpt lat="42.95053" lon="1.96564">
        <ele>415</ele>
        <time>2023-03-24T07:19:59Z</time>
      </trkpt>
      <trkpt lat="42.95048" lon="1.96555">
        <ele>415</ele>
        <time>2023-03-24T07:20:03Z</time>
      </trkpt>
      <trkpt lat="42.95047" lon="1.96547">
        <ele>415</ele>
        <time>2023-03-24T07:20:06Z</time>
      </trkpt>
      <trkpt lat="42.95061" lon="1.96484">
        <ele>415</ele>
        <time>2023-03-24T07:20:30Z</time>
      </trkpt>
      <trkpt lat="42.95056" lon="1.96474">
        <ele>415</ele>
        <time>2023-03-24T07:20:34Z</time>
      </trkpt>
      <trkpt lat="42.94935" lon="1.96395">
        <ele>426</ele>
        <time>2023-03-24T07:21:41Z</time>
      </trkpt>
      <trkpt lat="42.94912" lon="1.96385">
        <ele>428</ele>
        <time>2023-03-24T07:21:54Z</time>
      </trkpt>
      <trkpt lat="42.94863" lon="1.96371">
        <ele>432</ele>
        <time>2023-03-24T07:22:19Z</time>
      </trkpt>
      <trkpt lat="42.94865" lon="1.96356">
        <ele>433</ele>
        <time>2023-03-24T07:22:24Z</time>
      </trkpt>
      <trkpt lat="42.94865" lon="1.96282">
        <ele>439</ele>
        <time>2023-03-24T07:22:51Z</time>
      </trkpt>
      <trkpt lat="42.94862" lon="1.96244">
        <ele>442</ele>
        <time>2023-03-24T07:23:05Z</time>
      </trkpt>
      <trkpt lat="42.94856" lon="1.96243">
        <ele>443</ele>
        <time>2023-03-24T07:23:08Z</time>
      </trkpt>
      <trkpt lat="42.94836" lon="1.96214">
        <ele>449</ele>
        <time>2023-03-24T07:23:23Z</time>
      </trkpt>
      <trkpt lat="42.94826" lon="1.96208">
        <ele>451</ele>
        <time>2023-03-24T07:23:28Z</time>
      </trkpt>
      <trkpt lat="42.94817" lon="1.96207">
        <ele>452</ele>
        <time>2023-03-24T07:23:33Z</time>
      </trkpt>
      <trkpt lat="42.94763" lon="1.96211">
        <ele>459</ele>
        <time>2023-03-24T07:24:00Z</time>
      </trkpt>
      <trkpt lat="42.9475" lon="1.9621">
        <ele>461</ele>
        <time>2023-03-24T07:24:06Z</time>
      </trkpt>
      <trkpt lat="42.94742" lon="1.96206">
        <ele>463</ele>
        <time>2023-03-24T07:24:11Z</time>
      </trkpt>
      <trkpt lat="42.94732" lon="1.96196">
        <ele>465</ele>
        <time>2023-03-24T07:24:17Z</time>
      </trkpt>
      <trkpt lat="42.94717" lon="1.96168">
        <ele>470</ele>
        <time>2023-03-24T07:24:30Z</time>
      </trkpt>
      <trkpt lat="42.94692" lon="1.96074">
        <ele>482</ele>
        <time>2023-03-24T07:25:06Z</time>
      </trkpt>
      <trkpt lat="42.94684" lon="1.96062">
        <ele>484</ele>
        <time>2023-03-24T07:25:12Z</time>
      </trkpt>
      <trkpt lat="42.94618" lon="1.95999">
        <ele>497</ele>
        <time>2023-03-24T07:25:53Z</time>
      </trkpt>
      <trkpt lat="42.94614" lon="1.95989">
        <ele>499</ele>
        <time>2023-03-24T07:25:57Z</time>
      </trkpt>
      <trkpt lat="42.94603" lon="1.95908">
        <ele>508</ele>
        <time>2023-03-24T07:26:27Z</time>
      </trkpt>
      <trkpt lat="42.94599" lon="1.95894">
        <ele>509</ele>
        <time>2023-03-24T07:26:32Z</time>
      </trkpt>
      <trkpt lat="42.94587" lon="1.95871">
        <ele>513</ele>
        <time>2023-03-24T07:26:43Z</time>
      </trkpt>
      <trkpt lat="42.94586" lon="1.95847">
        <ele>514</ele>
        <time>2023-03-24T07:26:52Z</time>
      </trkpt>
      <trkpt lat="42.94563" lon="1.95752">
        <ele>516</ele>
        <time>2023-03-24T07:27:28Z</time>
      </trkpt>
      <trkpt lat="42.9456" lon="1.9572">
        <ele>517</ele>
        <time>2023-03-24T07:27:40Z</time>
      </trkpt>
      <trkpt lat="42.94562" lon="1.95667">
        <ele>520</ele>
        <time>2023-03-24T07:27:59Z</time>
      </trkpt>
      <trkpt lat="42.94564" lon="1.9565">
        <ele>521</ele>
        <time>2023-03-24T07:28:06Z</time>
      </trkpt>
      <trkpt lat="42.94562" lon="1.9561">
        <ele>521</ele>
        <time>2023-03-24T07:28:20Z</time>
      </trkpt>
      <trkpt lat="42.94563" lon="1.95555">
        <ele>523</ele>
        <time>2023-03-24T07:28:41Z</time>
      </trkpt>
      <trkpt lat="42.94528" lon="1.95521">
        <ele>521</ele>
        <time>2023-03-24T07:29:02Z</time>
      </trkpt>
      <trkpt lat="42.94502" lon="1.95485">
        <ele>522</ele>
        <time>2023-03-24T07:29:21Z</time>
      </trkpt>
      <trkpt lat="42.94476" lon="1.95453">
        <ele>517</ele>
        <time>2023-03-24T07:29:38Z</time>
      </trkpt>
      <trkpt lat="42.94452" lon="1.95404">
        <ele>512</ele>
        <time>2023-03-24T07:30:00Z</time>
      </trkpt>
      <trkpt lat="42.94413" lon="1.95346">
        <ele>501</ele>
        <time>2023-03-24T07:30:29Z</time>
      </trkpt>
      <trkpt lat="42.94393" lon="1.9532">
        <ele>500</ele>
        <time>2023-03-24T07:30:42Z</time>
      </trkpt>
      <trkpt lat="42.94385" lon="1.95313">
        <ele>500</ele>
        <time>2023-03-24T07:30:47Z</time>
      </trkpt>
      <trkpt lat="42.94337" lon="1.95288">
        <ele>498</ele>
        <time>2023-03-24T07:31:13Z</time>
      </trkpt>
      <trkpt lat="42.94332" lon="1.95291">
        <ele>498</ele>
        <time>2023-03-24T07:31:16Z</time>
      </trkpt>
      <trkpt lat="42.9433" lon="1.95286">
        <ele>498</ele>
        <time>2023-03-24T07:31:18Z</time>
      </trkpt>
      <trkpt lat="42.94313" lon="1.95279">
        <ele>501</ele>
        <time>2023-03-24T07:31:27Z</time>
      </trkpt>
      <trkpt lat="42.94299" lon="1.95279">
        <ele>503</ele>
        <time>2023-03-24T07:31:34Z</time>
      </trkpt>
      <trkpt lat="42.94281" lon="1.95263">
        <ele>506</ele>
        <time>2023-03-24T07:31:44Z</time>
      </trkpt>
      <trkpt lat="42.94219" lon="1.95214">
        <ele>521</ele>
        <time>2023-03-24T07:32:20Z</time>
      </trkpt>
      <trkpt lat="42.94201" lon="1.95195">
        <ele>527</ele>
        <time>2023-03-24T07:32:32Z</time>
      </trkpt>
      <trkpt lat="42.94189" lon="1.95187">
        <ele>531</ele>
        <time>2023-03-24T07:32:38Z</time>
      </trkpt>
      <trkpt lat="42.94176" lon="1.95183">
        <ele>535</ele>
        <time>2023-03-24T07:32:45Z</time>
      </trkpt>
      <trkpt lat="42.94158" lon="1.95182">
        <ele>539</ele>
        <time>2023-03-24T07:32:54Z</time>
      </trkpt>
      <trkpt lat="42.94148" lon="1.95177">
        <ele>542</ele>
        <time>2023-03-24T07:32:59Z</time>
      </trkpt>
      <trkpt lat="42.94114" lon="1.95151">
        <ele>552</ele>
        <time>2023-03-24T07:33:19Z</time>
      </trkpt>
      <trkpt lat="42.94105" lon="1.95142">
        <ele>554</ele>
        <time>2023-03-24T07:33:24Z</time>
      </trkpt>
      <trkpt lat="42.94091" lon="1.95102">
        <ele>560</ele>
        <time>2023-03-24T07:33:41Z</time>
      </trkpt>
      <trkpt lat="42.94085" lon="1.95093">
        <ele>562</ele>
        <time>2023-03-24T07:33:45Z</time>
      </trkpt>
      <trkpt lat="42.94075" lon="1.95083">
        <ele>565</ele>
        <time>2023-03-24T07:33:51Z</time>
      </trkpt>
      <trkpt lat="42.94052" lon="1.95016">
        <ele>573</ele>
        <time>2023-03-24T07:34:18Z</time>
      </trkpt>
      <trkpt lat="42.94043" lon="1.95006">
        <ele>576</ele>
        <time>2023-03-24T07:34:24Z</time>
      </trkpt>
      <trkpt lat="42.94032" lon="1.9495">
        <ele>584</ele>
        <time>2023-03-24T07:34:45Z</time>
      </trkpt>
      <trkpt lat="42.94033" lon="1.94895">
        <ele>588</ele>
        <time>2023-03-24T07:35:06Z</time>
      </trkpt>
      <trkpt lat="42.9403" lon="1.94881">
        <ele>589</ele>
        <time>2023-03-24T07:35:11Z</time>
      </trkpt>
      <trkpt lat="42.94028" lon="1.94847">
        <ele>591</ele>
        <time>2023-03-24T07:35:23Z</time>
      </trkpt>
      <trkpt lat="42.94033" lon="1.94757">
        <ele>593</ele>
        <time>2023-03-24T07:35:56Z</time>
      </trkpt>
      <trkpt lat="42.94022" lon="1.94722">
        <ele>597</ele>
        <time>2023-03-24T07:36:10Z</time>
      </trkpt>
      <trkpt lat="42.94028" lon="1.94657">
        <ele>598</ele>
        <time>2023-03-24T07:36:34Z</time>
      </trkpt>
      <trkpt lat="42.94026" lon="1.94638">
        <ele>600</ele>
        <time>2023-03-24T07:36:41Z</time>
      </trkpt>
      <trkpt lat="42.9403" lon="1.94607">
        <ele>600</ele>
        <time>2023-03-24T07:36:53Z</time>
      </trkpt>
      <trkpt lat="42.94037" lon="1.94581">
        <ele>599</ele>
        <time>2023-03-24T07:37:03Z</time>
      </trkpt>
      <trkpt lat="42.94034" lon="1.94562">
        <ele>601</ele>
        <time>2023-03-24T07:37:10Z</time>
      </trkpt>
      <trkpt lat="42.9405" lon="1.9452">
        <ele>599</ele>
        <time>2023-03-24T07:37:28Z</time>
      </trkpt>
      <trkpt lat="42.94053" lon="1.94497">
        <ele>600</ele>
        <time>2023-03-24T07:37:36Z</time>
      </trkpt>
      <trkpt lat="42.94071" lon="1.94465">
        <ele>597</ele>
        <time>2023-03-24T07:37:51Z</time>
      </trkpt>
      <trkpt lat="42.94093" lon="1.94394">
        <ele>597</ele>
        <time>2023-03-24T07:38:19Z</time>
      </trkpt>
      <trkpt lat="42.94096" lon="1.94352">
        <ele>600</ele>
        <time>2023-03-24T07:38:35Z</time>
      </trkpt>
      <trkpt lat="42.9409" lon="1.94342">
        <ele>604</ele>
        <time>2023-03-24T07:38:39Z</time>
      </trkpt>
      <trkpt lat="42.94092" lon="1.94328">
        <ele>604</ele>
        <time>2023-03-24T07:38:45Z</time>
      </trkpt>
      <trkpt lat="42.94089" lon="1.9429">
        <ele>609</ele>
        <time>2023-03-24T07:38:59Z</time>
      </trkpt>
      <trkpt lat="42.94092" lon="1.94269">
        <ele>609</ele>
        <time>2023-03-24T07:39:06Z</time>
      </trkpt>
      <trkpt lat="42.94092" lon="1.9425">
        <ele>611</ele>
        <time>2023-03-24T07:39:13Z</time>
      </trkpt>
      <trkpt lat="42.94099" lon="1.94218">
        <ele>612</ele>
        <time>2023-03-24T07:39:26Z</time>
      </trkpt>
      <trkpt lat="42.94099" lon="1.94204">
        <ele>613</ele>
        <time>2023-03-24T07:39:31Z</time>
      </trkpt>
      <trkpt lat="42.94107" lon="1.94191">
        <ele>611</ele>
        <time>2023-03-24T07:39:37Z</time>
      </trkpt>
      <trkpt lat="42.94115" lon="1.94185">
        <ele>609</ele>
        <time>2023-03-24T07:39:42Z</time>
      </trkpt>
      <trkpt lat="42.94124" lon="1.9418">
        <ele>606</ele>
        <time>2023-03-24T07:39:46Z</time>
      </trkpt>
      <trkpt lat="42.94133" lon="1.94183">
        <ele>602</ele>
        <time>2023-03-24T07:39:51Z</time>
      </trkpt>
      <trkpt lat="42.94138" lon="1.94163">
        <ele>602</ele>
        <time>2023-03-24T07:39:59Z</time>
      </trkpt>
      <trkpt lat="42.94139" lon="1.9415">
        <ele>603</ele>
        <time>2023-03-24T07:40:04Z</time>
      </trkpt>
      <trkpt lat="42.9415" lon="1.9411">
        <ele>603</ele>
        <time>2023-03-24T07:40:19Z</time>
      </trkpt>
      <trkpt lat="42.94151" lon="1.94091">
        <ele>604</ele>
        <time>2023-03-24T07:40:26Z</time>
      </trkpt>
      <trkpt lat="42.94155" lon="1.94072">
        <ele>604</ele>
        <time>2023-03-24T07:40:33Z</time>
      </trkpt>
      <trkpt lat="42.94148" lon="1.94027">
        <ele>611</ele>
        <time>2023-03-24T07:40:50Z</time>
      </trkpt>
      <trkpt lat="42.94147" lon="1.94009">
        <ele>613</ele>
        <time>2023-03-24T07:40:57Z</time>
      </trkpt>
      <trkpt lat="42.94148" lon="1.93978">
        <ele>615</ele>
        <time>2023-03-24T07:41:08Z</time>
      </trkpt>
      <trkpt lat="42.94157" lon="1.93899">
        <ele>614</ele>
        <time>2023-03-24T07:41:38Z</time>
      </trkpt>
      <trkpt lat="42.94157" lon="1.93858">
        <ele>615</ele>
        <time>2023-03-24T07:41:53Z</time>
      </trkpt>
      <trkpt lat="42.94159" lon="1.93843">
        <ele>615</ele>
        <time>2023-03-24T07:41:58Z</time>
      </trkpt>
      <trkpt lat="42.9416" lon="1.93805">
        <ele>616</ele>
        <time>2023-03-24T07:42:12Z</time>
      </trkpt>
      <trkpt lat="42.94165" lon="1.93782">
        <ele>614</ele>
        <time>2023-03-24T07:42:21Z</time>
      </trkpt>
      <trkpt lat="42.9418" lon="1.93753">
        <ele>608</ele>
        <time>2023-03-24T07:42:34Z</time>
      </trkpt>
      <trkpt lat="42.94181" lon="1.9374">
        <ele>609</ele>
        <time>2023-03-24T07:42:39Z</time>
      </trkpt>
      <trkpt lat="42.94197" lon="1.93669">
        <ele>610</ele>
        <time>2023-03-24T07:43:06Z</time>
      </trkpt>
      <trkpt lat="42.94196" lon="1.93656">
        <ele>612</ele>
        <time>2023-03-24T07:43:11Z</time>
      </trkpt>
      <trkpt lat="42.94205" lon="1.93621">
        <ele>612</ele>
        <time>2023-03-24T07:43:24Z</time>
      </trkpt>
      <trkpt lat="42.94219" lon="1.93526">
        <ele>613</ele>
        <time>2023-03-24T07:44:00Z</time>
      </trkpt>
      <trkpt lat="42.94232" lon="1.93493">
        <ele>609</ele>
        <time>2023-03-24T07:44:14Z</time>
      </trkpt>
      <trkpt lat="42.9424" lon="1.93458">
        <ele>606</ele>
        <time>2023-03-24T07:44:27Z</time>
      </trkpt>
      <trkpt lat="42.94238" lon="1.93438">
        <ele>608</ele>
        <time>2023-03-24T07:44:34Z</time>
      </trkpt>
      <trkpt lat="42.94242" lon="1.9341">
        <ele>607</ele>
        <time>2023-03-24T07:44:45Z</time>
      </trkpt>
      <trkpt lat="42.94252" lon="1.93372">
        <ele>604</ele>
        <time>2023-03-24T07:45:00Z</time>
      </trkpt>
      <trkpt lat="42.94252" lon="1.93358">
        <ele>605</ele>
        <time>2023-03-24T07:45:05Z</time>
      </trkpt>
      <trkpt lat="42.94256" lon="1.93323">
        <ele>606</ele>
        <time>2023-03-24T07:45:18Z</time>
      </trkpt>
      <trkpt lat="42.94262" lon="1.93302">
        <ele>606</ele>
        <time>2023-03-24T07:45:26Z</time>
      </trkpt>
      <trkpt lat="42.94262" lon="1.93287">
        <ele>608</ele>
        <time>2023-03-24T07:45:31Z</time>
      </trkpt>
      <trkpt lat="42.94273" lon="1.93226">
        <ele>609</ele>
        <time>2023-03-24T07:45:54Z</time>
      </trkpt>
      <trkpt lat="42.94284" lon="1.93147">
        <ele>610</ele>
        <time>2023-03-24T07:46:24Z</time>
      </trkpt>
      <trkpt lat="42.94294" lon="1.93127">
        <ele>607</ele>
        <time>2023-03-24T07:46:33Z</time>
      </trkpt>
      <trkpt lat="42.94301" lon="1.93105">
        <ele>605</ele>
        <time>2023-03-24T07:46:42Z</time>
      </trkpt>
      <trkpt lat="42.94316" lon="1.93036">
        <ele>603</ele>
        <time>2023-03-24T07:47:08Z</time>
      </trkpt>
      <trkpt lat="42.94321" lon="1.93024">
        <ele>601</ele>
        <time>2023-03-24T07:47:13Z</time>
      </trkpt>
      <trkpt lat="42.94336" lon="1.93006">
        <ele>593</ele>
        <time>2023-03-24T07:47:23Z</time>
      </trkpt>
      <trkpt lat="42.94352" lon="1.92974">
        <ele>587</ele>
        <time>2023-03-24T07:47:37Z</time>
      </trkpt>
      <trkpt lat="42.9436" lon="1.92946">
        <ele>584</ele>
        <time>2023-03-24T07:47:48Z</time>
      </trkpt>
      <trkpt lat="42.9436" lon="1.92934">
        <ele>585</ele>
        <time>2023-03-24T07:47:53Z</time>
      </trkpt>
      <trkpt lat="42.94383" lon="1.92827">
        <ele>582</ele>
        <time>2023-03-24T07:48:33Z</time>
      </trkpt>
      <trkpt lat="42.94384" lon="1.92811">
        <ele>583</ele>
        <time>2023-03-24T07:48:39Z</time>
      </trkpt>
      <trkpt lat="42.9439" lon="1.92784">
        <ele>583</ele>
        <time>2023-03-24T07:48:50Z</time>
      </trkpt>
      <trkpt lat="42.94408" lon="1.9274">
        <ele>577</ele>
        <time>2023-03-24T07:49:08Z</time>
      </trkpt>
      <trkpt lat="42.94436" lon="1.92692">
        <ele>571</ele>
        <time>2023-03-24T07:49:31Z</time>
      </trkpt>
      <trkpt lat="42.94441" lon="1.92679">
        <ele>570</ele>
        <time>2023-03-24T07:49:36Z</time>
      </trkpt>
      <trkpt lat="42.94467" lon="1.92645">
        <ele>563</ele>
        <time>2023-03-24T07:49:54Z</time>
      </trkpt>
      <trkpt lat="42.94479" lon="1.92622">
        <ele>559</ele>
        <time>2023-03-24T07:50:04Z</time>
      </trkpt>
      <trkpt lat="42.94499" lon="1.9261">
        <ele>552</ele>
        <time>2023-03-24T07:50:15Z</time>
      </trkpt>
      <trkpt lat="42.94511" lon="1.92611">
        <ele>549</ele>
        <time>2023-03-24T07:50:21Z</time>
      </trkpt>
      <trkpt lat="42.94509" lon="1.92597">
        <ele>550</ele>
        <time>2023-03-24T07:50:27Z</time>
      </trkpt>
      <trkpt lat="42.94498" lon="1.9258">
        <ele>553</ele>
        <time>2023-03-24T07:50:35Z</time>
      </trkpt>
      <trkpt lat="42.94495" lon="1.92565">
        <ele>554</ele>
        <time>2023-03-24T07:50:41Z</time>
      </trkpt>
      <trkpt lat="42.94489" lon="1.92551">
        <ele>556</ele>
        <time>2023-03-24T07:50:46Z</time>
      </trkpt>
      <trkpt lat="42.94477" lon="1.9251">
        <ele>560</ele>
        <time>2023-03-24T07:51:03Z</time>
      </trkpt>
      <trkpt lat="42.94476" lon="1.92471">
        <ele>562</ele>
        <time>2023-03-24T07:51:17Z</time>
      </trkpt>
      <trkpt lat="42.94472" lon="1.92455">
        <ele>565</ele>
        <time>2023-03-24T07:51:23Z</time>
      </trkpt>
      <trkpt lat="42.94472" lon="1.92429">
        <ele>567</ele>
        <time>2023-03-24T07:51:33Z</time>
      </trkpt>
      <trkpt lat="42.94468" lon="1.92402">
        <ele>571</ele>
        <time>2023-03-24T07:51:43Z</time>
      </trkpt>
      <trkpt lat="42.94471" lon="1.92385">
        <ele>571</ele>
        <time>2023-03-24T07:51:49Z</time>
      </trkpt>
      <trkpt lat="42.94473" lon="1.92355">
        <ele>573</ele>
        <time>2023-03-24T07:52:00Z</time>
      </trkpt>
      <trkpt lat="42.94469" lon="1.92314">
        <ele>578</ele>
        <time>2023-03-24T07:52:15Z</time>
      </trkpt>
      <trkpt lat="42.9447" lon="1.9229">
        <ele>580</ele>
        <time>2023-03-24T07:52:24Z</time>
      </trkpt>
      <trkpt lat="42.9448" lon="1.92271">
        <ele>576</ele>
        <time>2023-03-24T07:52:33Z</time>
      </trkpt>
      <trkpt lat="42.94489" lon="1.92238">
        <ele>574</ele>
        <time>2023-03-24T07:52:46Z</time>
      </trkpt>
      <trkpt lat="42.94508" lon="1.9219">
        <ele>570</ele>
        <time>2023-03-24T07:53:06Z</time>
      </trkpt>
      <trkpt lat="42.94537" lon="1.92135">
        <ele>563</ele>
        <time>2023-03-24T07:53:30Z</time>
      </trkpt>
      <trkpt lat="42.94549" lon="1.92108">
        <ele>561</ele>
        <time>2023-03-24T07:53:42Z</time>
      </trkpt>
      <trkpt lat="42.94582" lon="1.92057">
        <ele>552</ele>
        <time>2023-03-24T07:54:07Z</time>
      </trkpt>
      <trkpt lat="42.9461" lon="1.92029">
        <ele>545</ele>
        <time>2023-03-24T07:54:24Z</time>
      </trkpt>
      <trkpt lat="42.9463" lon="1.92003">
        <ele>540</ele>
        <time>2023-03-24T07:54:38Z</time>
      </trkpt>
      <trkpt lat="42.94639" lon="1.91995">
        <ele>537</ele>
        <time>2023-03-24T07:54:43Z</time>
      </trkpt>
      <trkpt lat="42.9465" lon="1.91995">
        <ele>533</ele>
        <time>2023-03-24T07:54:49Z</time>
      </trkpt>
      <trkpt lat="42.94659" lon="1.92002">
        <ele>530</ele>
        <time>2023-03-24T07:54:54Z</time>
      </trkpt>
      <trkpt lat="42.94669" lon="1.92002">
        <ele>526</ele>
        <time>2023-03-24T07:54:59Z</time>
      </trkpt>
      <trkpt lat="42.9469" lon="1.92011">
        <ele>521</ele>
        <time>2023-03-24T07:55:10Z</time>
      </trkpt>
      <trkpt lat="42.94702" lon="1.92053">
        <ele>516</ele>
        <time>2023-03-24T07:55:27Z</time>
      </trkpt>
      <trkpt lat="42.94711" lon="1.9206">
        <ele>514</ele>
        <time>2023-03-24T07:55:32Z</time>
      </trkpt>
      <trkpt lat="42.94725" lon="1.92066">
        <ele>511</ele>
        <time>2023-03-24T07:55:39Z</time>
      </trkpt>
      <trkpt lat="42.94734" lon="1.92072">
        <ele>509</ele>
        <time>2023-03-24T07:55:44Z</time>
      </trkpt>
      <trkpt lat="42.94744" lon="1.92071">
        <ele>507</ele>
        <time>2023-03-24T07:55:49Z</time>
      </trkpt>
      <trkpt lat="42.94754" lon="1.92065">
        <ele>505</ele>
        <time>2023-03-24T07:55:55Z</time>
      </trkpt>
      <trkpt lat="42.94762" lon="1.92078">
        <ele>503</ele>
        <time>2023-03-24T07:56:01Z</time>
      </trkpt>
      <trkpt lat="42.94774" lon="1.92084">
        <ele>500</ele>
        <time>2023-03-24T07:56:07Z</time>
      </trkpt>
      <trkpt lat="42.94778" lon="1.92096">
        <ele>499</ele>
        <time>2023-03-24T07:56:12Z</time>
      </trkpt>
      <trkpt lat="42.94808" lon="1.9212">
        <ele>493</ele>
        <time>2023-03-24T07:56:30Z</time>
      </trkpt>
      <trkpt lat="42.94825" lon="1.92128">
        <ele>490</ele>
        <time>2023-03-24T07:56:39Z</time>
      </trkpt>
      <trkpt lat="42.94841" lon="1.92133">
        <ele>487</ele>
        <time>2023-03-24T07:56:47Z</time>
      </trkpt>
      <trkpt lat="42.94894" lon="1.92143">
        <ele>480</ele>
        <time>2023-03-24T07:57:14Z</time>
      </trkpt>
      <trkpt lat="42.94924" lon="1.92153">
        <ele>479</ele>
        <time>2023-03-24T07:57:29Z</time>
      </trkpt>
      <trkpt lat="42.94938" lon="1.92155">
        <ele>480</ele>
        <time>2023-03-24T07:57:36Z</time>
      </trkpt>
      <trkpt lat="42.94951" lon="1.92161">
        <ele>481</ele>
        <time>2023-03-24T07:57:43Z</time>
      </trkpt>
      <trkpt lat="42.94991" lon="1.92189">
        <ele>482</ele>
        <time>2023-03-24T07:58:05Z</time>
      </trkpt>
      <trkpt lat="42.95023" lon="1.92205">
        <ele>479</ele>
        <time>2023-03-24T07:58:22Z</time>
      </trkpt>
      <trkpt lat="42.9505" lon="1.92204">
        <ele>478</ele>
        <time>2023-03-24T07:58:36Z</time>
      </trkpt>
      <trkpt lat="42.95072" lon="1.92197">
        <ele>478</ele>
        <time>2023-03-24T07:58:47Z</time>
      </trkpt>
      <trkpt lat="42.9505" lon="1.92204">
        <ele>478</ele>
        <time>2023-03-24T07:58:59Z</time>
      </trkpt>
      <trkpt lat="42.95023" lon="1.92205">
        <ele>479</ele>
        <time>2023-03-24T07:59:12Z</time>
      </trkpt>
      <trkpt lat="42.94996" lon="1.92191">
        <ele>482</ele>
        <time>2023-03-24T07:59:27Z</time>
      </trkpt>
      <trkpt lat="42.95003" lon="1.92164">
        <ele>486</ele>
        <time>2023-03-24T07:59:37Z</time>
      </trkpt>
      <trkpt lat="42.95003" lon="1.92148">
        <ele>486</ele>
        <time>2023-03-24T07:59:43Z</time>
      </trkpt>
      <trkpt lat="42.94998" lon="1.92101">
        <ele>487</ele>
        <time>2023-03-24T08:00:00Z</time>
      </trkpt>
      <trkpt lat="42.95004" lon="1.92064">
        <ele>486</ele>
        <time>2023-03-24T08:00:14Z</time>
      </trkpt>
      <trkpt lat="42.95008" lon="1.92052">
        <ele>486</ele>
        <time>2023-03-24T08:00:19Z</time>
      </trkpt>
      <trkpt lat="42.95015" lon="1.92013">
        <ele>485</ele>
        <time>2023-03-24T08:00:34Z</time>
      </trkpt>
      <trkpt lat="42.95041" lon="1.91982">
        <ele>487</ele>
        <time>2023-03-24T08:00:51Z</time>
      </trkpt>
      <trkpt lat="42.95048" lon="1.91967">
        <ele>488</ele>
        <time>2023-03-24T08:00:58Z</time>
      </trkpt>
      <trkpt lat="42.9506" lon="1.91958">
        <ele>489</ele>
        <time>2023-03-24T08:01:04Z</time>
      </trkpt>
      <trkpt lat="42.95073" lon="1.9194">
        <ele>491</ele>
        <time>2023-03-24T08:01:14Z</time>
      </trkpt>
      <trkpt lat="42.95083" lon="1.91915">
        <ele>492</ele>
        <time>2023-03-24T08:01:24Z</time>
      </trkpt>
      <trkpt lat="42.9509" lon="1.91863">
        <ele>486</ele>
        <time>2023-03-24T08:01:43Z</time>
      </trkpt>
      <trkpt lat="42.95096" lon="1.91837">
        <ele>483</ele>
        <time>2023-03-24T08:01:53Z</time>
      </trkpt>
      <trkpt lat="42.9511" lon="1.91799">
        <ele>481</ele>
        <time>2023-03-24T08:02:09Z</time>
      </trkpt>
      <trkpt lat="42.95119" lon="1.91786">
        <ele>481</ele>
        <time>2023-03-24T08:02:16Z</time>
      </trkpt>
      <trkpt lat="42.95141" lon="1.917">
        <ele>478</ele>
        <time>2023-03-24T08:02:49Z</time>
      </trkpt>
      <trkpt lat="42.95146" lon="1.91689">
        <ele>478</ele>
        <time>2023-03-24T08:02:54Z</time>
      </trkpt>
      <trkpt lat="42.95166" lon="1.91576">
        <ele>477</ele>
        <time>2023-03-24T08:03:36Z</time>
      </trkpt>
      <trkpt lat="42.95181" lon="1.91517">
        <ele>473</ele>
        <time>2023-03-24T08:03:59Z</time>
      </trkpt>
      <trkpt lat="42.9519" lon="1.91494">
        <ele>472</ele>
        <time>2023-03-24T08:04:09Z</time>
      </trkpt>
      <trkpt lat="42.95199" lon="1.91453">
        <ele>471</ele>
        <time>2023-03-24T08:04:24Z</time>
      </trkpt>
      <trkpt lat="42.95226" lon="1.91412">
        <ele>472</ele>
        <time>2023-03-24T08:04:45Z</time>
      </trkpt>
      <trkpt lat="42.9524" lon="1.91387">
        <ele>473</ele>
        <time>2023-03-24T08:04:56Z</time>
      </trkpt>
      <trkpt lat="42.95258" lon="1.91333">
        <ele>472</ele>
        <time>2023-03-24T08:05:18Z</time>
      </trkpt>
      <trkpt lat="42.95259" lon="1.91315">
        <ele>469</ele>
        <time>2023-03-24T08:05:24Z</time>
      </trkpt>
      <trkpt lat="42.95276" lon="1.9128">
        <ele>464</ele>
        <time>2023-03-24T08:05:40Z</time>
      </trkpt>
      <trkpt lat="42.95285" lon="1.91268">
        <ele>462</ele>
        <time>2023-03-24T08:05:46Z</time>
      </trkpt>
      <trkpt lat="42.95309" lon="1.91245">
        <ele>459</ele>
        <time>2023-03-24T08:06:01Z</time>
      </trkpt>
      <trkpt lat="42.95332" lon="1.91219">
        <ele>456</ele>
        <time>2023-03-24T08:06:16Z</time>
      </trkpt>
      <trkpt lat="42.95337" lon="1.91209">
        <ele>455</ele>
        <time>2023-03-24T08:06:20Z</time>
      </trkpt>
      <trkpt lat="42.9535" lon="1.9117">
        <ele>451</ele>
        <time>2023-03-24T08:06:36Z</time>
      </trkpt>
      <trkpt lat="42.95354" lon="1.91164">
        <ele>450</ele>
        <time>2023-03-24T08:06:39Z</time>
      </trkpt>
      <trkpt lat="42.95385" lon="1.91144">
        <ele>445</ele>
        <time>2023-03-24T08:06:56Z</time>
      </trkpt>
      <trkpt lat="42.95391" lon="1.91137">
        <ele>444</ele>
        <time>2023-03-24T08:07:00Z</time>
      </trkpt>
      <trkpt lat="42.95398" lon="1.91122">
        <ele>442</ele>
        <time>2023-03-24T08:07:06Z</time>
      </trkpt>
      <trkpt lat="42.95413" lon="1.91048">
        <ele>437</ele>
        <time>2023-03-24T08:07:35Z</time>
      </trkpt>
      <trkpt lat="42.95443" lon="1.90931">
        <ele>432</ele>
        <time>2023-03-24T08:08:20Z</time>
      </trkpt>
      <trkpt lat="42.95453" lon="1.90934">
        <ele>432</ele>
        <time>2023-03-24T08:08:25Z</time>
      </trkpt>
      <trkpt lat="42.95476" lon="1.90949">
        <ele>432</ele>
        <time>2023-03-24T08:08:38Z</time>
      </trkpt>
      <trkpt lat="42.95497" lon="1.90976">
        <ele>432</ele>
        <time>2023-03-24T08:08:52Z</time>
      </trkpt>
      <trkpt lat="42.95508" lon="1.90994">
        <ele>431</ele>
        <time>2023-03-24T08:09:01Z</time>
      </trkpt>
      <trkpt lat="42.95512" lon="1.90994">
        <ele>431</ele>
        <time>2023-03-24T08:09:03Z</time>
      </trkpt>
      <trkpt lat="42.95515" lon="1.90991">
        <ele>431</ele>
        <time>2023-03-24T08:09:05Z</time>
      </trkpt>
      <trkpt lat="42.95532" lon="1.90958">
        <ele>432</ele>
        <time>2023-03-24T08:09:20Z</time>
      </trkpt>
      <trkpt lat="42.95536" lon="1.90961">
        <ele>432</ele>
        <time>2023-03-24T08:09:22Z</time>
      </trkpt>
      <trkpt lat="42.95597" lon="1.9106">
        <ele>430</ele>
        <time>2023-03-24T08:10:09Z</time>
      </trkpt>
    </trkseg>
  </trk>
  <trk>
    <name><![CDATA[T2lHRandonnée-16469637]]></name>
    <extensions>
      <line xmlns="http://www.topografix.com/GPX/gpx_style/0/2">
        <color>ffd500</color>
        <width>4</width>
          <extensions>
            <sens>1</sens>
          </extensions>
      </line>
    </extensions>
    <trkseg>
      <trkpt lat="42.95623" lon="1.91108">
        <ele>430</ele>
        <time>2023-04-24T17:43:00Z</time>
      </trkpt>
      <trkpt lat="42.95536" lon="1.90961">
        <ele>432</ele>
        <time>2023-04-24T17:44:51Z</time>
      </trkpt>
      <trkpt lat="42.95532" lon="1.90958">
        <ele>432</ele>
        <time>2023-04-24T17:44:54Z</time>
      </trkpt>
      <trkpt lat="42.95515" lon="1.90991">
        <ele>431</ele>
        <time>2023-04-24T17:45:18Z</time>
      </trkpt>
      <trkpt lat="42.95512" lon="1.90994">
        <ele>431</ele>
        <time>2023-04-24T17:45:21Z</time>
      </trkpt>
      <trkpt lat="42.95508" lon="1.90994">
        <ele>431</ele>
        <time>2023-04-24T17:45:24Z</time>
      </trkpt>
      <trkpt lat="42.95497" lon="1.90976">
        <ele>432</ele>
        <time>2023-04-24T17:45:38Z</time>
      </trkpt>
      <trkpt lat="42.95476" lon="1.90949">
        <ele>432</ele>
        <time>2023-04-24T17:46:01Z</time>
      </trkpt>
      <trkpt lat="42.95453" lon="1.90934">
        <ele>432</ele>
        <time>2023-04-24T17:46:22Z</time>
      </trkpt>
      <trkpt lat="42.95443" lon="1.90931">
        <ele>432</ele>
        <time>2023-04-24T17:46:30Z</time>
      </trkpt>
      <trkpt lat="42.95413" lon="1.91048">
        <ele>437</ele>
        <time>2023-04-24T17:47:42Z</time>
      </trkpt>
      <trkpt lat="42.95398" lon="1.91122">
        <ele>442</ele>
        <time>2023-04-24T17:48:27Z</time>
      </trkpt>
      <trkpt lat="42.95391" lon="1.91137">
        <ele>444</ele>
        <time>2023-04-24T17:48:38Z</time>
      </trkpt>
      <trkpt lat="42.95385" lon="1.91144">
        <ele>445</ele>
        <time>2023-04-24T17:48:44Z</time>
      </trkpt>
      <trkpt lat="42.95354" lon="1.91164">
        <ele>450</ele>
        <time>2023-04-24T17:49:12Z</time>
      </trkpt>
      <trkpt lat="42.9535" lon="1.9117">
        <ele>451</ele>
        <time>2023-04-24T17:49:16Z</time>
      </trkpt>
      <trkpt lat="42.95337" lon="1.91209">
        <ele>455</ele>
        <time>2023-04-24T17:49:41Z</time>
      </trkpt>
      <trkpt lat="42.95332" lon="1.91219">
        <ele>456</ele>
        <time>2023-04-24T17:49:49Z</time>
      </trkpt>
      <trkpt lat="42.95309" lon="1.91245">
        <ele>459</ele>
        <time>2023-04-24T17:50:12Z</time>
      </trkpt>
      <trkpt lat="42.95285" lon="1.91268">
        <ele>462</ele>
        <time>2023-04-24T17:50:36Z</time>
      </trkpt>
      <trkpt lat="42.95276" lon="1.9128">
        <ele>464</ele>
        <time>2023-04-24T17:50:46Z</time>
      </trkpt>
      <trkpt lat="42.95259" lon="1.91315">
        <ele>469</ele>
        <time>2023-04-24T17:51:11Z</time>
      </trkpt>
      <trkpt lat="42.95261" lon="1.91328">
        <ele>471</ele>
        <time>2023-04-24T17:51:18Z</time>
      </trkpt>
      <trkpt lat="42.95255" lon="1.91342">
        <ele>472</ele>
        <time>2023-04-24T17:51:28Z</time>
      </trkpt>
      <trkpt lat="42.95253" lon="1.91359">
        <ele>473</ele>
        <time>2023-04-24T17:51:38Z</time>
      </trkpt>
      <trkpt lat="42.95249" lon="1.91373">
        <ele>474</ele>
        <time>2023-04-24T17:51:47Z</time>
      </trkpt>
      <trkpt lat="42.95234" lon="1.91404">
        <ele>473</ele>
        <time>2023-04-24T17:52:09Z</time>
      </trkpt>
      <trkpt lat="42.95214" lon="1.9143">
        <ele>471</ele>
        <time>2023-04-24T17:52:31Z</time>
      </trkpt>
      <trkpt lat="42.95209" lon="1.9144">
        <ele>471</ele>
        <time>2023-04-24T17:52:38Z</time>
      </trkpt>
      <trkpt lat="42.95203" lon="1.91466">
        <ele>471</ele>
        <time>2023-04-24T17:52:54Z</time>
      </trkpt>
      <trkpt lat="42.95181" lon="1.91538">
        <ele>474</ele>
        <time>2023-04-24T17:53:39Z</time>
      </trkpt>
      <trkpt lat="42.95163" lon="1.91647">
        <ele>479</ele>
        <time>2023-04-24T17:54:45Z</time>
      </trkpt>
      <trkpt lat="42.95155" lon="1.91669">
        <ele>478</ele>
        <time>2023-04-24T17:54:59Z</time>
      </trkpt>
      <trkpt lat="42.95141" lon="1.91723">
        <ele>479</ele>
        <time>2023-04-24T17:55:33Z</time>
      </trkpt>
      <trkpt lat="42.9514" lon="1.91737">
        <ele>480</ele>
        <time>2023-04-24T17:55:41Z</time>
      </trkpt>
      <trkpt lat="42.95135" lon="1.91757">
        <ele>480</ele>
        <time>2023-04-24T17:55:54Z</time>
      </trkpt>
      <trkpt lat="42.95133" lon="1.91779">
        <ele>481</ele>
        <time>2023-04-24T17:56:07Z</time>
      </trkpt>
      <trkpt lat="42.95116" lon="1.91805">
        <ele>482</ele>
        <time>2023-04-24T17:56:27Z</time>
      </trkpt>
      <trkpt lat="42.95109" lon="1.91821">
        <ele>482</ele>
        <time>2023-04-24T17:56:38Z</time>
      </trkpt>
      <trkpt lat="42.95107" lon="1.91838">
        <ele>483</ele>
        <time>2023-04-24T17:56:48Z</time>
      </trkpt>
      <trkpt lat="42.95101" lon="1.91851">
        <ele>485</ele>
        <time>2023-04-24T17:56:57Z</time>
      </trkpt>
      <trkpt lat="42.95099" lon="1.91871">
        <ele>486</ele>
        <time>2023-04-24T17:57:09Z</time>
      </trkpt>
      <trkpt lat="42.95095" lon="1.91884">
        <ele>488</ele>
        <time>2023-04-24T17:57:17Z</time>
      </trkpt>
      <trkpt lat="42.95096" lon="1.91898">
        <ele>489</ele>
        <time>2023-04-24T17:57:25Z</time>
      </trkpt>
      <trkpt lat="42.95079" lon="1.91941">
        <ele>492</ele>
        <time>2023-04-24T17:57:54Z</time>
      </trkpt>
      <trkpt lat="42.95045" lon="1.91985">
        <ele>488</ele>
        <time>2023-04-24T17:58:31Z</time>
      </trkpt>
      <trkpt lat="42.95024" lon="1.92002">
        <ele>486</ele>
        <time>2023-04-24T17:58:51Z</time>
      </trkpt>
      <trkpt lat="42.95018" lon="1.92015">
        <ele>486</ele>
        <time>2023-04-24T17:59:00Z</time>
      </trkpt>
      <trkpt lat="42.95006" lon="1.9207">
        <ele>487</ele>
        <time>2023-04-24T17:59:34Z</time>
      </trkpt>
      <trkpt lat="42.95003" lon="1.92092">
        <ele>487</ele>
        <time>2023-04-24T17:59:47Z</time>
      </trkpt>
      <trkpt lat="42.95003" lon="1.92132">
        <ele>486</ele>
        <time>2023-04-24T18:00:10Z</time>
      </trkpt>
      <trkpt lat="42.95005" lon="1.92145">
        <ele>486</ele>
        <time>2023-04-24T18:00:18Z</time>
      </trkpt>
      <trkpt lat="42.95004" lon="1.92157">
        <ele>486</ele>
        <time>2023-04-24T18:00:25Z</time>
      </trkpt>
      <trkpt lat="42.94995" lon="1.92191">
        <ele>482</ele>
        <time>2023-04-24T18:00:46Z</time>
      </trkpt>
      <trkpt lat="42.95023" lon="1.92205">
        <ele>479</ele>
        <time>2023-04-24T18:01:10Z</time>
      </trkpt>
      <trkpt lat="42.9505" lon="1.92204">
        <ele>478</ele>
        <time>2023-04-24T18:01:32Z</time>
      </trkpt>
      <trkpt lat="42.95081" lon="1.92195">
        <ele>478</ele>
        <time>2023-04-24T18:01:57Z</time>
      </trkpt>
      <trkpt lat="42.9505" lon="1.92204">
        <ele>478</ele>
        <time>2023-04-24T18:02:22Z</time>
      </trkpt>
      <trkpt lat="42.95023" lon="1.92205">
        <ele>479</ele>
        <time>2023-04-24T18:02:44Z</time>
      </trkpt>
      <trkpt lat="42.94991" lon="1.92189">
        <ele>482</ele>
        <time>2023-04-24T18:03:11Z</time>
      </trkpt>
      <trkpt lat="42.94951" lon="1.92161">
        <ele>481</ele>
        <time>2023-04-24T18:03:47Z</time>
      </trkpt>
      <trkpt lat="42.94938" lon="1.92155">
        <ele>480</ele>
        <time>2023-04-24T18:03:58Z</time>
      </trkpt>
      <trkpt lat="42.94924" lon="1.92153">
        <ele>479</ele>
        <time>2023-04-24T18:04:10Z</time>
      </trkpt>
      <trkpt lat="42.94894" lon="1.92143">
        <ele>480</ele>
        <time>2023-04-24T18:04:34Z</time>
      </trkpt>
      <trkpt lat="42.94841" lon="1.92133">
        <ele>487</ele>
        <time>2023-04-24T18:05:17Z</time>
      </trkpt>
      <trkpt lat="42.94825" lon="1.92128">
        <ele>490</ele>
        <time>2023-04-24T18:05:30Z</time>
      </trkpt>
      <trkpt lat="42.94808" lon="1.9212">
        <ele>493</ele>
        <time>2023-04-24T18:05:45Z</time>
      </trkpt>
      <trkpt lat="42.94778" lon="1.92096">
        <ele>499</ele>
        <time>2023-04-24T18:06:13Z</time>
      </trkpt>
      <trkpt lat="42.94761" lon="1.92084">
        <ele>503</ele>
        <time>2023-04-24T18:06:28Z</time>
      </trkpt>
      <trkpt lat="42.94735" lon="1.92082">
        <ele>508</ele>
        <time>2023-04-24T18:06:49Z</time>
      </trkpt>
      <trkpt lat="42.94717" lon="1.92073">
        <ele>512</ele>
        <time>2023-04-24T18:07:04Z</time>
      </trkpt>
      <trkpt lat="42.94706" lon="1.92068">
        <ele>515</ele>
        <time>2023-04-24T18:07:13Z</time>
      </trkpt>
      <trkpt lat="42.94693" lon="1.92057">
        <ele>518</ele>
        <time>2023-04-24T18:07:26Z</time>
      </trkpt>
      <trkpt lat="42.94694" lon="1.92039">
        <ele>519</ele>
        <time>2023-04-24T18:07:36Z</time>
      </trkpt>
      <trkpt lat="42.94692" lon="1.92025">
        <ele>520</ele>
        <time>2023-04-24T18:07:45Z</time>
      </trkpt>
      <trkpt lat="42.9468" lon="1.92018">
        <ele>523</ele>
        <time>2023-04-24T18:07:55Z</time>
      </trkpt>
      <trkpt lat="42.94665" lon="1.92007">
        <ele>527</ele>
        <time>2023-04-24T18:08:09Z</time>
      </trkpt>
      <trkpt lat="42.94651" lon="1.92001">
        <ele>532</ele>
        <time>2023-04-24T18:08:20Z</time>
      </trkpt>
      <trkpt lat="42.9464" lon="1.92001">
        <ele>536</ele>
        <time>2023-04-24T18:08:29Z</time>
      </trkpt>
      <trkpt lat="42.94627" lon="1.92024">
        <ele>539</ele>
        <time>2023-04-24T18:08:46Z</time>
      </trkpt>
      <trkpt lat="42.94618" lon="1.92036">
        <ele>542</ele>
        <time>2023-04-24T18:08:56Z</time>
      </trkpt>
      <trkpt lat="42.94592" lon="1.92058">
        <ele>549</ele>
        <time>2023-04-24T18:09:21Z</time>
      </trkpt>
      <trkpt lat="42.94582" lon="1.92079">
        <ele>551</ele>
        <time>2023-04-24T18:09:35Z</time>
      </trkpt>
      <trkpt lat="42.94572" lon="1.92092">
        <ele>554</ele>
        <time>2023-04-24T18:09:47Z</time>
      </trkpt>
      <trkpt lat="42.94546" lon="1.92142">
        <ele>559</ele>
        <time>2023-04-24T18:10:22Z</time>
      </trkpt>
      <trkpt lat="42.94537" lon="1.92154">
        <ele>561</ele>
        <time>2023-04-24T18:10:33Z</time>
      </trkpt>
      <trkpt lat="42.94533" lon="1.92167">
        <ele>562</ele>
        <time>2023-04-24T18:10:41Z</time>
      </trkpt>
      <trkpt lat="42.94526" lon="1.92179">
        <ele>564</ele>
        <time>2023-04-24T18:10:50Z</time>
      </trkpt>
      <trkpt lat="42.94517" lon="1.92201">
        <ele>565</ele>
        <time>2023-04-24T18:11:05Z</time>
      </trkpt>
      <trkpt lat="42.9451" lon="1.92212">
        <ele>567</ele>
        <time>2023-04-24T18:11:13Z</time>
      </trkpt>
      <trkpt lat="42.94498" lon="1.92221">
        <ele>572</ele>
        <time>2023-04-24T18:11:24Z</time>
      </trkpt>
      <trkpt lat="42.9449" lon="1.9227">
        <ele>571</ele>
        <time>2023-04-24T18:11:53Z</time>
      </trkpt>
      <trkpt lat="42.94486" lon="1.92284">
        <ele>572</ele>
        <time>2023-04-24T18:12:02Z</time>
      </trkpt>
      <trkpt lat="42.94479" lon="1.92293">
        <ele>575</ele>
        <time>2023-04-24T18:12:10Z</time>
      </trkpt>
      <trkpt lat="42.94471" lon="1.92295">
        <ele>579</ele>
        <time>2023-04-24T18:12:17Z</time>
      </trkpt>
      <trkpt lat="42.94473" lon="1.92327">
        <ele>575</ele>
        <time>2023-04-24T18:12:35Z</time>
      </trkpt>
      <trkpt lat="42.94477" lon="1.92338">
        <ele>572</ele>
        <time>2023-04-24T18:12:43Z</time>
      </trkpt>
      <trkpt lat="42.94479" lon="1.92352">
        <ele>570</ele>
        <time>2023-04-24T18:12:51Z</time>
      </trkpt>
      <trkpt lat="42.9448" lon="1.9237">
        <ele>568</ele>
        <time>2023-04-24T18:13:01Z</time>
      </trkpt>
      <trkpt lat="42.94477" lon="1.92399">
        <ele>567</ele>
        <time>2023-04-24T18:13:19Z</time>
      </trkpt>
      <trkpt lat="42.94479" lon="1.92415">
        <ele>565</ele>
        <time>2023-04-24T18:13:28Z</time>
      </trkpt>
      <trkpt lat="42.94479" lon="1.92434">
        <ele>563</ele>
        <time>2023-04-24T18:13:39Z</time>
      </trkpt>
      <trkpt lat="42.94487" lon="1.92468">
        <ele>558</ele>
        <time>2023-04-24T18:14:00Z</time>
      </trkpt>
      <trkpt lat="42.94491" lon="1.92519">
        <ele>555</ele>
        <time>2023-04-24T18:14:30Z</time>
      </trkpt>
      <trkpt lat="42.94497" lon="1.92541">
        <ele>553</ele>
        <time>2023-04-24T18:14:44Z</time>
      </trkpt>
      <trkpt lat="42.9451" lon="1.92571">
        <ele>550</ele>
        <time>2023-04-24T18:15:04Z</time>
      </trkpt>
      <trkpt lat="42.94526" lon="1.92597">
        <ele>546</ele>
        <time>2023-04-24T18:15:24Z</time>
      </trkpt>
      <trkpt lat="42.9453" lon="1.92627">
        <ele>544</ele>
        <time>2023-04-24T18:15:42Z</time>
      </trkpt>
      <trkpt lat="42.94571" lon="1.92627">
        <ele>533</ele>
        <time>2023-04-24T18:16:15Z</time>
      </trkpt>
      <trkpt lat="42.94593" lon="1.92625">
        <ele>529</ele>
        <time>2023-04-24T18:16:33Z</time>
      </trkpt>
      <trkpt lat="42.94612" lon="1.92621">
        <ele>525</ele>
        <time>2023-04-24T18:16:48Z</time>
      </trkpt>
      <trkpt lat="42.94684" lon="1.92633">
        <ele>511</ele>
        <time>2023-04-24T18:17:46Z</time>
      </trkpt>
      <trkpt lat="42.94694" lon="1.92633">
        <ele>510</ele>
        <time>2023-04-24T18:17:54Z</time>
      </trkpt>
      <trkpt lat="42.947" lon="1.92631">
        <ele>509</ele>
        <time>2023-04-24T18:17:59Z</time>
      </trkpt>
      <trkpt lat="42.94707" lon="1.92624">
        <ele>507</ele>
        <time>2023-04-24T18:18:06Z</time>
      </trkpt>
      <trkpt lat="42.94739" lon="1.92525">
        <ele>501</ele>
        <time>2023-04-24T18:19:10Z</time>
      </trkpt>
      <trkpt lat="42.94743" lon="1.92499">
        <ele>499</ele>
        <time>2023-04-24T18:19:25Z</time>
      </trkpt>
      <trkpt lat="42.94744" lon="1.92465">
        <ele>497</ele>
        <time>2023-04-24T18:19:45Z</time>
      </trkpt>
      <trkpt lat="42.94749" lon="1.92448">
        <ele>494</ele>
        <time>2023-04-24T18:19:56Z</time>
      </trkpt>
      <trkpt lat="42.94755" lon="1.92443">
        <ele>493</ele>
        <time>2023-04-24T18:20:01Z</time>
      </trkpt>
      <trkpt lat="42.9478" lon="1.9245">
        <ele>488</ele>
        <time>2023-04-24T18:20:22Z</time>
      </trkpt>
      <trkpt lat="42.94787" lon="1.9245">
        <ele>487</ele>
        <time>2023-04-24T18:20:27Z</time>
      </trkpt>
      <trkpt lat="42.94793" lon="1.92447">
        <ele>485</ele>
        <time>2023-04-24T18:20:33Z</time>
      </trkpt>
      <trkpt lat="42.94849" lon="1.92381">
        <ele>475</ele>
        <time>2023-04-24T18:21:32Z</time>
      </trkpt>
      <trkpt lat="42.94862" lon="1.9238">
        <ele>473</ele>
        <time>2023-04-24T18:21:42Z</time>
      </trkpt>
      <trkpt lat="42.9489" lon="1.92394">
        <ele>469</ele>
        <time>2023-04-24T18:22:06Z</time>
      </trkpt>
      <trkpt lat="42.94902" lon="1.92406">
        <ele>467</ele>
        <time>2023-04-24T18:22:18Z</time>
      </trkpt>
      <trkpt lat="42.94925" lon="1.92416">
        <ele>464</ele>
        <time>2023-04-24T18:22:37Z</time>
      </trkpt>
      <trkpt lat="42.94934" lon="1.92418">
        <ele>463</ele>
        <time>2023-04-24T18:22:45Z</time>
      </trkpt>
      <trkpt lat="42.94958" lon="1.92418">
        <ele>460</ele>
        <time>2023-04-24T18:23:04Z</time>
      </trkpt>
      <trkpt lat="42.94967" lon="1.9242">
        <ele>459</ele>
        <time>2023-04-24T18:23:11Z</time>
      </trkpt>
      <trkpt lat="42.94996" lon="1.92434">
        <ele>455</ele>
        <time>2023-04-24T18:23:36Z</time>
      </trkpt>
      <trkpt lat="42.95002" lon="1.9244">
        <ele>454</ele>
        <time>2023-04-24T18:23:42Z</time>
      </trkpt>
      <trkpt lat="42.95005" lon="1.92449">
        <ele>454</ele>
        <time>2023-04-24T18:23:48Z</time>
      </trkpt>
      <trkpt lat="42.95009" lon="1.92484">
        <ele>454</ele>
        <time>2023-04-24T18:24:08Z</time>
      </trkpt>
      <trkpt lat="42.95015" lon="1.92484">
        <ele>454</ele>
        <time>2023-04-24T18:24:13Z</time>
      </trkpt>
      <trkpt lat="42.95019" lon="1.9248">
        <ele>454</ele>
        <time>2023-04-24T18:24:17Z</time>
      </trkpt>
      <trkpt lat="42.95033" lon="1.92439">
        <ele>453</ele>
        <time>2023-04-24T18:24:44Z</time>
      </trkpt>
      <trkpt lat="42.95042" lon="1.9242">
        <ele>452</ele>
        <time>2023-04-24T18:24:57Z</time>
      </trkpt>
      <trkpt lat="42.95054" lon="1.92409">
        <ele>452</ele>
        <time>2023-04-24T18:25:08Z</time>
      </trkpt>
      <trkpt lat="42.9507" lon="1.92404">
        <ele>451</ele>
        <time>2023-04-24T18:25:22Z</time>
      </trkpt>
      <trkpt lat="42.95142" lon="1.92403">
        <ele>449</ele>
        <time>2023-04-24T18:26:19Z</time>
      </trkpt>
      <trkpt lat="42.95185" lon="1.92395">
        <ele>448</ele>
        <time>2023-04-24T18:26:54Z</time>
      </trkpt>
      <trkpt lat="42.95193" lon="1.92395">
        <ele>447</ele>
        <time>2023-04-24T18:27:00Z</time>
      </trkpt>
      <trkpt lat="42.95211" lon="1.92402">
        <ele>446</ele>
        <time>2023-04-24T18:27:15Z</time>
      </trkpt>
      <trkpt lat="42.95266" lon="1.92397">
        <ele>443</ele>
        <time>2023-04-24T18:27:59Z</time>
      </trkpt>
      <trkpt lat="42.95292" lon="1.92389">
        <ele>441</ele>
        <time>2023-04-24T18:28:21Z</time>
      </trkpt>
      <trkpt lat="42.95308" lon="1.92381">
        <ele>440</ele>
        <time>2023-04-24T18:28:34Z</time>
      </trkpt>
      <trkpt lat="42.95325" lon="1.92368">
        <ele>439</ele>
        <time>2023-04-24T18:28:50Z</time>
      </trkpt>
      <trkpt lat="42.95344" lon="1.92337">
        <ele>439</ele>
        <time>2023-04-24T18:29:14Z</time>
      </trkpt>
      <trkpt lat="42.95431" lon="1.92364">
        <ele>429</ele>
        <time>2023-04-24T18:30:25Z</time>
      </trkpt>
      <trkpt lat="42.95448" lon="1.92365">
        <ele>428</ele>
        <time>2023-04-24T18:30:39Z</time>
      </trkpt>
      <trkpt lat="42.95463" lon="1.92358">
        <ele>427</ele>
        <time>2023-04-24T18:30:51Z</time>
      </trkpt>
      <trkpt lat="42.9547" lon="1.92331">
        <ele>426</ele>
        <time>2023-04-24T18:31:08Z</time>
      </trkpt>
      <trkpt lat="42.95507" lon="1.92232">
        <ele>424</ele>
        <time>2023-04-24T18:32:13Z</time>
      </trkpt>
      <trkpt lat="42.95514" lon="1.92218">
        <ele>424</ele>
        <time>2023-04-24T18:32:23Z</time>
      </trkpt>
      <trkpt lat="42.95522" lon="1.9221">
        <ele>424</ele>
        <time>2023-04-24T18:32:31Z</time>
      </trkpt>
      <trkpt lat="42.95557" lon="1.92192">
        <ele>425</ele>
        <time>2023-04-24T18:33:01Z</time>
      </trkpt>
      <trkpt lat="42.95573" lon="1.92214">
        <ele>425</ele>
        <time>2023-04-24T18:33:19Z</time>
      </trkpt>
      <trkpt lat="42.95595" lon="1.92236">
        <ele>425</ele>
        <time>2023-04-24T18:33:41Z</time>
      </trkpt>
      <trkpt lat="42.95613" lon="1.92269">
        <ele>424</ele>
        <time>2023-04-24T18:34:05Z</time>
      </trkpt>
      <trkpt lat="42.95641" lon="1.92301">
        <ele>424</ele>
        <time>2023-04-24T18:34:35Z</time>
      </trkpt>
      <trkpt lat="42.95651" lon="1.92309">
        <ele>424</ele>
        <time>2023-04-24T18:34:44Z</time>
      </trkpt>
      <trkpt lat="42.95666" lon="1.92312">
        <ele>424</ele>
        <time>2023-04-24T18:34:56Z</time>
      </trkpt>
      <trkpt lat="42.95769" lon="1.92274">
        <ele>427</ele>
        <time>2023-04-24T18:36:21Z</time>
      </trkpt>
      <trkpt lat="42.95755" lon="1.92205">
        <ele>428</ele>
        <time>2023-04-24T18:37:03Z</time>
      </trkpt>
      <trkpt lat="42.95752" lon="1.92186">
        <ele>428</ele>
        <time>2023-04-24T18:37:15Z</time>
      </trkpt>
      <trkpt lat="42.95752" lon="1.92168">
        <ele>428</ele>
        <time>2023-04-24T18:37:25Z</time>
      </trkpt>
      <trkpt lat="42.95802" lon="1.92168">
        <ele>430</ele>
        <time>2023-04-24T18:38:05Z</time>
      </trkpt>
      <trkpt lat="42.95816" lon="1.9217">
        <ele>431</ele>
        <time>2023-04-24T18:38:17Z</time>
      </trkpt>
      <trkpt lat="42.95847" lon="1.92202">
        <ele>433</ele>
        <time>2023-04-24T18:38:48Z</time>
      </trkpt>
      <trkpt lat="42.95857" lon="1.92208">
        <ele>434</ele>
        <time>2023-04-24T18:38:56Z</time>
      </trkpt>
      <trkpt lat="42.95873" lon="1.92208">
        <ele>436</ele>
        <time>2023-04-24T18:39:09Z</time>
      </trkpt>
      <trkpt lat="42.95901" lon="1.92493">
        <ele>433</ele>
        <time>2023-04-24T18:41:58Z</time>
      </trkpt>
      <trkpt lat="42.95904" lon="1.92566">
        <ele>431</ele>
        <time>2023-04-24T18:42:41Z</time>
      </trkpt>
      <trkpt lat="42.95904" lon="1.92645">
        <ele>430</ele>
        <time>2023-04-24T18:43:27Z</time>
      </trkpt>
      <trkpt lat="42.9591" lon="1.9264">
        <ele>431</ele>
        <time>2023-04-24T18:43:33Z</time>
      </trkpt>
      <trkpt lat="42.95916" lon="1.92628">
        <ele>431</ele>
        <time>2023-04-24T18:43:41Z</time>
      </trkpt>
      <trkpt lat="42.95927" lon="1.92624">
        <ele>432</ele>
        <time>2023-04-24T18:43:50Z</time>
      </trkpt>
      <trkpt lat="42.95971" lon="1.9267">
        <ele>441</ele>
        <time>2023-04-24T18:44:35Z</time>
      </trkpt>
      <trkpt lat="42.95973" lon="1.92689">
        <ele>444</ele>
        <time>2023-04-24T18:44:46Z</time>
      </trkpt>
      <trkpt lat="42.9598" lon="1.92698">
        <ele>447</ele>
        <time>2023-04-24T18:44:53Z</time>
      </trkpt>
      <trkpt lat="42.95991" lon="1.92703">
        <ele>450</ele>
        <time>2023-04-24T18:45:03Z</time>
      </trkpt>
      <trkpt lat="42.96005" lon="1.92701">
        <ele>453</ele>
        <time>2023-04-24T18:45:14Z</time>
      </trkpt>
      <trkpt lat="42.96033" lon="1.92689">
        <ele>459</ele>
        <time>2023-04-24T18:45:38Z</time>
      </trkpt>
      <trkpt lat="42.9604" lon="1.92698">
        <ele>463</ele>
        <time>2023-04-24T18:45:45Z</time>
      </trkpt>
      <trkpt lat="42.96041" lon="1.92736">
        <ele>472</ele>
        <time>2023-04-24T18:46:07Z</time>
      </trkpt>
      <trkpt lat="42.96039" lon="1.92766">
        <ele>477</ele>
        <time>2023-04-24T18:46:25Z</time>
      </trkpt>
      <trkpt lat="42.96069" lon="1.92792">
        <ele>490</ele>
        <time>2023-04-24T18:46:54Z</time>
      </trkpt>
      <trkpt lat="42.96055" lon="1.92839">
        <ele>493</ele>
        <time>2023-04-24T18:47:23Z</time>
      </trkpt>
      <trkpt lat="42.96046" lon="1.92892">
        <ele>493</ele>
        <time>2023-04-24T18:47:55Z</time>
      </trkpt>
      <trkpt lat="42.96042" lon="1.92938">
        <ele>494</ele>
        <time>2023-04-24T18:48:22Z</time>
      </trkpt>
      <trkpt lat="42.96045" lon="1.92945">
        <ele>495</ele>
        <time>2023-04-24T18:48:27Z</time>
      </trkpt>
      <trkpt lat="42.96049" lon="1.92947">
        <ele>496</ele>
        <time>2023-04-24T18:48:31Z</time>
      </trkpt>
      <trkpt lat="42.96055" lon="1.92947">
        <ele>498</ele>
        <time>2023-04-24T18:48:35Z</time>
      </trkpt>
      <trkpt lat="42.96087" lon="1.92924">
        <ele>505</ele>
        <time>2023-04-24T18:49:04Z</time>
      </trkpt>
      <trkpt lat="42.96093" lon="1.92924">
        <ele>506</ele>
        <time>2023-04-24T18:49:09Z</time>
      </trkpt>
      <trkpt lat="42.96097" lon="1.92928">
        <ele>507</ele>
        <time>2023-04-24T18:49:13Z</time>
      </trkpt>
      <trkpt lat="42.96097" lon="1.92935">
        <ele>508</ele>
        <time>2023-04-24T18:49:17Z</time>
      </trkpt>
      <trkpt lat="42.96077" lon="1.9299">
        <ele>508</ele>
        <time>2023-04-24T18:49:53Z</time>
      </trkpt>
      <trkpt lat="42.96073" lon="1.9302">
        <ele>510</ele>
        <time>2023-04-24T18:50:11Z</time>
      </trkpt>
      <trkpt lat="42.96071" lon="1.93082">
        <ele>516</ele>
        <time>2023-04-24T18:50:47Z</time>
      </trkpt>
      <trkpt lat="42.96078" lon="1.93181">
        <ele>521</ele>
        <time>2023-04-24T18:51:46Z</time>
      </trkpt>
      <trkpt lat="42.96094" lon="1.93184">
        <ele>522</ele>
        <time>2023-04-24T18:51:59Z</time>
      </trkpt>
      <trkpt lat="42.96108" lon="1.93183">
        <ele>521</ele>
        <time>2023-04-24T18:52:10Z</time>
      </trkpt>
      <trkpt lat="42.96115" lon="1.93177">
        <ele>521</ele>
        <time>2023-04-24T18:52:16Z</time>
      </trkpt>
      <trkpt lat="42.96131" lon="1.93145">
        <ele>522</ele>
        <time>2023-04-24T18:52:39Z</time>
      </trkpt>
      <trkpt lat="42.96138" lon="1.93123">
        <ele>522</ele>
        <time>2023-04-24T18:52:53Z</time>
      </trkpt>
      <trkpt lat="42.96141" lon="1.93088">
        <ele>523</ele>
        <time>2023-04-24T18:53:14Z</time>
      </trkpt>
      <trkpt lat="42.9614" lon="1.93065">
        <ele>522</ele>
        <time>2023-04-24T18:53:27Z</time>
      </trkpt>
      <trkpt lat="42.96144" lon="1.93052">
        <ele>522</ele>
        <time>2023-04-24T18:53:36Z</time>
      </trkpt>
      <trkpt lat="42.96154" lon="1.93033">
        <ele>523</ele>
        <time>2023-04-24T18:53:49Z</time>
      </trkpt>
      <trkpt lat="42.96181" lon="1.92997">
        <ele>524</ele>
        <time>2023-04-24T18:54:19Z</time>
      </trkpt>
      <trkpt lat="42.96206" lon="1.92959">
        <ele>521</ele>
        <time>2023-04-24T18:54:49Z</time>
      </trkpt>
      <trkpt lat="42.96246" lon="1.92871">
        <ele>523</ele>
        <time>2023-04-24T18:55:50Z</time>
      </trkpt>
      <trkpt lat="42.96278" lon="1.92813">
        <ele>522</ele>
        <time>2023-04-24T18:56:33Z</time>
      </trkpt>
      <trkpt lat="42.96297" lon="1.92764">
        <ele>522</ele>
        <time>2023-04-24T18:57:05Z</time>
      </trkpt>
      <trkpt lat="42.96308" lon="1.92727">
        <ele>522</ele>
        <time>2023-04-24T18:57:29Z</time>
      </trkpt>
      <trkpt lat="42.9633" lon="1.92672">
        <ele>523</ele>
        <time>2023-04-24T18:58:05Z</time>
      </trkpt>
      <trkpt lat="42.96339" lon="1.92643">
        <ele>521</ele>
        <time>2023-04-24T18:58:24Z</time>
      </trkpt>
      <trkpt lat="42.96355" lon="1.9261">
        <ele>520</ele>
        <time>2023-04-24T18:58:47Z</time>
      </trkpt>
      <trkpt lat="42.96379" lon="1.92541">
        <ele>519</ele>
        <time>2023-04-24T18:59:32Z</time>
      </trkpt>
      <trkpt lat="42.96383" lon="1.92521">
        <ele>519</ele>
        <time>2023-04-24T18:59:44Z</time>
      </trkpt>
      <trkpt lat="42.96383" lon="1.92479">
        <ele>520</ele>
        <time>2023-04-24T19:00:08Z</time>
      </trkpt>
      <trkpt lat="42.96359" lon="1.92329">
        <ele>526</ele>
        <time>2023-04-24T19:01:38Z</time>
      </trkpt>
      <trkpt lat="42.96356" lon="1.92286">
        <ele>529</ele>
        <time>2023-04-24T19:02:04Z</time>
      </trkpt>
      <trkpt lat="42.96337" lon="1.92267">
        <ele>533</ele>
        <time>2023-04-24T19:02:23Z</time>
      </trkpt>
      <trkpt lat="42.96311" lon="1.92248">
        <ele>533</ele>
        <time>2023-04-24T19:02:46Z</time>
      </trkpt>
      <trkpt lat="42.96304" lon="1.92246">
        <ele>532</ele>
        <time>2023-04-24T19:02:52Z</time>
      </trkpt>
      <trkpt lat="42.9628" lon="1.92248">
        <ele>530</ele>
        <time>2023-04-24T19:03:11Z</time>
      </trkpt>
      <trkpt lat="42.96272" lon="1.92246">
        <ele>529</ele>
        <time>2023-04-24T19:03:18Z</time>
      </trkpt>
      <trkpt lat="42.96228" lon="1.92219">
        <ele>523</ele>
        <time>2023-04-24T19:03:56Z</time>
      </trkpt>
      <trkpt lat="42.9622" lon="1.92213">
        <ele>522</ele>
        <time>2023-04-24T19:04:04Z</time>
      </trkpt>
      <trkpt lat="42.96179" lon="1.92161">
        <ele>516</ele>
        <time>2023-04-24T19:04:48Z</time>
      </trkpt>
      <trkpt lat="42.96143" lon="1.9215">
        <ele>512</ele>
        <time>2023-04-24T19:05:18Z</time>
      </trkpt>
      <trkpt lat="42.96132" lon="1.92151">
        <ele>511</ele>
        <time>2023-04-24T19:05:27Z</time>
      </trkpt>
      <trkpt lat="42.96125" lon="1.92141">
        <ele>511</ele>
        <time>2023-04-24T19:05:35Z</time>
      </trkpt>
      <trkpt lat="42.96095" lon="1.92144">
        <ele>507</ele>
        <time>2023-04-24T19:05:59Z</time>
      </trkpt>
      <trkpt lat="42.96095" lon="1.92134">
        <ele>509</ele>
        <time>2023-04-24T19:06:05Z</time>
      </trkpt>
      <trkpt lat="42.96087" lon="1.92116">
        <ele>511</ele>
        <time>2023-04-24T19:06:17Z</time>
      </trkpt>
      <trkpt lat="42.96076" lon="1.92106">
        <ele>509</ele>
        <time>2023-04-24T19:06:28Z</time>
      </trkpt>
      <trkpt lat="42.96073" lon="1.92087">
        <ele>511</ele>
        <time>2023-04-24T19:06:39Z</time>
      </trkpt>
      <trkpt lat="42.96068" lon="1.92075">
        <ele>511</ele>
        <time>2023-04-24T19:06:47Z</time>
      </trkpt>
      <trkpt lat="42.96053" lon="1.92051">
        <ele>509</ele>
        <time>2023-04-24T19:07:06Z</time>
      </trkpt>
      <trkpt lat="42.96053" lon="1.92037">
        <ele>511</ele>
        <time>2023-04-24T19:07:14Z</time>
      </trkpt>
      <trkpt lat="42.96047" lon="1.92026">
        <ele>510</ele>
        <time>2023-04-24T19:07:22Z</time>
      </trkpt>
      <trkpt lat="42.96044" lon="1.92011">
        <ele>511</ele>
        <time>2023-04-24T19:07:31Z</time>
      </trkpt>
      <trkpt lat="42.9605" lon="1.91995">
        <ele>514</ele>
        <time>2023-04-24T19:07:42Z</time>
      </trkpt>
      <trkpt lat="42.96051" lon="1.9198">
        <ele>515</ele>
        <time>2023-04-24T19:07:50Z</time>
      </trkpt>
      <trkpt lat="42.96038" lon="1.91927">
        <ele>511</ele>
        <time>2023-04-24T19:08:23Z</time>
      </trkpt>
      <trkpt lat="42.96043" lon="1.91916">
        <ele>513</ele>
        <time>2023-04-24T19:08:31Z</time>
      </trkpt>
      <trkpt lat="42.96043" lon="1.91865">
        <ele>512</ele>
        <time>2023-04-24T19:09:01Z</time>
      </trkpt>
      <trkpt lat="42.96052" lon="1.91815">
        <ele>513</ele>
        <time>2023-04-24T19:09:31Z</time>
      </trkpt>
      <trkpt lat="42.96053" lon="1.91789">
        <ele>512</ele>
        <time>2023-04-24T19:09:46Z</time>
      </trkpt>
      <trkpt lat="42.96066" lon="1.91736">
        <ele>514</ele>
        <time>2023-04-24T19:10:19Z</time>
      </trkpt>
      <trkpt lat="42.96072" lon="1.91726">
        <ele>516</ele>
        <time>2023-04-24T19:10:26Z</time>
      </trkpt>
      <trkpt lat="42.9607" lon="1.9171">
        <ele>514</ele>
        <time>2023-04-24T19:10:36Z</time>
      </trkpt>
      <trkpt lat="42.96076" lon="1.91658">
        <ele>513</ele>
        <time>2023-04-24T19:11:07Z</time>
      </trkpt>
      <trkpt lat="42.96081" lon="1.91642">
        <ele>514</ele>
        <time>2023-04-24T19:11:17Z</time>
      </trkpt>
      <trkpt lat="42.96083" lon="1.91626">
        <ele>513</ele>
        <time>2023-04-24T19:11:26Z</time>
      </trkpt>
      <trkpt lat="42.96099" lon="1.91587">
        <ele>513</ele>
        <time>2023-04-24T19:11:53Z</time>
      </trkpt>
      <trkpt lat="42.96105" lon="1.91552">
        <ele>512</ele>
        <time>2023-04-24T19:12:14Z</time>
      </trkpt>
      <trkpt lat="42.96112" lon="1.9154">
        <ele>513</ele>
        <time>2023-04-24T19:12:23Z</time>
      </trkpt>
      <trkpt lat="42.96104" lon="1.9153">
        <ele>511</ele>
        <time>2023-04-24T19:12:31Z</time>
      </trkpt>
      <trkpt lat="42.96103" lon="1.91505">
        <ele>509</ele>
        <time>2023-04-24T19:12:46Z</time>
      </trkpt>
      <trkpt lat="42.96111" lon="1.91455">
        <ele>510</ele>
        <time>2023-04-24T19:13:16Z</time>
      </trkpt>
      <trkpt lat="42.96119" lon="1.91429">
        <ele>512</ele>
        <time>2023-04-24T19:13:33Z</time>
      </trkpt>
      <trkpt lat="42.96117" lon="1.91407">
        <ele>511</ele>
        <time>2023-04-24T19:13:46Z</time>
      </trkpt>
      <trkpt lat="42.96126" lon="1.91357">
        <ele>512</ele>
        <time>2023-04-24T19:14:16Z</time>
      </trkpt>
      <trkpt lat="42.96135" lon="1.91356">
        <ele>515</ele>
        <time>2023-04-24T19:14:23Z</time>
      </trkpt>
      <trkpt lat="42.96144" lon="1.91334">
        <ele>518</ele>
        <time>2023-04-24T19:14:38Z</time>
      </trkpt>
      <trkpt lat="42.9615" lon="1.91302">
        <ele>519</ele>
        <time>2023-04-24T19:14:57Z</time>
      </trkpt>
      <trkpt lat="42.96158" lon="1.91291">
        <ele>521</ele>
        <time>2023-04-24T19:15:06Z</time>
      </trkpt>
      <trkpt lat="42.96163" lon="1.91274">
        <ele>522</ele>
        <time>2023-04-24T19:15:17Z</time>
      </trkpt>
      <trkpt lat="42.96164" lon="1.91252">
        <ele>521</ele>
        <time>2023-04-24T19:15:30Z</time>
      </trkpt>
      <trkpt lat="42.96156" lon="1.91204">
        <ele>520</ele>
        <time>2023-04-24T19:15:59Z</time>
      </trkpt>
      <trkpt lat="42.96156" lon="1.91181">
        <ele>520</ele>
        <time>2023-04-24T19:16:12Z</time>
      </trkpt>
      <trkpt lat="42.96161" lon="1.91167">
        <ele>522</ele>
        <time>2023-04-24T19:16:21Z</time>
      </trkpt>
      <trkpt lat="42.96161" lon="1.91153">
        <ele>522</ele>
        <time>2023-04-24T19:16:30Z</time>
      </trkpt>
      <trkpt lat="42.96157" lon="1.91137">
        <ele>521</ele>
        <time>2023-04-24T19:16:39Z</time>
      </trkpt>
      <trkpt lat="42.96156" lon="1.91118">
        <ele>521</ele>
        <time>2023-04-24T19:16:51Z</time>
      </trkpt>
      <trkpt lat="42.96159" lon="1.91102">
        <ele>522</ele>
        <time>2023-04-24T19:17:00Z</time>
      </trkpt>
      <trkpt lat="42.96169" lon="1.91071">
        <ele>525</ele>
        <time>2023-04-24T19:17:20Z</time>
      </trkpt>
      <trkpt lat="42.96172" lon="1.91021">
        <ele>525</ele>
        <time>2023-04-24T19:17:50Z</time>
      </trkpt>
      <trkpt lat="42.96169" lon="1.90996">
        <ele>525</ele>
        <time>2023-04-24T19:18:04Z</time>
      </trkpt>
      <trkpt lat="42.9617" lon="1.90979">
        <ele>525</ele>
        <time>2023-04-24T19:18:14Z</time>
      </trkpt>
      <trkpt lat="42.96161" lon="1.90955">
        <ele>522</ele>
        <time>2023-04-24T19:18:30Z</time>
      </trkpt>
      <trkpt lat="42.96159" lon="1.90911">
        <ele>520</ele>
        <time>2023-04-24T19:18:56Z</time>
      </trkpt>
      <trkpt lat="42.96165" lon="1.90892">
        <ele>521</ele>
        <time>2023-04-24T19:19:08Z</time>
      </trkpt>
      <trkpt lat="42.9617" lon="1.90852">
        <ele>520</ele>
        <time>2023-04-24T19:19:32Z</time>
      </trkpt>
      <trkpt lat="42.96177" lon="1.90814">
        <ele>519</ele>
        <time>2023-04-24T19:19:55Z</time>
      </trkpt>
      <trkpt lat="42.96182" lon="1.90802">
        <ele>519</ele>
        <time>2023-04-24T19:20:03Z</time>
      </trkpt>
      <trkpt lat="42.96197" lon="1.90747">
        <ele>518</ele>
        <time>2023-04-24T19:20:37Z</time>
      </trkpt>
      <trkpt lat="42.96202" lon="1.90721">
        <ele>518</ele>
        <time>2023-04-24T19:20:53Z</time>
      </trkpt>
      <trkpt lat="42.96203" lon="1.90707">
        <ele>518</ele>
        <time>2023-04-24T19:21:01Z</time>
      </trkpt>
      <trkpt lat="42.96201" lon="1.9066">
        <ele>517</ele>
        <time>2023-04-24T19:21:29Z</time>
      </trkpt>
      <trkpt lat="42.96194" lon="1.90616">
        <ele>517</ele>
        <time>2023-04-24T19:21:55Z</time>
      </trkpt>
      <trkpt lat="42.96198" lon="1.90601">
        <ele>518</ele>
        <time>2023-04-24T19:22:05Z</time>
      </trkpt>
      <trkpt lat="42.96195" lon="1.90551">
        <ele>519</ele>
        <time>2023-04-24T19:22:34Z</time>
      </trkpt>
      <trkpt lat="42.96192" lon="1.90537">
        <ele>519</ele>
        <time>2023-04-24T19:22:43Z</time>
      </trkpt>
      <trkpt lat="42.96183" lon="1.90529">
        <ele>518</ele>
        <time>2023-04-24T19:22:51Z</time>
      </trkpt>
      <trkpt lat="42.96178" lon="1.90517">
        <ele>518</ele>
        <time>2023-04-24T19:22:59Z</time>
      </trkpt>
      <trkpt lat="42.96177" lon="1.90503">
        <ele>518</ele>
        <time>2023-04-24T19:23:08Z</time>
      </trkpt>
      <trkpt lat="42.96185" lon="1.90471">
        <ele>518</ele>
        <time>2023-04-24T19:23:27Z</time>
      </trkpt>
      <trkpt lat="42.9619" lon="1.9044">
        <ele>517</ele>
        <time>2023-04-24T19:23:46Z</time>
      </trkpt>
      <trkpt lat="42.9621" lon="1.90421">
        <ele>520</ele>
        <time>2023-04-24T19:24:05Z</time>
      </trkpt>
      <trkpt lat="42.9622" lon="1.90415">
        <ele>521</ele>
        <time>2023-04-24T19:24:14Z</time>
      </trkpt>
      <trkpt lat="42.96218" lon="1.904">
        <ele>520</ele>
        <time>2023-04-24T19:24:23Z</time>
      </trkpt>
      <trkpt lat="42.96229" lon="1.90369">
        <ele>520</ele>
        <time>2023-04-24T19:24:43Z</time>
      </trkpt>
      <trkpt lat="42.96229" lon="1.90352">
        <ele>518</ele>
        <time>2023-04-24T19:24:53Z</time>
      </trkpt>
      <trkpt lat="42.9624" lon="1.90326">
        <ele>519</ele>
        <time>2023-04-24T19:25:11Z</time>
      </trkpt>
      <trkpt lat="42.96251" lon="1.90318">
        <ele>521</ele>
        <time>2023-04-24T19:25:21Z</time>
      </trkpt>
      <trkpt lat="42.96253" lon="1.90306">
        <ele>520</ele>
        <time>2023-04-24T19:25:28Z</time>
      </trkpt>
      <trkpt lat="42.96259" lon="1.90294">
        <ele>518</ele>
        <time>2023-04-24T19:25:37Z</time>
      </trkpt>
      <trkpt lat="42.96263" lon="1.90277">
        <ele>517</ele>
        <time>2023-04-24T19:25:47Z</time>
      </trkpt>
      <trkpt lat="42.9627" lon="1.90257">
        <ele>515</ele>
        <time>2023-04-24T19:26:00Z</time>
      </trkpt>
      <trkpt lat="42.96271" lon="1.9024">
        <ele>514</ele>
        <time>2023-04-24T19:26:10Z</time>
      </trkpt>
      <trkpt lat="42.96265" lon="1.90237">
        <ele>513</ele>
        <time>2023-04-24T19:26:15Z</time>
      </trkpt>
      <trkpt lat="42.9626" lon="1.90239">
        <ele>513</ele>
        <time>2023-04-24T19:26:19Z</time>
      </trkpt>
      <trkpt lat="42.96238" lon="1.9023">
        <ele>509</ele>
        <time>2023-04-24T19:26:38Z</time>
      </trkpt>
      <trkpt lat="42.96232" lon="1.90229">
        <ele>507</ele>
        <time>2023-04-24T19:26:43Z</time>
      </trkpt>
      <trkpt lat="42.96226" lon="1.90231">
        <ele>505</ele>
        <time>2023-04-24T19:26:47Z</time>
      </trkpt>
      <trkpt lat="42.9619" lon="1.90278">
        <ele>500</ele>
        <time>2023-04-24T19:27:27Z</time>
      </trkpt>
      <trkpt lat="42.96111" lon="1.90359">
        <ele>484</ele>
        <time>2023-04-24T19:28:46Z</time>
      </trkpt>
      <trkpt lat="42.96008" lon="1.90526">
        <ele>470</ele>
        <time>2023-04-24T19:30:54Z</time>
      </trkpt>
      <trkpt lat="42.95999" lon="1.90545">
        <ele>468</ele>
        <time>2023-04-24T19:31:08Z</time>
      </trkpt>
      <trkpt lat="42.95989" lon="1.90581">
        <ele>468</ele>
        <time>2023-04-24T19:31:30Z</time>
      </trkpt>
      <trkpt lat="42.95955" lon="1.90639">
        <ele>463</ele>
        <time>2023-04-24T19:32:14Z</time>
      </trkpt>
      <trkpt lat="42.95914" lon="1.90673">
        <ele>458</ele>
        <time>2023-04-24T19:32:52Z</time>
      </trkpt>
      <trkpt lat="42.95907" lon="1.90674">
        <ele>457</ele>
        <time>2023-04-24T19:32:58Z</time>
      </trkpt>
      <trkpt lat="42.95876" lon="1.90668">
        <ele>455</ele>
        <time>2023-04-24T19:33:23Z</time>
      </trkpt>
      <trkpt lat="42.95825" lon="1.90638">
        <ele>452</ele>
        <time>2023-04-24T19:34:07Z</time>
      </trkpt>
      <trkpt lat="42.95815" lon="1.90636">
        <ele>451</ele>
        <time>2023-04-24T19:34:15Z</time>
      </trkpt>
      <trkpt lat="42.95805" lon="1.90638">
        <ele>450</ele>
        <time>2023-04-24T19:34:24Z</time>
      </trkpt>
      <trkpt lat="42.95794" lon="1.90643">
        <ele>449</ele>
        <time>2023-04-24T19:34:33Z</time>
      </trkpt>
      <trkpt lat="42.95731" lon="1.90685">
        <ele>446</ele>
        <time>2023-04-24T19:35:29Z</time>
      </trkpt>
      <trkpt lat="42.95718" lon="1.907">
        <ele>446</ele>
        <time>2023-04-24T19:35:43Z</time>
      </trkpt>
      <trkpt lat="42.95688" lon="1.90818">
        <ele>445</ele>
        <time>2023-04-24T19:36:56Z</time>
      </trkpt>
      <trkpt lat="42.95684" lon="1.90826">
        <ele>445</ele>
        <time>2023-04-24T19:37:01Z</time>
      </trkpt>
      <trkpt lat="42.95674" lon="1.90832">
        <ele>444</ele>
        <time>2023-04-24T19:37:10Z</time>
      </trkpt>
      <trkpt lat="42.95667" lon="1.90834">
        <ele>444</ele>
        <time>2023-04-24T19:37:16Z</time>
      </trkpt>
      <trkpt lat="42.95741" lon="1.90947">
        <ele>441</ele>
        <time>2023-04-24T19:38:45Z</time>
      </trkpt>
      <trkpt lat="42.95751" lon="1.90988">
        <ele>439</ele>
        <time>2023-04-24T19:39:10Z</time>
      </trkpt>
      <trkpt lat="42.95742" lon="1.90992">
        <ele>438</ele>
        <time>2023-04-24T19:39:18Z</time>
      </trkpt>
      <trkpt lat="42.95723" lon="1.91">
        <ele>437</ele>
        <time>2023-04-24T19:39:34Z</time>
      </trkpt>
      <trkpt lat="42.95679" lon="1.91005">
        <ele>434</ele>
        <time>2023-04-24T19:40:09Z</time>
      </trkpt>
      <trkpt lat="42.95657" lon="1.9101">
        <ele>433</ele>
        <time>2023-04-24T19:40:27Z</time>
      </trkpt>
      <trkpt lat="42.95648" lon="1.91014">
        <ele>433</ele>
        <time>2023-04-24T19:40:34Z</time>
      </trkpt>
      <trkpt lat="42.95659" lon="1.91028">
        <ele>432</ele>
        <time>2023-04-24T19:40:46Z</time>
      </trkpt>
      <trkpt lat="42.95647" lon="1.9105">
        <ele>431</ele>
        <time>2023-04-24T19:41:02Z</time>
      </trkpt>
      <trkpt lat="42.95669" lon="1.91087">
        <ele>430</ele>
        <time>2023-04-24T19:41:30Z</time>
      </trkpt>
      <trkpt lat="42.95641" lon="1.91114">
        <ele>430</ele>
        <time>2023-04-24T19:41:58Z</time>
      </trkpt>
    </trkseg>
  </trk>
</gpx>